[[{"header":{"parameterUnit":"m.s-1","parameterCategory":1,"la1":31.0,"la2":29.5877,"lo1":-88.7671,"lo2":-86.6584,"dx":0.0162,"dy":0.0185,"nx":115,"ny":88,"refTime":"2022-12-04T06:00:00:Z","depth":0,"parameterNumber":2,"parameterNumberName":"U-component_of_WINDS"},"data":[0.0,0.0,0.0,0.0,0.0,0.0,0.0,0.0,0.0,0.0,0.0,0.0,0.0,0.0,0.0,0.0,0.0,0.0,0.0,0.0,0.0,0.0,0.0,0.0,0.0,0.0,0.0,0.0,0.0,0.0,0.0,0.0,0.0,0.0,0.0,0.0,0.0,0.0,0.0,0.0,0.0,0.0,0.0,0.0,0.0,0.0,0.0,0.0,0.0,0.0,0.0,0.0,0.0,0.0,0.0,0.0,0.0,0.0,0.0,0.0,0.0,0.0,0.0,0.0,0.0,0.0,0.0,0.0,0.0,0.0,0.0,0.0,0.0,0.0,0.0,0.0,0.0,0.0,0.0,0.0,0.0,0.0,0.0,0.0,0.0,0.0,0.0,0.0,0.0,0.0,0.0,0.0,0.0,0.0,0.0,0.0,0.0,0.0,0.0,0.0,0.0,0.0,0.0,0.0,0.0,0.0,0.0,0.0,0.0,0.0,0.0,0.0,0.0,0.0,0.0,0.0,0.0,0.0,0.0,0.0,0.0,0.0,0.0,0.0,0.0,0.0,0.0,0.0,0.0,0.0,0.0,0.0,0.0,0.0,0.0,0.0,0.0,0.0,0.0,0.0,0.0,0.0,0.0,0.0,0.0,0.0,0.0,0.0,0.0,0.0,0.0,0.0,0.0,0.0,0.0,0.0,0.0,0.0,0.0,0.0,0.0,0.0,0.0,0.0,0.0,0.0,0.0,0.0,0.0,0.0,0.0,0.0,0.0,0.0,0.0,0.0,0.0,0.0,0.0,0.0,0.0,0.0,0.0,0.0,0.0,0.0,0.0,0.0,0.0,0.0,0.0,0.0,0.0,0.0,0.0,0.0,0.0,0.0,0.0,0.0,0.0,0.0,0.0,0.0,0.0,0.0,0.0,0.0,0.0,0.0,0.0,0.0,0.0,0.0,0.0,0.0,0.0,0.0,0.0,0.0,0.0,0.0,0.0,0.0,0.0,0.0,0.0,0.0,0.0,0.0,0.0,0.0,0.0,0.0,0.0,0.0,0.0,0.0,0.0,0.0,0.0,0.0,0.0,0.0,0.0,0.0,0.0,0.0,0.0,0.0,0.0,0.0,0.0,0.0,0.0,0.0,0.0,0.0,0.0,0.0,0.0,0.0,0.0,0.0,0.0,0.0,0.0,0.0,0.0,0.0,0.0,0.0,0.0,0.0,0.0,0.0,0.0,0.0,0.0,0.0,0.0,0.0,0.0,0.0,0.0,0.0,0.0,0.0,0.0,0.0,0.0,0.0,0.0,0.0,0.0,0.0,0.0,0.0,0.0,0.0,0.0,0.0,0.0,0.0,0.0,0.0,0.0,0.0,0.0,0.0,0.0,0.0,0.0,0.0,0.0,0.0,0.0,0.0,0.0,0.0,0.0,0.0,0.0,0.0,0.0,0.0,0.0,0.0,0.0,0.0,0.0,0.0,0.0,0.0,0.0,0.0,0.0,0.0,0.0,0.0,0.0,0.0,0.0,0.0,0.0,0.0,0.0,0.0,0.0,0.0,0.0,0.0,0.0,0.0,0.0,0.0,0.0,0.0,0.0,0.0,0.0,0.0,0.0,0.0,0.0,0.0,0.0,0.0,0.0,0.0,0.0,0.0,0.0,0.0,0.0,0.0,0.0,0.0,0.0,0.0,0.0,0.0,0.0,0.0,0.0,0.0,0.0,0.0,0.0,0.0,0.0,0.0,0.0,0.0,0.0,0.0,0.0,0.0,0.0,0.0,0.0,0.0,0.0,0.0,0.0,0.0,0.0,0.0,0.0,0.0,0.0,0.0,0.0,0.0,0.0,0.0,0.0,0.0,0.0,0.0,0.0,0.0,0.0,0.0,0.0,0.0,0.0,0.0,0.0,0.0,0.0,0.0,0.0,0.0,0.0,0.0,0.0,0.0,0.0,0.0,0.0,0.0,0.0,0.0,0.0,0.0,0.0,0.0,0.0,0.0,0.0,0.0,0.0,0.0,0.0,0.0,0.0,0.0,0.0,0.0,0.0,0.0,0.0,0.0,0.0,0.0,0.0,0.0,0.0,0.0,0.0,0.0,0.0,0.0,0.0,0.0,0.0,0.0,0.0,0.0,0.0,0.0,0.0,0.0,0.0,0.0,0.0,0.0,0.0,0.0,0.0,0.0,0.0,0.0,0.0,0.0,0.0,0.0,0.0,0.0,0.0,0.0,0.0,0.0,0.0,0.0,0.0,0.0,0.0,0.0,0.0,0.0,0.0,0.0,0.0,0.0,0.0,0.0,0.0,0.0,0.0,0.0,0.0,0.0,0.0,0.0,0.0,0.0,0.0,0.0,0.0,0.0,0.0,0.0,0.0,0.0,0.0,0.0,0.0,0.0,0.0,0.0,0.0,0.0,0.0,0.0,0.0,0.0,0.0,0.0,0.0,0.0,0.0,0.0,0.0,0.0,0.0,0.0,0.0,0.0,0.0,0.0,0.0,0.0,0.0,0.0,0.0,0.0,0.0,0.0,0.0,0.0,0.0,0.0,0.0,0.0,0.0,0.0,0.0,0.0,0.0,0.0,0.0,0.0,0.0,0.0,0.0,0.0,0.0,0.0,0.0,0.0,0.0,0.0,0.0,0.0,0.0,0.0,0.0,0.0,0.0,0.0,0.0,0.0,0.0,0.0,0.0,0.0,0.0,0.0,0.0,0.0,0.0,0.0,0.0,0.0,0.0,0.0,0.0,0.0,0.0,0.0,0.0,0.0,0.0,0.0,0.0,0.0,0.0,0.0,0.0,0.0,0.0,0.0,0.0,0.0,0.0,0.0,0.0,0.0,0.0,0.0,0.0,0.0,0.0,0.0,0.0,0.0,0.0,0.0,0.0,0.0,0.0,0.0,0.0,0.0,0.0,0.0,0.0,0.0,0.0,0.0,0.0,0.0,0.0,0.0,0.0,0.0,0.0,0.0,0.0,0.0,0.0,0.0,0.0,0.0,0.0,0.0,0.0,0.0,0.0,0.0,0.0,0.0,0.0,0.0,0.0,0.0,0.0,0.0,0.0,0.0,0.0,0.0,0.0,0.0,0.0,0.0,0.0,0.0,0.0,0.0,0.0,0.0,0.0,0.0,0.0,0.0,0.0,0.0,0.0,0.0,0.0,0.0,0.0,0.0,0.0,0.0,0.0,0.0,0.0,0.0,0.0,0.0,0.0,0.0,0.0,0.0,0.0,0.0,0.0,0.0,0.0,0.0,0.0,0.0,0.0,0.0,0.0,0.0,0.0,0.0,0.0,0.0,0.0,0.0,0.0,0.0,0.0,0.0,0.0,0.0,0.0,0.0,0.0,0.0,0.0,0.0,0.0,0.0,0.0,0.0,0.0,0.0,0.0,0.0,0.0,0.0,0.0,0.0,0.0,0.0,0.0,0.0,0.0,0.0,0.0,0.0,0.0,0.0,0.0,0.0,0.0,0.0,0.0,0.0,0.0,0.0,0.0,0.0,0.0,0.0,0.0,0.0,0.0,0.0,0.0,0.0,0.0,0.0,0.0,0.0,0.0,0.0,0.0,0.0,0.0,0.0,0.0,0.0,0.0,0.0,0.0,0.0,0.0,0.0,0.0,0.0,0.0,0.0,0.0,0.0,0.0,0.0,0.0,0.0,0.0,0.0,0.0,0.0,0.0,0.0,0.0,0.0,0.0,0.0,0.0,0.0,0.0,0.0,0.0,0.0,0.0,0.0,0.0,0.0,0.0,0.0,0.0,0.0,0.0,0.0,0.0,0.0,0.0,0.0,0.0,0.0,0.0,0.0,0.0,0.0,0.0,0.0,0.0,0.0,0.0,0.0,0.0,0.0,0.0,0.0,0.0,0.0,0.0,0.0,0.0,0.0,0.0,0.0,0.0,0.0,0.0,0.0,0.0,0.0,0.0,0.0,0.0,0.0,0.0,0.0,0.0,0.0,0.0,0.0,0.0,0.0,0.0,0.0,0.0,0.0,0.0,0.0,0.0,0.0,0.0,0.0,0.0,0.0,0.0,0.0,0.0,0.0,0.0,0.0,0.0,0.0,0.0,0.0,0.0,0.0,0.0,0.0,0.0,0.0,0.0,0.0,0.0,0.0,0.0,0.0,0.0,0.0,0.0,0.0,0.0,0.0,0.0,0.0,0.0,0.0,0.0,0.0,0.0,0.0,0.0,0.0,0.0,0.0,0.0,0.0,0.0,0.0,0.0,0.0,0.0,0.0,0.0,0.0,0.0,0.0,-1.4907,0.0,0.0,0.0,-1.0846,0.0,0.0,0.0,0.0,0.0,0.0,0.0,0.0,0.0,0.0,0.0,0.0,0.0,0.0,0.0,0.0,0.0,0.0,0.0,0.0,0.0,0.0,0.0,0.0,0.0,0.0,0.0,0.0,0.0,0.0,0.0,0.0,0.0,0.0,0.0,0.0,0.0,0.0,0.0,0.0,0.0,0.0,0.0,0.0,0.0,0.0,0.0,0.0,0.0,0.0,0.0,0.0,0.0,0.0,0.0,0.0,0.0,0.0,0.0,0.0,0.0,0.0,0.0,0.0,0.0,0.0,0.0,0.0,0.0,0.0,0.0,0.0,0.0,0.0,0.0,0.0,0.0,0.0,0.0,0.0,0.0,0.0,0.0,0.0,0.0,0.0,0.0,0.0,0.0,0.0,0.0,0.0,0.0,0.0,0.0,0.0,0.0,0.0,0.0,0.0,0.0,0.0,0.0,0.0,0.0,0.0,0.0,0.0,0.0,0.0,-1.3904,-1.1562,-1.4756,-1.4541,-1.0365,0.0,0.0,0.0,0.0,0.0,0.0,0.0,0.0,0.0,0.0,0.0,0.0,0.0,0.0,0.0,0.0,0.0,0.0,0.0,0.0,0.0,0.0,0.0,0.0,0.0,0.0,0.0,0.0,0.0,0.0,0.0,0.0,0.0,0.0,0.0,0.0,0.0,0.0,0.0,0.0,0.0,0.0,0.0,0.0,0.0,0.0,0.0,0.0,0.0,0.0,0.0,0.0,0.0,0.0,0.0,0.0,0.0,0.0,0.0,0.0,0.0,0.0,0.0,0.0,0.0,0.0,0.0,0.0,0.0,0.0,0.0,0.0,0.0,0.0,0.0,0.0,0.0,0.0,0.0,0.0,0.0,0.0,0.0,0.0,0.0,0.0,0.0,0.0,0.0,0.0,0.0,0.0,0.0,0.0,0.0,0.0,0.0,0.0,0.0,0.0,0.0,0.0,0.0,0.0,0.0,0.0,0.0,0.0,0.0,0.0,0.0,0.0,-1.533,-1.5311,-1.1519,0.0,0.0,0.0,0.0,0.0,0.0,0.0,0.0,0.0,0.0,0.0,0.0,0.0,0.0,0.0,0.0,0.0,0.0,0.0,0.0,0.0,0.0,0.0,0.0,0.0,0.0,0.0,0.0,0.0,0.0,0.0,0.0,0.0,0.0,0.0,0.0,0.0,0.0,0.0,0.0,0.0,0.0,0.0,0.0,0.0,0.0,0.0,0.0,0.0,0.0,0.0,0.0,0.0,0.0,0.0,0.0,0.0,0.0,0.0,0.0,0.0,0.0,0.0,0.0,0.0,0.0,0.0,0.0,0.0,0.0,0.0,0.0,0.0,0.0,0.0,0.0,0.0,0.0,0.0,0.0,0.0,0.0,0.0,0.0,0.0,0.0,0.0,0.0,0.0,0.0,0.0,0.0,0.0,0.0,0.0,0.0,0.0,0.0,0.0,0.0,0.0,0.0,0.0,0.0,0.0,0.0,0.0,0.0,0.0,0.0,-1.2269,-1.3632,-1.4808,0.0,-1.4788,0.0,0.0,0.0,0.0,0.0,0.0,0.0,0.0,0.0,0.0,0.0,0.0,0.0,0.0,0.0,0.0,0.0,0.0,0.0,0.0,0.0,0.0,0.0,0.0,0.0,0.0,0.0,0.0,0.0,0.0,0.0,0.0,0.0,0.0,0.0,0.0,0.0,0.0,0.0,0.0,0.0,0.0,0.0,0.0,0.0,0.0,0.0,0.0,0.0,0.0,0.0,0.0,0.0,0.0,0.0,0.0,0.0,0.0,0.0,0.0,0.0,0.0,0.0,0.0,0.0,0.0,0.0,0.0,0.0,0.0,0.0,0.0,0.0,0.0,0.0,0.0,0.0,0.0,0.0,0.0,0.0,0.0,0.0,0.0,0.0,0.0,0.0,0.0,0.0,0.0,0.0,0.0,0.0,0.0,0.0,0.0,0.0,0.0,0.0,0.0,0.0,0.0,0.0,0.0,0.0,0.0,0.0,0.0,0.0,0.0,-1.3209,-1.3879,-1.4247,-1.4689,0.0,0.0,0.0,0.0,0.0,0.0,0.0,0.0,0.0,0.0,0.0,0.0,0.0,0.0,0.0,0.0,0.0,0.0,0.0,0.0,0.0,0.0,0.0,0.0,0.0,0.0,0.0,0.0,0.0,0.0,0.0,0.0,0.0,0.0,0.0,0.0,0.0,0.0,0.0,0.0,0.0,0.0,0.0,0.0,0.0,0.0,0.0,0.0,0.0,0.0,0.0,0.0,0.0,0.0,0.0,0.0,0.0,0.0,0.0,0.0,0.0,0.0,0.0,0.0,0.0,0.0,0.0,0.0,0.0,0.0,0.0,0.0,0.0,0.0,0.0,0.0,0.0,0.0,0.0,0.0,0.0,0.0,0.0,0.0,0.0,0.0,0.0,0.0,0.0,0.0,0.0,0.0,0.0,0.0,0.0,0.0,0.0,0.0,0.0,0.0,0.0,0.0,0.0,0.0,0.0,0.0,0.0,0.0,0.0,0.0,-1.3324,-1.4225,-1.4882,-1.4939,-1.4923,-1.4862,0.0,0.0,0.0,0.0,0.0,0.0,0.0,0.0,0.0,0.0,0.0,0.0,0.0,0.0,0.0,0.0,0.0,0.0,0.0,0.0,0.0,0.0,0.0,0.0,0.0,0.0,0.0,0.0,0.0,0.0,0.0,0.0,0.0,0.0,0.0,0.0,0.0,0.0,0.0,0.0,0.0,0.0,0.0,0.0,0.0,0.0,0.0,0.0,0.0,0.0,0.0,0.0,0.0,0.0,0.0,0.0,0.0,0.0,0.0,0.0,0.0,0.0,0.0,0.0,0.0,0.0,0.0,0.0,0.0,0.0,0.0,0.0,0.0,0.0,0.0,0.0,0.0,0.0,0.0,0.0,0.0,0.0,0.0,0.0,0.0,0.0,0.0,0.0,0.0,0.0,0.0,0.0,0.0,0.0,0.0,0.0,0.0,0.0,0.0,0.0,0.0,0.0,0.0,0.0,0.0,0.0,0.0,0.0,-1.693,-1.5036,-1.5074,-1.743,-1.7523,-1.6407,0.0,0.0,0.0,0.0,0.0,0.0,0.0,0.0,0.0,0.0,0.0,0.0,0.0,0.0,0.0,0.0,0.0,0.0,0.0,0.0,0.0,0.0,0.0,0.0,0.0,0.0,0.0,0.0,0.0,0.0,0.0,0.0,0.0,0.0,0.0,0.0,0.0,0.0,0.0,0.0,0.0,0.0,0.0,0.0,0.0,0.0,0.0,0.0,0.0,0.0,0.0,0.0,0.0,0.0,0.0,0.0,0.0,0.0,0.0,0.0,0.0,0.0,0.0,0.0,0.0,0.0,0.0,0.0,0.0,0.0,0.0,0.0,0.0,0.0,0.0,0.0,0.0,0.0,0.0,0.0,0.0,0.0,0.0,0.0,0.0,0.0,0.0,0.0,0.0,0.0,0.0,0.0,0.0,0.0,0.0,0.0,0.0,0.0,0.0,0.0,0.0,0.0,0.0,0.0,0.0,0.0,0.0,0.0,0.0,-1.2752,-1.3514,-1.5901,-1.9827,-1.7,-1.5596,0.0,0.0,0.0,0.0,0.0,0.0,0.0,0.0,0.0,0.0,0.0,0.0,0.0,0.0,0.0,0.0,0.0,0.0,0.0,0.0,0.0,0.0,0.0,0.0,0.0,0.0,0.0,0.0,0.0,0.0,0.0,0.0,0.0,0.0,0.0,0.0,0.0,0.0,0.0,0.0,0.0,0.0,0.0,0.0,0.0,0.0,0.0,0.0,0.0,0.0,0.0,0.0,0.0,0.0,0.0,0.0,0.0,0.0,0.0,0.0,0.0,0.0,0.0,0.0,0.0,0.0,0.0,0.0,0.0,0.0,0.0,0.0,0.0,0.0,0.0,0.0,0.0,0.0,0.0,0.0,0.0,0.0,0.0,0.0,0.0,0.0,0.0,0.0,0.0,0.0,0.0,0.0,0.0,0.0,0.0,0.0,0.0,0.0,0.0,0.0,0.0,0.0,0.0,0.0,0.0,0.0,0.0,0.0,0.0,-1.2558,-1.5055,-1.7631,-1.9985,-1.6942,-1.5173,0.0,0.0,0.0,0.0,0.0,0.0,0.0,0.0,0.0,0.0,0.0,0.0,0.0,0.0,0.0,0.0,0.0,0.0,0.0,0.0,0.0,0.0,0.0,0.0,0.0,0.0,0.0,0.0,0.0,0.0,0.0,0.0,0.0,0.0,0.0,0.0,0.0,0.0,0.0,0.0,0.0,0.0,0.0,0.0,0.0,0.0,0.0,0.0,0.0,0.0,0.0,0.0,0.0,0.0,0.0,0.0,0.0,0.0,0.0,0.0,0.0,0.0,0.0,0.0,0.0,0.0,0.0,0.0,0.0,0.0,0.0,0.0,0.0,0.0,0.0,0.0,0.0,0.0,0.0,0.0,0.0,0.0,0.0,0.0,0.0,0.0,0.0,0.0,0.0,0.0,0.0,0.0,0.0,0.0,0.0,0.0,0.0,0.0,0.0,0.0,0.0,0.0,0.0,0.0,0.0,0.0,0.0,0.0,-1.2579,-1.7353,-1.9908,-2.0042,-1.7872,-1.7584,-1.5272,0.0,0.0,0.0,0.0,0.0,0.0,0.0,0.0,0.0,0.0,0.0,0.0,0.0,0.0,0.0,0.0,0.0,0.0,0.0,0.0,0.0,0.0,0.0,0.0,0.0,0.0,0.0,0.0,0.0,0.0,0.0,0.0,0.0,0.0,0.0,0.0,0.0,0.0,0.0,0.0,0.0,0.0,0.0,0.0,0.0,0.0,0.0,0.0,0.0,0.0,0.0,0.0,0.0,0.0,0.0,0.0,0.0,0.0,0.0,0.0,0.0,0.0,0.0,0.0,0.0,0.0,0.0,0.0,0.0,0.0,0.0,0.0,0.0,0.0,0.0,0.0,0.0,0.0,0.0,0.0,0.0,0.0,0.0,0.0,0.0,0.0,0.0,0.0,0.0,0.0,0.0,0.0,0.0,0.0,0.0,0.0,0.0,0.0,0.0,0.0,0.0,0.0,0.0,0.0,0.0,0.0,0.0,0.0,0.0,-1.4335,-1.7295,-1.9081,-1.9365,-1.6615,-1.5154,0.0,0.0,0.0,0.0,0.0,0.0,0.0,0.0,0.0,0.0,0.0,0.0,0.0,0.0,0.0,0.0,0.0,0.0,0.0,0.0,0.0,0.0,0.0,0.0,0.0,0.0,0.0,0.0,0.0,0.0,0.0,0.0,0.0,0.0,0.0,0.0,0.0,0.0,0.0,0.0,0.0,0.0,0.0,0.0,0.0,0.0,0.0,0.0,0.0,0.0,0.0,0.0,0.0,0.0,0.0,0.0,0.0,0.0,0.0,0.0,0.0,0.0,0.0,0.0,0.0,0.0,0.0,0.0,0.0,0.0,0.0,0.0,0.0,0.0,0.0,0.0,0.0,0.0,0.0,0.0,0.0,0.0,0.0,0.0,0.0,0.0,0.0,0.0,0.0,0.0,0.0,0.0,0.0,0.0,0.0,0.0,0.0,0.0,0.0,0.0,0.0,0.0,0.0,0.0,0.0,0.0,0.0,0.0,0.0,-1.7148,-1.9931,-2.1566,-2.172,-1.8481,-1.6731,-1.6679,0.0,0.0,0.0,0.0,0.0,0.0,0.0,0.0,0.0,0.0,0.0,0.0,0.0,0.0,0.0,0.0,0.0,0.0,0.0,0.0,0.0,0.0,0.0,0.0,0.0,0.0,0.0,0.0,0.0,0.0,0.0,0.0,0.0,0.0,0.0,0.0,0.0,0.0,0.0,0.0,0.0,0.0,0.0,0.0,0.0,0.0,0.0,0.0,0.0,0.0,0.0,0.0,0.0,0.0,0.0,0.0,0.0,0.0,0.0,0.0,0.0,0.0,0.0,0.0,0.0,0.0,0.0,0.0,0.0,0.0,0.0,0.0,0.0,0.0,0.0,0.0,0.0,0.0,0.0,0.0,0.0,0.0,0.0,0.0,0.0,0.0,0.0,0.0,0.0,0.0,0.0,0.0,0.0,0.0,0.0,0.0,0.0,0.0,0.0,0.0,0.0,0.0,0.0,0.0,0.0,0.0,0.0,0.0,-2.436,-2.6876,-2.6933,-2.4437,-2.2528,-1.9673,0.0,0.0,0.0,0.0,0.0,0.0,0.0,0.0,0.0,0.0,0.0,0.0,0.0,0.0,0.0,0.0,0.0,0.0,0.0,0.0,0.0,0.0,0.0,0.0,0.0,0.0,0.0,0.0,0.0,0.0,0.0,0.0,0.0,0.0,0.0,0.0,0.0,0.0,0.0,0.0,0.0,0.0,0.0,0.0,0.0,0.0,0.0,0.0,0.0,0.0,0.0,0.0,0.0,0.0,0.0,0.0,0.0,0.0,0.0,0.0,0.0,0.0,0.0,0.0,0.0,0.0,0.0,0.0,0.0,0.0,0.0,0.0,0.0,0.0,0.0,0.0,0.0,0.0,0.0,0.0,0.0,0.0,0.0,0.0,0.0,0.0,0.0,0.0,0.0,0.0,0.0,0.0,0.0,0.0,0.0,0.0,0.0,0.0,0.0,0.0,0.0,0.0,0.0,0.0,0.0,0.0,0.0,0.0,0.0,-2.7645,-3.0275,-3.0371,-2.7818,-2.4317,-2.1658,0.0,0.0,0.0,0.0,0.0,0.0,0.0,0.0,0.0,0.0,0.0,0.0,0.0,0.0,0.0,0.0,0.0,0.0,0.0,0.0,0.0,0.0,0.0,0.0,0.0,0.0,0.0,0.0,0.0,0.0,0.0,0.0,0.0,0.0,0.0,0.0,0.0,0.0,0.0,0.0,0.0,0.0,0.0,0.0,0.0,0.0,0.0,0.0,0.0,0.0,0.0,0.0,0.0,0.0,0.0,0.0,0.0,0.0,0.0,0.0,0.0,0.0,0.0,0.0,0.0,0.0,0.0,0.0,0.0,0.0,0.0,0.0,0.0,0.0,0.0,0.0,0.0,0.0,0.0,0.0,0.0,0.0,0.0,0.0,0.0,0.0,0.0,0.0,0.0,0.0,0.0,0.0,0.0,0.0,0.0,0.0,0.0,0.0,0.0,0.0,0.0,0.0,0.0,0.0,0.0,0.0,0.0,0.0,-2.5466,-3.0583,-3.2852,-3.3276,-3.1814,-2.7678,-2.4375,0.0,0.0,0.0,0.0,0.0,0.0,0.0,0.0,0.0,0.0,0.0,0.0,0.0,0.0,0.0,0.0,0.0,0.0,0.0,0.0,0.0,0.0,0.0,0.0,0.0,0.0,0.0,0.0,0.0,0.0,0.0,0.0,0.0,0.0,0.0,0.0,0.0,0.0,0.0,0.0,0.0,0.0,0.0,0.0,0.0,0.0,0.0,0.0,0.0,0.0,0.0,0.0,0.0,0.0,0.0,0.0,0.0,0.0,0.0,0.0,0.0,0.0,0.0,0.0,0.0,0.0,0.0,0.0,0.0,0.0,0.0,0.0,0.0,0.0,0.0,0.0,0.0,0.0,0.0,0.0,0.0,0.0,0.0,0.0,0.0,0.0,0.0,0.0,0.0,0.0,0.0,0.0,0.0,0.0,0.0,0.0,0.0,0.0,0.0,0.0,0.0,0.0,0.0,0.0,0.0,0.0,0.0,0.0,-2.8775,-3.2929,-3.4654,-3.5481,-3.5365,-3.1429,-2.7337,0.0,0.0,0.0,0.0,0.0,0.0,0.0,0.0,0.0,0.0,0.0,0.0,0.0,0.0,0.0,0.0,0.0,0.0,0.0,0.0,0.0,0.0,0.0,0.0,0.0,0.0,0.0,0.0,0.0,0.0,0.0,0.0,0.0,0.0,0.0,0.0,0.0,0.0,0.0,0.0,0.0,0.0,0.0,0.0,0.0,0.0,0.0,0.0,0.0,0.0,0.0,0.0,0.0,0.0,0.0,0.0,0.0,0.0,0.0,0.0,0.0,0.0,0.0,0.0,0.0,0.0,0.0,0.0,0.0,0.0,0.0,0.0,0.0,0.0,0.0,0.0,0.0,0.0,0.0,0.0,0.0,0.0,0.0,0.0,0.0,0.0,0.0,0.0,0.0,0.0,0.0,0.0,0.0,0.0,0.0,0.0,0.0,0.0,0.0,0.0,0.0,0.0,0.0,0.0,0.0,0.0,0.0,0.0,-2.9665,-3.3795,-3.4968,-3.55,-3.5462,-3.2,-2.8756,0.0,0.0,0.0,0.0,0.0,0.0,0.0,0.0,0.0,0.0,0.0,0.0,0.0,0.0,0.0,0.0,0.0,0.0,0.0,0.0,0.0,0.0,0.0,0.0,0.0,0.0,0.0,0.0,0.0,0.0,0.0,0.0,0.0,0.0,0.0,0.0,0.0,0.0,0.0,0.0,0.0,0.0,0.0,0.0,0.0,0.0,0.0,0.0,-1.4063,0.0,0.0,0.0,0.0,0.0,0.0,0.0,0.0,0.0,0.0,0.0,0.0,0.0,0.0,0.0,0.0,0.0,0.0,0.0,0.0,0.0,0.0,0.0,0.0,0.0,0.0,0.0,0.0,0.0,0.0,0.0,0.0,0.0,0.0,0.0,0.0,0.0,0.0,0.0,0.0,0.0,0.0,0.0,0.0,0.0,0.0,0.0,0.0,0.0,0.0,0.0,0.0,0.0,0.0,0.0,0.0,0.0,0.0,0.0,-3.0319,-3.4071,-3.5064,-3.55,-3.5423,-3.3353,-3.0429,0.0,0.0,0.0,0.0,0.0,0.0,0.0,0.0,0.0,0.0,0.0,0.0,0.0,0.0,0.0,0.0,0.0,0.0,0.0,0.0,0.0,0.0,0.0,0.0,0.0,0.0,0.0,0.0,0.0,0.0,0.0,0.0,0.0,0.0,0.0,0.0,0.0,0.0,0.0,0.0,0.0,0.0,0.0,0.0,0.0,0.0,0.0,0.0,0.0,0.0,0.0,0.0,0.0,0.0,0.0,0.0,0.0,0.0,0.0,0.0,0.0,0.0,0.0,0.0,0.0,0.0,0.0,0.0,0.0,0.0,0.0,0.0,0.0,0.0,0.0,0.0,0.0,0.0,0.0,0.0,0.0,0.0,0.0,0.0,0.0,0.0,0.0,0.0,0.0,0.0,0.0,0.0,0.0,0.0,0.0,0.0,0.0,0.0,0.0,0.0,0.0,0.0,0.0,0.0,0.0,0.0,0.0,-2.7121,-3.1089,-3.4629,-3.5507,-3.5865,-3.5865,-3.493,-3.2006,-2.6986,0.0,0.0,0.0,0.0,0.0,0.0,0.0,0.0,0.0,0.0,0.0,0.0,0.0,0.0,0.0,0.0,0.0,0.0,0.0,0.0,0.0,0.0,0.0,0.0,0.0,0.0,0.0,0.0,0.0,0.0,0.0,0.0,0.0,0.0,0.0,0.0,0.0,0.0,-1.0421,-1.3541,0.0,0.0,0.0,0.0,0.0,0.0,0.0,0.0,-1.6037,0.0,0.0,0.0,0.0,0.0,0.0,0.0,0.0,0.0,0.0,0.0,0.0,0.0,0.0,0.0,0.0,0.0,0.0,0.0,0.0,0.0,0.0,0.0,0.0,0.0,0.0,0.0,0.0,0.0,0.0,0.0,0.0,0.0,0.0,0.0,0.0,0.0,0.0,0.0,0.0,0.0,0.0,0.0,0.0,0.0,0.0,0.0,0.0,0.0,0.0,0.0,0.0,0.0,0.0,0.0,0.0,-2.8808,-2.9769,-3.2526,-3.7219,-3.7507,-3.7584,-3.7546,-3.6096,-3.2904,-2.7915,0.0,0.0,0.0,0.0,0.0,0.0,0.0,0.0,0.0,0.0,0.0,0.0,0.0,0.0,0.0,0.0,0.0,0.0,0.0,0.0,0.0,0.0,0.0,0.0,0.0,0.0,0.0,0.0,0.0,0.0,0.0,0.0,0.0,0.0,0.0,0.0,0.0,0.0,0.0,-1.7953,-1.8988,0.0,0.0,0.0,0.0,0.0,0.0,0.0,0.0,-1.7523,0.0,0.0,0.0,0.0,0.0,0.0,0.0,0.0,0.0,0.0,0.0,0.0,0.0,0.0,0.0,0.0,0.0,0.0,0.0,0.0,0.0,0.0,0.0,0.0,0.0,0.0,0.0,0.0,0.0,0.0,0.0,0.0,0.0,0.0,0.0,0.0,0.0,0.0,0.0,0.0,0.0,0.0,0.0,0.0,0.0,0.0,0.0,0.0,0.0,0.0,0.0,0.0,0.0,0.0,0.0,-2.7629,-3.1635,-3.5077,-3.7892,-3.8007,-3.8007,-3.7969,-3.6365,-3.3115,0.0,0.0,0.0,0.0,0.0,0.0,0.0,0.0,0.0,0.0,0.0,0.0,0.0,0.0,0.0,0.0,0.0,0.0,0.0,0.0,0.0,0.0,0.0,0.0,0.0,0.0,0.0,0.0,0.0,0.0,0.0,0.0,0.0,0.0,0.0,0.0,0.0,0.0,0.0,0.0,-1.9735,-2.1239,-2.3774,0.0,0.0,0.0,0.0,0.0,0.0,-1.9208,-1.7835,0.0,0.0,0.0,0.0,0.0,0.0,0.0,0.0,0.0,0.0,0.0,0.0,0.0,0.0,0.0,0.0,0.0,0.0,0.0,0.0,0.0,0.0,0.0,0.0,0.0,0.0,0.0,0.0,0.0,0.0,0.0,0.0,0.0,0.0,0.0,0.0,0.0,0.0,0.0,0.0,0.0,0.0,0.0,0.0,0.0,0.0,0.0,0.0,0.0,0.0,0.0,0.0,0.0,0.0,0.0,-2.5942,-3.2654,-3.6949,-3.8411,-3.8507,-3.8507,-3.845,-3.6558,-3.3115,0.0,0.0,0.0,0.0,0.0,0.0,0.0,0.0,0.0,0.0,0.0,0.0,0.0,0.0,0.0,0.0,0.0,0.0,0.0,0.0,0.0,0.0,0.0,0.0,0.0,0.0,0.0,0.0,0.0,0.0,0.0,0.0,0.0,0.0,0.0,0.0,0.0,0.0,0.0,0.0,0.0,-2.3254,-2.5928,-2.3712,0.0,0.0,0.0,0.0,-2.2004,-2.1017,0.0,0.0,0.0,0.0,0.0,0.0,0.0,0.0,0.0,0.0,0.0,0.0,0.0,0.0,0.0,0.0,0.0,0.0,0.0,0.0,0.0,0.0,0.0,0.0,0.0,0.0,0.0,0.0,0.0,0.0,0.0,0.0,0.0,0.0,0.0,0.0,0.0,0.0,0.0,0.0,0.0,0.0,0.0,0.0,0.0,0.0,0.0,0.0,0.0,0.0,0.0,0.0,0.0,0.0,0.0,0.0,-2.7525,-3.2128,-3.636,-3.9977,-4.0208,-4.0208,-4.0169,-3.7161,-3.3103,0.0,0.0,0.0,0.0,0.0,0.0,0.0,0.0,0.0,0.0,0.0,0.0,0.0,0.0,0.0,0.0,0.0,0.0,0.0,0.0,0.0,0.0,0.0,0.0,0.0,0.0,0.0,0.0,0.0,0.0,0.0,0.0,0.0,0.0,0.0,0.0,0.0,0.0,0.0,0.0,0.0,-2.5,-2.5404,-2.3851,-2.3139,0.0,0.0,-2.5564,-2.7904,-2.8089,0.0,0.0,0.0,0.0,0.0,0.0,0.0,0.0,0.0,0.0,0.0,0.0,0.0,0.0,0.0,0.0,0.0,0.0,0.0,0.0,0.0,0.0,0.0,0.0,0.0,0.0,0.0,0.0,0.0,0.0,0.0,0.0,0.0,0.0,0.0,0.0,0.0,0.0,0.0,0.0,0.0,0.0,0.0,0.0,0.0,0.0,0.0,0.0,0.0,0.0,0.0,0.0,0.0,0.0,0.0,-2.4327,-2.7972,-3.4398,-3.8649,-4.0419,-4.0496,-4.0496,-4.0496,-3.77,-3.3346,0.0,0.0,0.0,0.0,0.0,0.0,0.0,0.0,0.0,0.0,0.0,0.0,0.0,0.0,0.0,0.0,0.0,0.0,0.0,0.0,0.0,0.0,0.0,0.0,0.0,0.0,0.0,0.0,0.0,0.0,0.0,0.0,0.0,0.0,0.0,0.0,0.0,0.0,0.0,0.0,0.0,0.0,-2.8,-2.6774,0.0,0.0,0.0,-2.7079,-2.7668,0.0,0.0,0.0,0.0,0.0,0.0,0.0,0.0,0.0,0.0,0.0,0.0,0.0,0.0,0.0,0.0,0.0,0.0,0.0,0.0,0.0,0.0,0.0,0.0,0.0,0.0,0.0,0.0,0.0,0.0,0.0,0.0,0.0,0.0,0.0,0.0,0.0,0.0,0.0,0.0,0.0,0.0,0.0,0.0,0.0,0.0,0.0,0.0,0.0,0.0,0.0,0.0,0.0,0.0,0.0,0.0,0.0,-2.8011,-3.6206,-4.0496,-4.0496,-4.0496,-4.0496,-4.0458,-3.8238,0.0,0.0,0.0,0.0,0.0,0.0,0.0,0.0,0.0,0.0,0.0,0.0,0.0,0.0,0.0,0.0,0.0,0.0,0.0,0.0,0.0,0.0,0.0,0.0,0.0,0.0,0.0,-0.8874,0.0,0.0,0.0,0.0,0.0,0.0,0.0,0.0,0.0,0.0,0.0,0.0,0.0,0.0,-2.7198,-2.9712,-2.9198,-2.9198,0.0,0.0,-2.8852,-2.8832,-3.0237,-2.9684,0.0,0.0,0.0,0.0,0.0,0.0,0.0,0.0,0.0,0.0,0.0,0.0,0.0,0.0,0.0,0.0,0.0,0.0,0.0,0.0,0.0,0.0,0.0,0.0,0.0,0.0,0.0,0.0,0.0,0.0,0.0,0.0,0.0,0.0,0.0,0.0,0.0,0.0,0.0,0.0,0.0,0.0,0.0,0.0,0.0,0.0,0.0,0.0,0.0,0.0,0.0,0.0,0.0,0.0,-2.6154,-2.8107,-3.6206,-4.0516,-4.0496,-4.0496,-4.0496,-4.0458,-3.8815,-3.4372,0.0,0.0,0.0,0.0,0.0,0.0,0.0,0.0,0.0,0.0,0.0,0.0,0.0,0.0,0.0,0.0,0.0,0.0,0.0,0.0,0.0,0.0,0.0,0.0,0.0,0.0,0.0,0.0,0.0,0.0,0.0,0.0,0.0,0.0,0.0,0.0,0.0,0.0,0.0,0.0,0.0,-2.6332,-2.8838,-2.9794,-3.1115,0.0,0.0,-3.2231,-3.4538,-3.6231,-3.4372,-2.5529,0.0,0.0,0.0,0.0,0.0,0.0,0.0,0.0,0.0,0.0,0.0,0.0,0.0,0.0,0.0,0.0,0.0,0.0,0.0,0.0,0.0,0.0,0.0,0.0,0.0,0.0,0.0,0.0,0.0,0.0,0.0,0.0,0.0,0.0,0.0,0.0,0.0,0.0,0.0,0.0,0.0,0.0,0.0,0.0,0.0,0.0,0.0,0.0,0.0,0.0,0.0,0.0,0.0,-2.6154,-2.7972,-3.6206,-4.0746,-4.1277,-4.1296,-4.1296,-4.1296,-4.0142,-3.6469,0.0,0.0,0.0,0.0,0.0,0.0,0.0,0.0,0.0,0.0,0.0,0.0,0.0,0.0,0.0,0.0,0.0,0.0,0.0,0.0,0.0,0.0,0.0,0.0,0.0,0.0,0.0,0.0,-1.76,-1.8058,-1.55,0.0,0.0,0.0,0.0,0.0,0.0,0.0,0.0,0.0,0.0,-3.0179,-3.2679,-3.3327,0.0,0.0,-3.4776,-3.4385,-3.5346,-3.4718,-3.2526,-2.7915,-2.5457,0.0,0.0,0.0,0.0,0.0,0.0,0.0,0.0,0.0,0.0,0.0,0.0,0.0,0.0,0.0,0.0,0.0,0.0,0.0,0.0,0.0,0.0,0.0,0.0,0.0,0.0,0.0,0.0,0.0,0.0,0.0,0.0,0.0,0.0,0.0,0.0,0.0,0.0,0.0,0.0,0.0,0.0,0.0,0.0,0.0,0.0,0.0,0.0,0.0,0.0,0.0,0.0,-2.6678,-2.8659,-3.6988,-4.1566,-4.2181,-4.22,-4.2181,-4.2173,-4.1604,-3.8623,0.0,0.0,0.0,0.0,0.0,0.0,0.0,0.0,0.0,0.0,0.0,0.0,0.0,0.0,0.0,0.0,0.0,0.0,0.0,0.0,0.0,0.0,0.0,0.0,0.0,0.0,0.0,0.0,-1.9308,-1.8705,-1.5555,0.0,0.0,0.0,0.0,0.0,0.0,0.0,0.0,0.0,0.0,-3.2891,-3.5173,-3.5058,-3.4923,-3.5488,-3.4654,-3.3981,-3.3962,-3.3327,-3.191,-2.9184,0.0,0.0,0.0,0.0,0.0,0.0,0.0,0.0,0.0,0.0,0.0,0.0,0.0,0.0,0.0,0.0,0.0,0.0,0.0,0.0,0.0,0.0,0.0,0.0,0.0,0.0,0.0,-1.0056,0.0,0.0,-0.9926,0.0,0.0,0.0,0.0,0.0,0.0,0.0,0.0,0.0,0.0,0.0,0.0,0.0,0.0,0.0,0.0,0.0,0.0,0.0,0.0,0.0,0.0,-2.7788,-3.0404,-3.8661,-4.3028,-4.3066,-4.3085,-4.3066,-4.3085,-4.3047,-4.0642,-3.55,0.0,0.0,0.0,0.0,0.0,0.0,0.0,0.0,0.0,0.0,0.0,0.0,0.0,0.0,0.0,0.0,0.0,0.0,0.0,0.0,0.0,0.0,0.0,0.0,0.0,0.0,-1.4315,-1.5449,-1.612,0.0,0.0,0.0,0.0,0.0,0.0,0.0,0.0,0.0,0.0,-3.1224,-3.3526,-3.5269,-3.4103,-3.3237,-3.3199,-3.1769,-3.0673,-3.0846,-3.3288,-3.3731,0.0,0.0,0.0,0.0,0.0,0.0,0.0,0.0,0.0,0.0,0.0,0.0,0.0,0.0,0.0,0.0,0.0,0.0,0.0,0.0,0.0,0.0,0.0,0.0,0.0,0.0,0.0,-1.6221,-1.5152,0.0,0.0,0.0,0.0,0.0,0.0,0.0,0.0,0.0,0.0,0.0,-2.5851,-2.806,0.0,0.0,0.0,0.0,0.0,0.0,0.0,0.0,0.0,0.0,0.0,0.0,-2.7819,-3.0654,-3.8796,-4.3355,-4.3874,-4.3912,-4.3893,-4.3893,-4.3893,-4.1258,-3.5673,0.0,0.0,0.0,0.0,0.0,0.0,0.0,0.0,0.0,0.0,0.0,0.0,0.0,0.0,0.0,0.0,0.0,0.0,0.0,0.0,0.0,0.0,0.0,0.0,0.0,-1.6263,0.0,0.0,0.0,0.0,0.0,0.0,0.0,0.0,0.0,0.0,0.0,-2.7511,-3.1141,-3.3353,-3.5231,-3.693,-3.6661,-3.668,0.0,0.0,0.0,0.0,0.0,0.0,0.0,0.0,0.0,0.0,0.0,0.0,0.0,0.0,-3.3737,-2.7005,-2.5293,-2.5082,-2.564,0.0,0.0,0.0,0.0,0.0,0.0,0.0,0.0,0.0,0.0,0.0,0.0,0.0,0.0,-2.1938,0.0,-2.0964,0.0,0.0,0.0,0.0,0.0,0.0,0.0,0.0,-2.8969,-3.1609,-3.1968,-3.416,-3.4045,0.0,-3.0987,-2.7756,0.0,0.0,0.0,0.0,0.0,0.0,0.0,0.0,-2.8818,-3.2731,-4.0104,-4.4239,-4.4701,-4.4739,-4.4759,-4.4759,-4.4739,-4.2797,-3.8673,-3.6065,-3.3141,0.0,0.0,0.0,0.0,0.0,0.0,0.0,0.0,0.0,0.0,0.0,0.0,0.0,0.0,0.0,0.0,0.0,0.0,0.0,0.0,0.0,0.0,0.0,-1.8428,0.0,0.0,0.0,0.0,0.0,0.0,0.0,0.0,0.0,-2.1593,-2.6715,-3.1487,-3.4295,-3.6161,-3.743,-3.793,0.0,0.0,0.0,0.0,0.0,0.0,0.0,-3.2314,-3.3968,-3.1814,-3.0371,-3.1916,-3.5468,-3.7676,-3.6234,0.0,0.0,-3.3205,-3.1371,-3.116,-3.1743,-3.1923,-3.2102,-3.2696,-3.4046,-3.5208,0.0,0.0,0.0,0.0,0.0,0.0,0.0,0.0,-2.828,-2.7248,0.0,-2.7261,0.0,0.0,0.0,0.0,0.0,-2.6269,0.0,0.0,-3.9765,-4.2456,-4.1712,-4.1673,-4.175,-4.1673,-3.9173,-3.6776,-3.4199,-2.8706,0.0,0.0,0.0,0.0,0.0,0.0,-3.0968,-3.6673,-4.2555,-4.5575,-4.5575,-4.5575,-4.5594,-4.5575,-4.5575,-4.5152,-4.4201,-4.0373,-3.7411,-3.5519,-2.6942,0.0,0.0,0.0,0.0,0.0,0.0,0.0,0.0,0.0,0.0,0.0,0.0,0.0,0.0,0.0,0.0,0.0,0.0,0.0,0.0,-2.0975,0.0,0.0,0.0,0.0,0.0,0.0,0.0,0.0,0.0,0.0,-2.6912,-3.0375,-3.4224,-3.7397,0.0,0.0,0.0,0.0,-3.7507,-3.6077,-3.4327,-3.3083,-3.2449,-3.4769,-3.6712,-3.6904,0.0,0.0,-3.8834,-4.1008,-4.1971,-3.8092,-4.146,-4.4071,-4.2194,-3.9107,-3.7593,-3.9076,-3.828,-3.7878,-3.9398,-4.1441,-4.3391,-3.2647,0.0,0.0,0.0,0.0,-2.914,-3.1775,-3.5995,-3.5372,-3.4154,-3.2577,-3.3058,0.0,0.0,0.0,0.0,0.0,0.0,-3.1872,-3.5212,-3.8108,-4.0608,-4.2701,-4.2739,-4.272,-4.2701,-4.1937,-4.1517,-4.1344,-3.9652,-3.2096,-1.9261,0.0,0.0,0.0,0.0,-3.4389,-3.8565,-4.3228,-4.5594,-4.5594,-4.5594,-4.5594,-4.5594,-4.5594,-4.5479,-4.522,-4.4075,-4.1508,-3.745,-3.4135,0.0,0.0,0.0,0.0,0.0,0.0,0.0,0.0,0.0,0.0,0.0,0.0,0.0,0.0,0.0,0.0,0.0,0.0,0.0,-1.6554,-2.1191,-2.2585,0.0,0.0,0.0,0.0,0.0,0.0,0.0,0.0,0.0,-3.2362,-3.4404,-3.5902,0.0,0.0,-3.7836,-3.6428,-3.7757,-3.9181,-3.9885,-3.9558,0.0,-4.0546,-3.895,-3.8469,-4.0854,-4.3278,-4.4739,-4.4412,-4.5643,-4.6287,-4.5002,-4.6151,-4.7028,-4.6464,-4.4766,-4.3699,-4.4608,-4.4585,-4.4685,-4.5758,-4.6727,-4.7298,-4.0796,-3.6334,-3.3026,-3.3006,-3.5161,-3.518,-3.77,-4.1777,-4.1219,-4.0065,-3.8577,-3.9219,-3.6122,-3.0339,-2.9352,0.0,0.0,0.0,-3.5949,-3.9546,-4.0546,-4.2096,-4.3983,-4.4041,-4.4041,-4.4021,-4.3333,-4.3621,-4.4801,-4.3401,-3.7129,-2.6447,0.0,0.0,-2.7231,-3.243,-3.7009,-4.0739,-4.3978,-4.5594,-4.5594,-4.5594,-4.5594,-4.5594,-4.5594,-4.5594,-4.5594,-4.5594,-4.419,-4.1143,-3.8584,-3.5199,0.0,0.0,0.0,0.0,0.0,0.0,0.0,0.0,0.0,0.0,0.0,-1.4753,-1.025,0.0,0.0,0.0,-2.0938,-2.1593,-2.2503,-2.5251,0.0,0.0,0.0,0.0,0.0,0.0,0.0,-2.8315,-3.2561,-3.5618,-3.656,-3.7786,-3.8405,-3.7823,-3.8891,-3.9306,-3.8158,0.0,-4.1527,-4.222,-4.2308,-4.2662,-4.3624,-4.197,-4.145,-4.4143,-4.5682,-4.6701,-4.7278,-4.7798,-4.8105,-4.8178,-4.8235,-4.8323,-4.8398,-4.7559,-4.703,-4.7585,-4.7778,-4.8006,-4.8511,-4.8708,-4.8884,-4.8096,-4.7442,-3.9731,-3.8257,-4.0958,-4.0939,-4.2689,-4.5556,-4.5575,-4.4748,-4.3451,-4.494,-4.1689,-3.5013,-3.2654,0.0,-3.8642,-3.9431,-4.1843,-4.5575,-4.5594,-4.5568,-4.5504,-4.5485,-4.5504,-4.5446,-4.3939,-4.4014,-4.5374,-4.2423,-3.9673,-3.7358,-3.7302,-3.6707,-3.5608,-3.6538,-3.9104,-4.3143,-4.4701,-4.5537,-4.5594,-4.5594,-4.5594,-4.5594,-4.5594,-4.5594,-4.5594,-4.5594,-4.5594,-4.5441,-4.1123,-3.818,-3.7058,0.0,0.0,0.0,0.0,0.0,0.0,0.0,0.0,0.0,0.0,0.0,0.0,0.0,0.0,-2.6499,-3.0646,0.0,-3.3691,-3.1526,0.0,0.0,0.0,-2.5657,-2.7017,-3.1101,-3.381,-3.3786,0.0,0.0,-3.9767,-4.054,-4.1377,-4.1999,-4.2665,-4.2722,-4.1827,-4.3028,-4.4028,-4.3297,-4.3258,-4.3316,-4.3547,-4.3816,-4.472,-4.6509,-4.7615,-4.8067,-4.8317,-4.8375,-4.841,-4.8574,-4.8519,-4.8597,-4.8743,-4.8709,-4.8651,-4.8742,-4.8716,-4.873,-4.892,-4.9063,-4.9352,-4.8096,-4.7932,-4.5932,-4.522,-4.5316,-4.4671,-4.4844,-4.5575,-4.5594,-4.5383,-4.5037,-4.5421,-4.4594,-4.2863,-4.2266,-4.2643,-4.3797,-4.3998,-4.4652,-4.5575,-4.5594,-4.5586,-4.5577,-4.5558,-4.5577,-4.5549,-4.5118,-4.51,-4.5475,-4.4651,-4.3652,-4.2554,-4.248,-4.0153,-3.5827,-3.8885,-4.172,-4.397,-4.4412,-4.494,-4.5575,-4.5594,-4.5594,-4.5594,-4.5594,-4.5594,-4.5594,-4.5594,-4.5594,-4.5575,-4.4459,-4.3132,-4.1546,-3.2506,0.0,0.0,0.0,0.0,0.0,0.0,0.0,0.0,0.0,-2.0812,-1.3835,0.0,-2.3707,0.0,-3.5597,-3.7813,-3.3564,-3.3654,0.0,0.0,-3.0333,-3.0124,-3.5585,-3.5889,-3.6252,-3.779,-4.0155,-4.168,-4.1707,-4.2466,-4.3412,-4.4355,-4.3474,-4.2259,-4.108,-4.2816,-4.4239,-4.4105,-4.4547,-4.5017,-4.496,-4.5133,-4.5874,-4.7528,-4.799,-4.8529,-4.9856,-5.0067,-5.0106,-5.0143,-5.0175,-5.024,-5.0225,-5.0327,-5.039,-5.0484,-5.0051,-4.9815,-5.0488,-5.065,-5.0735,-4.926,-4.9221,-4.8836,-4.8413,-4.7952,-4.7067,-4.6701,-4.6721,-4.6701,-4.6701,-4.6721,-4.6701,-4.6701,-4.6682,-4.6336,-4.6182,-4.6163,-4.6182,-4.6182,-4.6201,-4.6547,-4.6712,-4.6713,-4.6713,-4.6732,-4.6713,-4.6685,-4.6666,-4.6656,-4.6618,-4.6407,-4.6002,-4.5992,-4.4175,-4.0769,-4.1777,-4.247,-4.2624,-4.4105,-4.547,-4.6663,-4.6721,-4.5817,-4.4008,-4.5017,-4.471,-4.2882,-4.3882,-4.3778,-4.2297,-4.22,-4.1797,-4.0777,-3.4776,-3.1564,0.0,0.0,0.0,0.0,0.0,0.0,0.0,0.0,0.0,0.0,0.0,-2.8456,-3.0233,-3.7488,-3.9965,-3.4838,-3.6126,-3.7376,-3.7599,-3.5979,-3.6585,-4.0941,-4.0745,-4.0701,-4.1798,-4.2963,-4.3697,-4.3697,-4.4143,-4.4676,-4.5314,-4.4499,-4.357,-4.3007,-4.3983,-4.4837,-4.4893,-4.5287,-4.5594,-4.5594,-4.624,-4.7028,-4.7932,-4.8759,-4.9606,-5.0539,-5.0683,-5.0683,-5.0693,-5.074,-5.0754,-5.0786,-5.0841,-5.0921,-5.0985,-5.0738,-5.0673,-5.1163,-5.13,-5.13,-5.0683,-5.0616,-4.9894,-4.9567,-4.951,-4.8759,-4.8317,-4.8096,-4.8096,-4.8096,-4.8096,-4.8096,-4.8096,-4.8067,-4.7375,-4.7048,-4.7048,-4.7038,-4.7067,-4.7077,-4.7778,-4.8097,-4.8097,-4.8097,-4.8097,-4.8097,-4.8097,-4.8097,-4.8096,-4.8096,-4.8048,-4.7952,-4.7923,-4.7432,-4.6374,-4.4412,-4.2624,-4.1054,-4.3825,-4.599,-4.7394,-4.724,-4.5374,-4.1942,-4.3989,-4.3555,-4.0054,-4.1912,-4.1739,-3.8873,-3.8661,-3.87,-3.8738,-3.6712,-3.4865,0.0,-3.1308,0.0,0.0,0.0,0.0,0.0,0.0,0.0,0.0,-3.5397,-3.4889,-3.1533,-3.8261,-4.1339,-3.7842,-3.9421,-4.1021,-4.193,-4.2439,-4.3163,-4.4108,-4.4799,-4.5159,-4.5114,-4.525,-4.5361,-4.522,-4.5417,-4.5524,-4.5611,-4.5697,-4.5621,-4.5601,-4.5485,-4.5445,-4.5586,-4.5691,-4.5883,-4.597,-4.7086,-4.8067,-4.8375,-4.9375,-5.0558,-5.0664,-5.0683,-5.0683,-5.0683,-5.0693,-5.0721,-5.078,-5.0739,-5.0776,-5.094,-5.0918,-5.0992,-5.1205,-5.1292,-5.13,-5.0683,-5.0683,-5.0539,-5.0462,-5.0442,-5.0289,-4.9394,-4.8096,-4.8096,-4.8096,-4.8096,-4.8096,-4.8096,-4.8086,-4.7952,-4.7875,-4.7865,-4.7865,-4.7875,-4.7875,-4.8029,-4.8096,-4.8087,-4.8087,-4.8087,-4.8087,-4.8087,-4.8096,-4.8096,-4.8096,-4.7759,-4.7135,-4.7115,-4.6009,-4.3989,0.0,0.0,0.0,-4.3566,-4.3739,-4.397,-4.2662,-4.1566,-4.0823,-4.2585,0.0,-4.245,-4.2854,-4.2797,-4.2181,-4.2143,0.0,0.0,0.0,0.0,0.0,0.0,0.0,0.0,0.0,0.0,0.0,-3.4677,-3.408,-3.337,-3.7602,-3.9323,-3.6834,-4.1541,-4.4785,-4.4659,-4.563,-4.6369,-4.6435,-4.5993,-4.5773,-4.5906,-4.5468,-4.5114,-4.5114,-4.5192,-4.5254,-4.532,-4.5789,-4.6252,-4.6403,-4.6917,-4.7101,-4.6609,-4.5975,-4.556,-4.5643,-4.6201,-4.6644,-4.6663,-4.7509,-4.8413,-4.899,-4.9336,-4.9942,-5.0529,-5.0683,-5.0683,-5.0683,-5.0683,-5.0693,-5.0712,-5.0702,-5.0721,-5.0811,-5.0835,-5.0913,-5.1159,-5.1263,-5.13,-5.0683,0.0,-5.0683,-5.0683,0.0,-5.0683,-5.0212,-4.9394,-4.9375,-4.9375,-4.9375,-4.9394,-4.9375,-4.9356,-4.8933,-4.874,-4.8759,-4.874,-4.874,-4.8759,-4.9183,-4.9394,-4.9394,-4.9394,-4.9394,-4.9394,-4.9375,-4.9375,-4.9375,-4.9394,-4.9163,-4.8779,-4.8779,-4.8125,-4.6913,-4.7691,-4.7471,-4.6201,-4.5778,-4.599,-4.6768,-4.5998,-4.4517,-4.2536,-4.4451,0.0,0.0,0.0,0.0,0.0,0.0,0.0,0.0,0.0,0.0,-4.0893,-3.8303,-3.6841,-3.7238,-3.7276,-3.8712,-4.1986,-4.2225,-4.1471,-3.9838,-4.2804,-4.4173,-4.2986,-4.5149,-4.6755,-4.7155,-4.7584,-4.7829,-4.7735,-4.7339,-4.7068,-4.6995,-4.6618,-4.634,-4.6351,-4.642,-4.6476,-4.6495,-4.6855,-4.7195,-4.7286,-4.762,-4.7803,-4.7424,-4.6685,-4.6166,-4.625,-4.6951,-4.7481,-4.7558,-4.8202,-4.8856,-4.9336,-4.976,-5.0183,-5.0606,-5.0683,-5.0683,-5.0683,-5.0683,-5.0683,-5.0683,-5.0683,-5.0731,-5.0748,-5.078,-5.0835,-5.0977,-5.1122,-5.1249,-5.0683,-5.0683,-5.0683,-5.0683,-5.0683,-5.0683,-5.0683,-5.0683,0.0,0.0,0.0,-5.0683,-5.0683,-5.0635,-4.9962,-4.9625,-4.9625,-4.9625,-4.9625,-4.9663,-5.0366,-5.0683,-5.0683,-5.0683,-5.0683,-5.0683,-5.0683,-5.0683,-5.0683,-5.0683,-5.0683,-5.0683,-5.0683,-5.0683,-5.0683,-5.0683,-4.999,-4.8606,-4.7971,-4.8336,-4.9731,-4.95,-4.7672,-4.4162,-4.6413,-4.6028,-4.2662,-4.4498,-4.4306,-4.1593,-4.142,-4.1458,-4.1623,-4.1631,-4.2959,-4.5748,-4.6056,-4.6374,-4.7048,-4.7124,-4.7443,-4.8164,-4.8323,-4.7956,-4.6991,-4.7514,-4.7865,-4.7884,-4.7974,-4.8028,-4.8036,-4.8181,-4.8227,-4.8246,-4.8079,-4.7949,-4.7907,-4.7719,-4.7531,-4.7608,-4.7602,-4.7754,-4.7697,-4.7936,-4.8137,-4.8186,-4.8377,-4.8363,-4.8241,-4.7588,-4.704,-4.7154,-4.7798,-4.8336,-4.8452,-4.9048,-4.9586,-4.9702,-5.025,-5.0673,-5.0683,-5.0683,-5.0683,-5.0683,-5.0683,-5.0683,-5.0683,-5.0683,-5.0683,-5.0693,-5.0748,-5.0769,-5.0805,-5.099,-5.1167,-5.0683,-5.0683,-5.0683,-5.0683,-5.0683,-5.0683,-5.0683,-5.0683,-5.0683,-5.0683,-5.0683,-5.0683,-5.0683,-5.0693,-5.0577,-5.0519,-5.0519,-5.0519,-5.0519,0.0,-5.0635,-5.0683,-5.0683,-5.0683,-5.0683,-5.0683,-5.0683,-5.0683,-5.0683,-5.0683,-5.0683,-5.0683,-5.0683,-5.0683,-5.0683,-5.0683,-5.0577,-5.026,-4.7441,-4.6075,-4.6287,-4.4913,-4.3912,-4.3412,-4.5075,-4.5729,-4.5124,-4.5441,-4.5383,-4.4921,-4.4883,-4.5201,-4.5951,-4.597,-4.6528,-4.7644,-4.774,-4.7817,-4.7932,-4.7932,-4.827,-4.9067,-4.9795,-4.9524,-4.7916,-4.7756,-4.7818,-4.7837,-4.8487,-4.8926,-4.8945,-4.95,-4.9843,-4.9843,-4.9278,-4.8892,-4.8815,-4.82,-4.7757,-4.7729,-4.7608,-4.7677,-4.7841,-4.8312,-4.876,-4.8876,-4.932,-4.9734,-4.9192,-4.8462,-4.7981,-4.8019,-4.8663,-4.9144,-4.9298,-4.9933,-5.0375,-5.0519,-5.0567,-5.0683,-5.0683,-5.0683,-5.0683,-5.0683,-5.0683,-5.0683,-5.0683,-5.0683,-5.0683,-5.0693,-5.0702,-5.0712,-5.0779,-5.1014,-5.1173,-5.0683,-5.0683,-5.0683,-5.0683,-5.0683,-5.0683,-5.0683,-5.0683,-5.0683,-5.0683,-5.0683,-5.0683,-5.0683,-5.0683,-5.0683,-5.0683,-5.0683,-5.0683,-5.0683,-5.0683,-5.0683,-5.0683,-5.0683,-5.0683,-5.0683,-5.0683,-5.0683,-5.0683,-5.0683,-5.0683,-5.0683,-5.0683,-5.0683,-5.0683,-5.0683,-5.0683,-5.0683,-5.0673,-4.9173,-4.8384,-4.8346,-4.7605,-4.7221,-4.7221,-4.7999,-4.8384,-4.8384,-4.8384,-4.8365,-4.8365,-4.8384,-4.8557,-4.8933,-4.8971,-4.9125,-4.949,-4.951,-4.951,-4.951,-4.9462,-4.9624,-4.9988,-5.0291,-5.0161,-4.9341,-4.9231,-4.919,-4.9175,-4.9538,-4.9748,-4.9748,-5.0092,-5.0302,-5.0302,-4.9958,-4.9713,-4.9579,-4.9288,-4.8966,-4.8891,-4.8916,-4.8953,-4.8953,-4.9345,-4.961,-4.9701,-5.0087,-5.0199,-5.0015,-4.9652,-4.923,-4.8971,-4.9529,-5.0029,-5.0115,-5.0404,-5.0673,-5.0683,-5.0683,-5.0683,-5.0683,-5.0683,-5.0683,-5.0683,-5.0683,-5.0683,-5.0683,-5.0683,-5.0683,-5.0683,-5.0683,-5.0798,-5.1222,-5.1854,-5.2227,-5.0683,-5.0683,-5.0683,-5.0683,-5.0683,-5.0683,-5.0683,-5.0683,-5.0683,-5.0683,-5.0683,-5.0683,-5.0683,-5.0683,-5.0683,-5.0683,-5.0683,-5.0683,-5.0683,-5.0683,-5.0683,-5.0683,-5.0683,-5.0683,-5.0683,-5.0683,-5.0683,-5.0683,-5.0683,-5.0683,-5.0683,-5.0683,-5.0683,-5.0683,-5.0683,-5.0683,-5.0683,-5.0683,-5.0683,-5.0683,-5.0683,-5.0683,-5.0683,-5.0683,-5.0664,-5.0683,-5.0683,-5.0683,-5.0683,-5.0683,-5.0683,-5.0683,-5.0683,-5.0683,-5.0683,-5.0683,-5.0683,-5.0683,-5.0683,-5.0673,-5.0632,-5.0593,-5.05,-5.0435,-5.0401,-5.0382,-5.0359,-5.0314,-5.0245,-5.0264,-5.0264,-5.0283,-5.0302,-5.0302,-5.0302,-5.0205,-5.0133,-5.0108,-5.0057,-4.9952,-4.9973,-5.0,-5.007,-5.0145,-5.0169,-5.0174,-5.0255,-5.0314,-5.0416,-5.0448,-5.0185,-4.9979,-5.025,-5.0606,-5.0683,-5.0683,-5.0683,-5.0683,-5.0683,-5.0683,-5.0683,-5.0683,-5.0683,-5.0683,-5.0683,-5.0683,-5.0712,-5.0904,-5.0991,-5.1048,-5.126,-5.1568,-5.2156,-5.2815,-5.3346,-5.0683,-5.0683,-5.0683,-5.0683,-5.0683,-5.0683,-5.0683,-5.0683,-5.0683,-5.0683,-5.0683,-5.0683,-5.0683,-5.0683,-5.0683,-5.0683,-5.0683,-5.0683,-5.0683,-5.0683,-5.0683,-5.0683,-5.0683,-5.0683,-5.0683,-5.0683,-5.0683,-5.0683,-5.0683,-5.0683,-5.0683,-5.0683,-5.0683,-5.0683,-5.0683,-5.0683,-5.0683,-5.0683,-5.0683,-5.0683,-5.0683,-5.0683,-5.0683,-5.0683,-5.0683,-5.0683,-5.0683,-5.0683,-5.0683,-5.0683,-5.0683,-5.0683,-5.0683,-5.0683,-5.0683,-5.0683,-5.0683,-5.0683,-5.0683,-5.0683,-5.0653,-5.0603,-5.0582,-5.053,-5.0412,-5.0382,-5.0359,-5.0314,-5.0302,-5.0302,-5.0302,-5.0302,-5.0302,-5.0302,-5.0302,-5.0243,-5.0133,-5.0108,-5.0057,-4.9906,-4.9925,-4.9925,-4.9933,-4.9946,-5.0005,-5.0089,-5.012,-5.0163,-5.0314,-5.0337,-5.0393,-5.0387,-5.0604,-5.0664,-5.0683,-5.0683,-5.0683,-5.0683,-5.0683,-5.0683,-5.0683,-5.0683,-5.0683,-5.0683,-5.0798,-5.0818,-5.0952,-5.1241,-5.1769,-5.1914,-5.2328,-5.3012,-5.325,-5.3546,-5.3709,-5.0683,-5.0683,-5.0683,-5.0683,-5.0683,-5.0683,-5.0683,-5.0683,-5.0683,-5.0683,-5.0683,-5.0683,-5.0683,-5.0683,-5.0683,-5.0683,-5.0683,-5.0683,-5.0683,-5.0683,-5.0683,-5.0683,-5.0683,-5.0683,-5.0683,-5.0683,-5.0683,-5.0683,-5.0683,-5.0683,-5.0683,-5.0683,-5.0683,-5.0683,-5.0683,-5.0683,-5.0683,-5.0683,-5.0683,-5.0683,-5.0683,-5.0683,-5.0683,-5.0683,-5.0683,-5.0683,-5.0683,-5.0683,-5.0683,-5.0683,-5.0683,-5.0683,-5.0683,-5.0683,-5.0683,-5.0683,-5.0683,-5.0683,-5.0683,-5.0663,-5.0623,-5.0603,-5.0511,-5.0457,-5.0412,-5.0359,-5.0325,-5.0302,-5.0302,-5.0302,-5.0302,-5.0302,-5.0302,-5.0302,-5.0302,-5.0243,-5.012,-5.0108,-5.0057,-4.992,-4.9893,-4.9893,-4.9893,-4.9893,-4.9925,-4.9978,-4.9973,-5.0082,-5.0255,-5.0302,-5.0382,-5.0563,-5.0663,-5.0683,-5.0683,-5.0683,-5.0683,-5.0683,-5.0683,-5.0683,-5.0683,-5.0683,-5.0683,-5.0683,-5.1068,-5.1337,-5.1471,-5.2087,-5.2673,-5.2856,-5.3337,-5.3993,-5.4053,-5.46,-5.4992,-5.0683,-5.0683,-5.0683,-5.0683,-5.0683,-5.0683,-5.0683,-5.0683,-5.0683,-5.0683,-5.0683,-5.0683,-5.0683,-5.0683,-5.0683,-5.0683,-5.0683,-5.0683,-5.0683,-5.0683,-5.0683,-5.0683,-5.0683,-5.0683,-5.0683,-5.0683,-5.0683,-5.0683,-5.0683,-5.0683,-5.0683,-5.0683,-5.0683,-5.0683,-5.0683,-5.0683,-5.0683,-5.0683,-5.0683,-5.0683,-5.0683,-5.0683,-5.0683,-5.0683,-5.0683,-5.0683,-5.0683,-5.0683,-5.0683,-5.0683,-5.0683,-5.0683,-5.0683,-5.0683,-5.0683,-5.0683,-5.0683,-5.0702,-5.0682,-5.0623,-5.0582,-5.0551,-5.0465,-5.0382,-5.0379,-5.0325,-5.0302,-5.0302,-5.0302,-5.0302,-5.0302,-5.0302,-5.0302,-5.0302,-5.0302,-5.0255,-5.0126,-5.012,-5.0057,-4.9933,-4.9939,-4.992,-4.9925,-4.9925,-4.9925,-4.9965,-4.9959,-5.0025,-5.0224,-5.0302,-5.0382,-5.0613,-5.0643,-5.0653,-5.0683,-5.0683,-5.0683,-5.0683,-5.0683,-5.0683,-5.0683,-5.0683,-5.0683,-5.076,-5.1452,-5.1885,-5.1904,-5.2538,-5.3714,-5.3985,-5.4389,-5.4833,-5.4978,-5.5639,-5.5959,-5.0683,-5.0683,-5.0683,-5.0683,-5.0683,-5.0683,-5.0683,-5.0683,-5.0683,-5.0683,-5.0683,-5.0683,-5.0683,-5.0683,-5.0683,-5.0683,-5.0683,-5.0683,-5.0683,-5.0683,-5.0683,-5.0683,-5.0683,-5.0683,-5.0683,-5.0683,-5.0683,-5.0683,-5.0683,-5.0683,-5.0683,-5.0683,-5.0683,-5.0683,-5.0683,-5.0683,-5.0683,-5.0683,-5.0683,-5.0683,-5.0683,-5.0683,-5.0683,-5.0683,-5.0683,-5.0683,-5.0683,-5.0683,-5.0683,-5.0683,-5.0683,-5.0683,-5.0683,-5.0683,-5.0683,-5.0683,-5.0683,-5.0663,-5.0623,-5.0603,-5.0551,-5.0446,-5.0412,-5.0379,-5.0314,-5.0302,-5.0302,-5.0302,-5.0302,-5.0302,-5.0302,-5.0302,-5.0302,-5.0302,-5.0302,-5.0267,-5.0207,-5.0145,-5.0063,-5.0018,-5.0005,-4.9986,-5.0005,-4.9939,-4.9992,-5.0057,-5.0095,-5.0139,-5.0278,-5.0314,-5.0382,-5.0489,-5.0542,-5.0553,-5.0663,-5.0683,-5.0683,-5.0683,-5.0683,-5.0683,-5.0683,-5.0683,-5.0683,-5.0894,-5.1625,-5.2077,-5.225,-5.3118,-5.4487,-5.5094,-5.5297,-5.5606,-5.5617,-5.5901,-5.6139,-5.0683,-5.0683,-5.0683,-5.0683,-5.0683,-5.0683,-5.0683,-5.0683,-5.0683,-5.0683,-5.0683,-5.0683,-5.0683,-5.0683,-5.0683,-5.0683,-5.0683,-5.0683,-5.0683,-5.0683,-5.0683,-5.0683,-5.0683,-5.0683,-5.0683,-5.0683,-5.0683,-5.0683,-5.0683,-5.0683,-5.0683,-5.0683,-5.0683,-5.0683,-5.0683,-5.0683,-5.0683,-5.0683,-5.0683,-5.0683,-5.0683,-5.0683,-5.0683,-5.0683,-5.0683,-5.0683,-5.0683,-5.0683,-5.0683,-5.0683,-5.0683,-5.0683,-5.0683,-5.0683,-5.0683,-5.0683,-5.0683,-5.0683,-5.0653,-5.0573,-5.0521,-5.0468,-5.0371,-5.0344,-5.0283,-5.0302,-5.0302,-5.0302,-5.0302,-5.0302,-5.0302,-5.0302,-5.0302,-5.0302,-5.0302,-5.0278,-5.0231,-5.0182,-5.0126,-5.0063,-5.007,-5.0082,-5.0101,-5.0101,-5.0126,-5.0219,-5.0231,-5.029,-5.0382,-5.0446,-5.0478,-5.0593,-5.0633,-5.0624,-5.0673,-5.0683,-5.0683,-5.0683,-5.0683,-5.0683,-5.0683,-5.076,-5.0798,-5.1087,-5.176,-5.2741,-5.3126,-5.4043,-5.5364,-5.5643,-5.5865,-5.5921,-5.6079,-5.6153,-5.6227,-5.0683,-5.0683,-5.0683,-5.0683,-5.0683,-5.0683,-5.0683,-5.0683,-5.0683,-5.0683,-5.0683,-5.0683,-5.0683,-5.0683,-5.0683,-5.0683,-5.0683,-5.0683,-5.0683,-5.0683,-5.0683,-5.0683,-5.0683,-5.0683,-5.0683,-5.0683,-5.0683,-5.0683,-5.0683,-5.0683,-5.0683,-5.0683,-5.0683,-5.0683,-5.0683,-5.0683,-5.0683,-5.0683,-5.0683,-5.0683,-5.0683,-5.0683,-5.0683,-5.0683,-5.0683,-5.0683,-5.0683,-5.0683,-5.0683,-5.0683,-5.0683,-5.0683,-5.0683,-5.0683,-5.0683,-5.0683,-5.0673,-5.0673,-5.0633,-5.0532,-5.0468,-5.0427,-5.0367,-5.0302,-5.0302,-5.0302,-5.0302,-5.0302,-5.0302,-5.0302,-5.0302,-5.0302,-5.0302,-5.0302,-5.0302,-5.0271,-5.0224,-5.0224,-5.0231,-5.0207,-5.0182,-5.0207,-5.0236,-5.0224,-5.0278,-5.0348,-5.0379,-5.0435,-5.0532,-5.0582,-5.0727,-5.1009,-5.1135,-5.1154,-5.1202,-5.126,-5.0933,-5.0875,-5.0798,-5.076,-5.0875,-5.0933,-5.1144,-5.1414,-5.2164,-5.328,-5.4263,-5.5142,-5.5586,-5.588,-5.5956,-5.5982,-5.6124,-5.6272,-5.6319,-5.0721,-5.077,-5.0683,-5.0683,-5.0683,-5.0683,-5.0683,-5.0683,-5.0683,-5.0683,-5.0683,-5.0683,-5.0683,-5.0683,-5.0683,-5.0683,-5.0683,-5.0683,-5.0683,-5.0683,-5.0683,-5.0683,-5.0683,-5.0683,-5.0683,-5.0683,-5.0683,-5.0683,-5.0683,-5.0683,-5.0683,-5.0683,-5.0683,-5.0683,-5.0683,-5.0683,-5.0683,-5.0683,-5.0683,-5.0683,-5.0683,-5.0683,-5.0683,-5.0683,-5.0683,-5.0683,-5.0683,-5.0683,-5.0683,-5.0683,-5.0683,-5.0683,-5.0683,-5.0683,-5.0683,-5.0702,-5.0643,-5.0582,-5.053,-5.0457,-5.0382,-5.0337,-5.0302,-5.0302,-5.0302,-5.0302,-5.0302,-5.0302,-5.0302,-5.0302,-5.0302,-5.0302,-5.0302,-5.0302,-5.0302,-5.029,-5.029,-5.0302,-5.0314,-5.0367,-5.0325,-5.0325,-5.0359,-5.0359,-5.0371,-5.0478,-5.0511,-5.0532,-5.0682,-5.0779,-5.1096,-5.1615,-5.1865,-5.1933,-5.1923,-5.1885,-5.1433,-5.1087,-5.0991,-5.0952,-5.1221,-5.1375,-5.1837,-5.2183,-5.3029,-5.4107,-5.4839,-5.5595,-5.5738,-5.5962,-5.5979,-5.6087,-5.6258,-5.6393,-5.6412,-5.1519,-5.1452,-5.0923,-5.0683,-5.0683,-5.0683,-5.0683,-5.0683,-5.0683,-5.0683,-5.0683,-5.0683,-5.0683,-5.0683,-5.0683,-5.0683,-5.0683,-5.0683,-5.0683,-5.0683,-5.0683,-5.0683,-5.0683,-5.0683,-5.0683,-5.0683,-5.0683,-5.0683,-5.0683,-5.0683,-5.0683,-5.0683,-5.0683,-5.0683,-5.0683,-5.0683,-5.0683,-5.0683,-5.0683,-5.0683,-5.0683,-5.0683,-5.0683,-5.0683,-5.0683,-5.0683,-5.0683,-5.0683,-5.0683,-5.0683,-5.0683,-5.0683,-5.0683,-5.0683,-5.0683,-5.0683,-5.0673,-5.0633,-5.0582,-5.05,-5.0435,-5.039,-5.0325,-5.0302,-5.0302,-5.0302,-5.0302,-5.0302,-5.0302,-5.0302,-5.0302,-5.0302,-5.0302,-5.0302,-5.0302,-5.0302,-5.0302,-5.0337,-5.0379,-5.0401,-5.0435,-5.0468,-5.053,-5.05,-5.0521,-5.0613,-5.0672,-5.0711,-5.0769,-5.1241,-5.1548,-5.1885,-5.2269,-5.2788,-5.2788,-5.2769,-5.2491,-5.201,-5.1722,-5.1548,-5.1741,-5.2164,-5.2606,-5.3183,-5.403,-5.4684,-5.5416,-5.5788,-5.591,-5.611,-5.6236,-5.6354,-5.645,-5.6558,-5.6686,-5.2192,-5.1846,-5.1356,-5.0962,-5.0702,-5.0683,-5.0683,-5.0683,-5.0683,-5.0683,-5.0683,-5.0683,-5.0683,-5.0683,-5.0683,-5.0683,-5.0683,-5.0683,-5.0683,-5.0683,-5.0683,-5.0683,-5.0683,-5.0683,-5.0683,-5.0683,-5.0683,-5.0683,-5.0683,-5.0683,-5.0683,-5.0683,-5.0683,-5.0683,-5.0683,-5.0683,-5.0683,-5.0683,-5.0683,-5.0683,-5.0683,-5.0683,-5.0683,-5.0683,-5.0683,-5.0683,-5.0683,-5.0683,-5.0683,-5.0683,-5.0683,-5.0683,-5.0683,-5.0683,-5.0683,-5.0663,-5.0653,-5.0623,-5.0532,-5.0478,-5.0435,-5.0379,-5.0325,-5.0302,-5.0302,-5.0302,-5.0302,-5.0325,-5.0325,-5.0337,-5.0325,-5.0337,-5.0325,-5.0302,-5.0302,-5.0314,-5.0325,-5.0359,-5.0412,-5.0446,-5.0489,-5.0562,-5.0593,-5.0623,-5.0643,-5.0702,-5.0952,-5.1144,-5.1318,-5.1895,-5.2299,-5.276,-5.3337,-5.3645,-5.3683,-5.3626,-5.351,-5.3068,-5.2606,-5.2472,-5.2472,-5.3164,-5.3703,-5.4222,-5.4953,-5.5088,-5.5705,-5.5808,-5.5935,-5.6194,-5.662,-5.6904,-5.7127,-5.7108,-5.7108,-5.2769,-5.2,-5.1904,-5.1395,-5.0721,-5.0683,-5.0683,-5.0683,-5.0683,-5.0683,-5.0683,-5.0683,-5.0683,-5.0683,-5.0683,-5.0683,-5.0683,-5.0683,-5.0683,-5.0683,-5.0683,-5.0683,-5.0683,-5.0683,-5.0683,-5.0683,-5.0683,-5.0683,-5.0683,-5.0683,-5.0683,-5.0683,-5.0683,-5.0683,-5.0683,-5.0683,-5.0683,-5.0683,-5.0683,-5.0683,-5.0683,-5.0683,-5.0683,-5.0683,-5.0683,-5.0683,-5.0683,-5.0683,-5.0683,-5.0683,-5.0683,-5.0683,-5.0683,-5.0683,-5.0663,-5.0623,-5.0603,-5.0542,-5.0457,-5.0435,-5.0401,-5.0337,-5.0314,-5.0302,-5.0302,-5.0302,-5.0325,-5.0371,-5.0371,-5.0401,-5.0382,-5.0401,-5.0379,-5.0314,-5.0302,-5.0325,-5.0371,-5.0371,-5.0424,-5.0478,-5.0562,-5.0603,-5.0603,-5.0643,-5.0712,-5.0971,-5.1433,-5.1683,-5.2145,-5.2722,-5.3549,-5.3991,-5.426,-5.4491,-5.4549,-5.453,-5.4434,-5.4222,-5.376,-5.3549,-5.3414,-5.403,-5.4568,-5.5126,-5.5467,-5.56,-5.5749,-5.5863,-5.6323,-5.6894,-5.7286,-5.7628,-5.7744,-5.7746,-5.7463,-5.3645,-5.2808,-5.2173,-5.1433,-5.075,-5.0683,-5.0683,-5.0683,-5.0683,-5.0683,-5.0683,-5.0683,-5.0683,-5.0683,-5.0683,-5.0683,-5.0683,-5.0683,-5.0683,-5.0683,-5.0683,-5.0683,-5.0683,-5.0683,-5.0683,-5.0683,-5.0683,-5.0683,-5.0683,-5.0683,-5.0683,-5.0683,-5.0683,-5.0683,-5.0683,-5.0683,-5.0683,-5.0683,-5.0683,-5.0683,-5.0683,-5.0683,-5.0683,-5.0683,-5.0683,-5.0683,-5.0683,-5.0683,-5.0683,-5.0683,-5.0683,-5.0683,-5.0683,-5.0683,-5.0673,-5.0663,-5.0682,-5.0633,-5.0542,-5.05,-5.0427,-5.0371,-5.0337,-5.0302,-5.0302,-5.0302,-5.0325,-5.0371,-5.0401,-5.0424,-5.0438,-5.0435,-5.0379,-5.0314,-5.0314,-5.0314,-5.0325,-5.0359,-5.0393,-5.0435,-5.0521,-5.0582,-5.069,-5.0739,-5.0971,-5.1471,-5.1895,-5.225,-5.2846,-5.3568,-5.4395,-5.4568,-5.4818,-5.5184,-5.5376,-5.5376,-5.5338,-5.528,-5.4991,-5.4741,-5.4626,-5.4799,-5.5203,-5.5607,-5.5654,-5.5779,-5.5861,-5.5978,-5.6699,-5.7534,-5.7853,-5.8121,-5.8334,-5.8376,-5.7947,-5.453,-5.3683,-5.2799,-5.1972,-5.1202,-5.0837,-5.0683,-5.0683,-5.0683,-5.0683,-5.0683,-5.0683,-5.0683,-5.0683,-5.0683,-5.0683,-5.0683,-5.0683,-5.0683,-5.0683,-5.0683,-5.0683,-5.0683,-5.0683,-5.0683,-5.0683,-5.0683,-5.0683,-5.0683,-5.0683,-5.0683,-5.0683,-5.0683,-5.0683,-5.0683,-5.0683,-5.0683,-5.0683,-5.0683,-5.0683,-5.0683,-5.0683,-5.0683,-5.0683,-5.0683,-5.0683,-5.0683,-5.0683,-5.0683,-5.0683,-5.0683,-5.0683,-5.0683,-5.0683,-5.0683,-5.0682,-5.0673,-5.0653,-5.0582,-5.0532,-5.0511,-5.0457,-5.0393,-5.0382,-5.0382,-5.0382,-5.0424,-5.0459,-5.0478,-5.05,-5.0511,-5.0478,-5.0404,-5.0348,-5.0359,-5.0371,-5.0337,-5.039,-5.0412,-5.0457,-5.0519,-5.0736,-5.1025,-5.1134,-5.1615,-5.2279,-5.2895,-5.328,-5.3741,-5.4472,-5.4991,-5.5107,-5.5203,-5.5453,-5.5568,-5.5568,-5.5568,-5.5568,-5.5549,-5.5395,-5.5399,-5.5369,-5.5513,-5.5708,-5.5836,-5.5941,-5.5994,-5.6342,-5.7303,-5.7965,-5.8308,-5.8811,-5.9156,-5.8914,-5.8468,-5.5222,-5.4434,-5.3549,-5.2702,-5.1818,-5.1048,-5.0683,-5.0683,-5.0683,-5.0683,-5.0683,-5.0683,-5.0683,-5.0683,-5.0683,-5.0683,-5.0683,-5.0683,-5.0683,-5.0683,-5.0683,-5.0683,-5.0683,-5.0683,-5.0683,-5.0683,-5.0683,-5.0683,-5.0683,-5.0683,-5.0683,-5.0683,-5.0683,-5.0683,-5.0683,-5.0683,-5.0683,-5.0683,-5.0683,-5.0683,-5.0683,-5.0683,-5.0683,-5.0683,-5.0683,-5.0683,-5.0683,-5.0683,-5.0683,-5.0683,-5.0683,-5.0683,-5.0683,-5.0683,-5.0673,-5.0643,-5.0663,-5.0653,-5.0553,-5.0582,-5.0582,-5.0521,-5.05,-5.05,-5.0489,-5.0489,-5.05,-5.0553,-5.0593,-5.0582,-5.0593,-5.0542,-5.05,-5.0446,-5.0478,-5.0489,-5.0446,-5.0424,-5.0435,-5.0481,-5.0511,-5.0935,-5.1399,-5.1854,-5.2173,-5.2741,-5.3453,-5.4049,-5.4472,-5.503,-5.5376,-5.5511,-5.5588,-5.5645,-5.5684,-5.5684,-5.5665,-5.5665,-5.5645,-5.5609,-5.5653,-5.5653,-5.568,-5.5789,-5.5954,-5.602,-5.6061,-5.6737,-5.7755,-5.8586,-5.9059,-5.9806,-6.0393,-5.9646,-5.908,-5.5222,-5.4414,-5.3587,-5.2692,-5.1846,-5.1048,-5.0683,-5.0683,-5.0683,-5.0683,-5.0683,-5.0683,-5.0683,-5.0683,-5.0683,-5.0683,-5.0683,-5.0683,-5.0683,-5.0683,-5.0683,-5.0683,-5.0683,-5.0683,-5.0683,-5.0683,-5.0683,-5.0683,-5.0683,-5.0683,-5.0683,-5.0683,-5.0683,-5.0683,-5.0683,-5.0683,-5.0683,-5.0683,-5.0683,-5.0683,-5.0683,-5.0683,-5.0683,-5.0683,-5.0683,-5.0683,-5.0683,-5.0683,-5.0683,-5.0683,-5.0683,-5.0683,-5.0683,-5.0683,-5.0683,-5.0673,-5.0673,-5.0673,-5.0653,-5.0623,-5.0593,-5.0563,-5.0562,-5.05,-5.05,-5.0511,-5.0532,-5.0593,-5.0603,-5.0603,-5.0603,-5.0633,-5.0593,-5.0532,-5.0582,-5.0623,-5.0553,-5.0511,-5.05,-5.0511,-5.0581,-5.0678,-5.0949,-5.1797,-5.2385,-5.3135,-5.3933,-5.4703,-5.5145,-5.556,-5.5626,-5.5684,-5.5684,-5.5684,-5.5684,-5.5684,-5.5684,-5.5684,-5.5684,-5.5705,-5.5758,-5.5854,-5.5854,-5.5935,-5.6097,-5.6181,-5.6323,-5.7128,-5.8158,-5.8989,-5.9817,-6.0505,-6.0803,-6.0178,-5.969,-5.5434,-5.4934,-5.3722,-5.2933,-5.2356,-5.1221,-5.0683,-5.0683,-5.0683,-5.0683,-5.0683,-5.0683,-5.0683,-5.0683,-5.0683,-5.0683,-5.0683,-5.0683,-5.0683,-5.0683,-5.0683,-5.0683,-5.0683,-5.0683,-5.0683,-5.0683,-5.0683,-5.0683,-5.0683,-5.0683,-5.0683,-5.0683,-5.0683,-5.0683,-5.0683,-5.0683,-5.0683,-5.0683,-5.0683,-5.0683,-5.0683,-5.0683,-5.0683,-5.0683,-5.0683,-5.0683,-5.0683,-5.0683,-5.0683,-5.0683,-5.0683,-5.0683,-5.0683,-5.0683,-5.0683,-5.0683,-5.0683,-5.0683,-5.0673,-5.0682,-5.0663,-5.0643,-5.0613,-5.0594,-5.0584,-5.0584,-5.0613,-5.0633,-5.0643,-5.0633,-5.0613,-5.0653,-5.0633,-5.0584,-5.0633,-5.0692,-5.0643,-5.0593,-5.0572,-5.0669,-5.0949,-5.142,-5.1863,-5.2317,-5.3288,-5.4357,-5.4607,-5.5299,-5.5318,-5.5645,-5.5665,-5.5684,-5.5684,-5.5684,-5.5684,-5.5684,-5.5684,-5.5684,-5.5684,-5.5705,-5.5728,-5.5863,-5.5978,-5.6078,-5.6191,-5.6646,-5.6948,-5.7765,-5.8616,-5.959,-6.0427,-6.1074,-6.1154,-6.051,-6.0139,-5.5684,-5.5549,-5.3895,-5.3203,-5.2933,-5.1433,-5.0683,-5.0683,-5.0683,-5.0683,-5.0683,-5.0683,-5.0683,-5.0683,-5.0683,-5.0683,-5.0683,-5.0683,-5.0683,-5.0683,-5.0683,-5.0683,-5.0683,-5.0683,-5.0683,-5.0683,-5.0683,-5.0683,-5.0683,-5.0683,-5.0683,-5.0683,-5.0683,-5.0683,-5.0683,-5.0683,-5.0683,-5.0683,-5.0683,-5.0683,-5.0683,-5.0683,-5.0683,-5.0683,-5.0683,-5.0683,-5.0683,-5.0683,-5.0683,-5.0683,-5.0683,-5.0683,-5.0683,-5.0683,-5.0683,-5.0683,-5.0683,-5.0683,-5.0683,-5.0683,-5.0683,-5.0683,-5.0683,-5.0683,-5.0683,-5.0673,-5.0673,-5.0683,-5.0673,-5.0682,-5.0623,-5.0653,-5.0682,-5.0633,-5.0663,-5.0683,-5.0683,-5.0643,-5.0643,-5.0759,-5.1201,-5.1777,-5.2614,-5.3288,-5.4453,-5.5357,-5.5549,-5.5684,-5.5684,-5.5684,-5.5684,-5.5684,-5.5684,-5.5684,-5.5684,-5.5684,-5.5684,-5.5716,-5.5705,-5.5759,-5.5798,-5.5975,-5.6116,-5.6128,-5.6322,-5.6786,-5.742,-5.8203,-5.9119,-6.0217,-6.092,-6.1427,-6.1252,-6.0803,-6.0432,-5.5684,-5.5549,-5.3895,-5.3203,-5.2953,-5.1395,-5.0683,-5.0683,-5.0683,-5.0683,-5.0683,-5.0683,-5.0683,-5.0683,-5.0683,-5.0683,-5.0683,-5.0683,-5.0683,-5.0683,-5.0683,-5.0683,-5.0683,-5.0683,-5.0683,-5.0683,-5.0683,-5.0683,-5.0683,-5.0683,-5.0683,-5.0683,-5.0683,-5.0683,-5.0683,-5.0683,-5.0683,-5.0683,-5.0683,-5.0683,-5.0683,-5.0683,-5.0683,-5.0683,-5.0683,-5.0683,-5.0683,-5.0683,-5.0683,-5.0683,-5.0683,-5.0683,-5.0683,-5.0683,-5.0683,-5.0683,-5.0683,-5.0683,-5.0683,-5.0683,-5.0683,-5.0683,-5.0683,-5.0683,-5.0683,-5.0683,-5.0683,-5.0683,-5.0683,-5.0683,-5.0692,-5.0683,-5.0683,-5.0692,-5.0702,-5.0683,-5.0683,-5.0683,-5.074,-5.0914,-5.1462,-5.2086,-5.2904,-5.376,-5.4703,-5.5318,-5.5511,-5.5645,-5.5684,-5.5684,-5.5684,-5.5684,-5.5684,-5.5684,-5.5684,-5.5684,-5.5695,-5.5728,-5.5759,-5.5879,-5.5967,-5.6146,-5.6252,-5.6227,-5.6474,-5.6937,-5.7665,-5.857,-5.949,-6.0471,-6.1095,-6.1698,-6.133,-6.0881,-6.0119,-5.5684,-5.5511,-5.3914,-5.3203,-5.2895,-5.1395,-5.0683,-5.0683,-5.0683,-5.0683,-5.0683,-5.0683,-5.0683,-5.0683,-5.0683,-5.0683,-5.0683,-5.0683,-5.0683,-5.0683,-5.0683,-5.0683,-5.0683,-5.0683,-5.0683,-5.0683,-5.0683,-5.0683,-5.0683,-5.0683,-5.0683,-5.0683,-5.0683,-5.0683,-5.0683,-5.0683,-5.0683,-5.0683,-5.0683,-5.0683,-5.0683,-5.0683,-5.0683,-5.0683,-5.0683,-5.0683,-5.0683,-5.0683,-5.0683,-5.0683,-5.0683,-5.0683,-5.0683,-5.0683,-5.0683,-5.0683,-5.0683,-5.0683,-5.0683,-5.0683,-5.0683,-5.0683,-5.0683,-5.0683,-5.0683,-5.0683,-5.0683,-5.0683,-5.0683,-5.0683,-5.0683,-5.0683,-5.0683,-5.0683,-5.0683,-5.0683,-5.0683,-5.0683,-5.0856,-5.1183,-5.2058,-5.2654,-5.2942,-5.3857,-5.4818,-5.528,-5.5472,-5.5588,-5.5684,-5.5684,-5.5684,-5.5684,-5.5684,-5.5684,-5.5684,-5.5684,-5.5684,-5.5737,-5.5827,-5.5935,-5.6063,-5.6206,-5.6276,-5.6257,-5.662,-5.6972,-5.8048,-5.8983,-5.9863,-6.0666,-6.1249,-6.164,-6.1366,-6.09,-6.0159,-5.5684,-5.5568,-5.3895,-5.3203,-5.2933,-5.1414,-5.0683,-5.0683,-5.0683,-5.0683,-5.0683,-5.0683,-5.0683,-5.0683,-5.0683,-5.0683,-5.0683,-5.0683,-5.0683,-5.0683,-5.0683,-5.0683,-5.0683,-5.0683,-5.0683,-5.0683,-5.0683,-5.0683,-5.0683,-5.0683,-5.0683,-5.0683,-5.0683,-5.0683,-5.0683,-5.0683,-5.0683,-5.0683,-5.0683,-5.0683,-5.0683,-5.0683,-5.0683,-5.0683,-5.0683,-5.0683,-5.0683,-5.0683,-5.0683,-5.0683,-5.0683,-5.0683,-5.0683,-5.0683,-5.0683,-5.0683,-5.0683,-5.0683,-5.0683,-5.0683,-5.0683,-5.0683,-5.0683,-5.0683,-5.0683,-5.0683,-5.0683,-5.0683,-5.0683,-5.0683,-5.0683,-5.0683,-5.0683,-5.0683,-5.0683,-5.0683,-5.0683,-5.0741,-5.0914,-5.1548,-5.2606,-5.3222,-5.353,-5.426,-5.528,-5.5415,-5.5607,-5.5607,-5.5684,-5.5684,-5.5684,-5.5684,-5.5684,-5.5684,-5.5684,-5.5684,-5.5684,-5.5705,-5.5844,-5.5998,-5.6104,-5.6225,-5.6271,-5.6371,-5.6482,-5.6975,-5.8185,-5.9278,-6.0002,-6.0686,-6.1366,-6.164,-6.1483,-6.0998,-6.0276,-5.5684,-5.5549,-5.3914,-5.3203,-5.2914,-5.1395,-5.0683,-5.0683,-5.0683,-5.0683,-5.0683,-5.0683,-5.0683,-5.0683,-5.0683,-5.0683,-5.0683,-5.0683,-5.0683,-5.0683,-5.0683,-5.0683,-5.0683,-5.0683,-5.0683,-5.0683,-5.0683,-5.0683,-5.0683,-5.0683,-5.0683,-5.0683,-5.0683,-5.0683,-5.0683,-5.0683,-5.0683,-5.0683,-5.0683,-5.0683,-5.0683,-5.0683,-5.0683,-5.0683,-5.0683,-5.0683,-5.0683,-5.0683,-5.0683,-5.0683,-5.0683,-5.0683,-5.0683,-5.0683,-5.0683,-5.0683,-5.0683,-5.0683,-5.0683,-5.0683,-5.0683,-5.0683,-5.0683,-5.0683,-5.0683,-5.0683,-5.0683,-5.0683,-5.0683,-5.0683,-5.0683,-5.0683,-5.0683,-5.0683,-5.0683,-5.0683,-5.0683,-5.0731,-5.0923,-5.1548,-5.2491,-5.3472,-5.4126,-5.4934,-5.5684,-5.5684,-5.5684,-5.5684,-5.5684,-5.5684,-5.5684,-5.5684,-5.5684,-5.5684,-5.5684,-5.5684,-5.5737,-5.5726,-5.587,-5.6044,-5.6172,-5.6295,-5.6455,-5.655,-5.6604,-5.7035,-5.8187,-5.9183,-5.9983,-6.0761,-6.1522,-6.1698,-6.1679,-6.1076,-6.0471,-5.5434,-5.4895,-5.3722,-5.2914,-5.2327,-5.1183,-5.0683,-5.0683,-5.0683,-5.0683,-5.0683,-5.0683,-5.0683,-5.0683,-5.0683,-5.0683,-5.0683,-5.0683,-5.0683,-5.0683,-5.0683,-5.0683,-5.0683,-5.0683,-5.0683,-5.0683,-5.0683,-5.0683,-5.0683,-5.0683,-5.0683,-5.0683,-5.0683,-5.0683,-5.0683,-5.0683,-5.0683,-5.0683,-5.0683,-5.0683,-5.0683,-5.0683,-5.0683,-5.0683,-5.0683,-5.0683,-5.0683,-5.0683,-5.0683,-5.0683,-5.0683,-5.0683,-5.0683,-5.0683,-5.0683,-5.0683,-5.0683,-5.0683,-5.0683,-5.0683,-5.0683,-5.0683,-5.0683,-5.0683,-5.0683,-5.0683,-5.0683,-5.0683,-5.0683,-5.0683,-5.0683,-5.0683,-5.0683,-5.0683,-5.0683,-5.0683,-5.0702,-5.0731,-5.0943,-5.1645,-5.2395,-5.3414,-5.4395,-5.5145,-5.5645,-5.5684,-5.5684,-5.5684,-5.5684,-5.5684,-5.5684,-5.5684,-5.5684,-5.5684,-5.5684,-5.5695,-5.5788,-5.5827,-5.5943,-5.6104,-5.6256,-5.6395,-5.6548,-5.6604,-5.6604,-5.727,-5.8285,-5.9007,-5.9749,-6.0703,-6.1698,-6.1698,-6.1698,-6.1581,-6.0878,-5.5241,-5.4434,-5.3568,-5.2808,-5.2115,-5.1144,-5.0683,-5.0683,-5.0683,-5.0683,-5.0683,-5.0683,-5.0683,-5.0683,-5.0683,-5.0683,-5.0683,-5.0683,-5.0683,-5.0683,-5.0683,-5.0683,-5.0683,-5.0683,-5.0683,-5.0683,-5.0683,-5.0683,-5.0683,-5.0683,-5.0683,-5.0683,-5.0683,-5.0683,-5.0683,-5.0683,-5.0683,-5.0683,-5.0683,-5.0683,-5.0683,-5.0683,-5.0683,-5.0683,-5.0683,-5.0683,-5.0683,-5.0683,-5.0683,-5.0683,-5.0683,-5.0683,-5.0683,-5.0683,-5.0683,-5.0683,-5.0683,-5.0683,-5.0683,-5.0683,-5.0683,-5.0683,-5.0683,-5.0683,-5.0683,-5.0683,-5.0683,-5.0683,-5.0683,-5.0683,-5.0683,-5.0683,-5.0683,-5.0683,-5.0683,-5.0683,-5.0702,-5.0789,-5.1068,-5.176,-5.2549,-5.3453,-5.4376,-5.5184,-5.5588,-5.5665,-5.5684,-5.5684,-5.5684,-5.5684,-5.5684,-5.5684,-5.5684,-5.5695,-5.5695,-5.5737,-5.5808,-5.5915,-5.6049,-5.6152,-5.629,-5.6432,-5.6577,-5.6604,-5.6604,-5.7443,-5.8421,-5.8948,-5.9514,-6.0471,-6.1291,-6.162,-6.1679,-6.1601,-6.1188,-5.5222,-5.4434,-5.3568,-5.3145,-5.2895,-5.1375,-5.0683,-5.0683,-5.0683,-5.0683,-5.0683,-5.0683,-5.0683,-5.0683,-5.0683,-5.0683,-5.0683,-5.0683,-5.0683,-5.0683,-5.0683,-5.0683,-5.0683,-5.0683,-5.0683,-5.0683,-5.0683,-5.0683,-5.0683,-5.0683,-5.0683,-5.0683,-5.0683,-5.0683,-5.0683,-5.0683,-5.0683,-5.0683,-5.0683,-5.0683,-5.0683,-5.0683,-5.0683,-5.0683,-5.0683,-5.0683,-5.0683,-5.0683,-5.0683,-5.0683,-5.0683,-5.0683,-5.0683,-5.0683,-5.0683,-5.0683,-5.0683,-5.0683,-5.0683,-5.0683,-5.0683,-5.0683,-5.0683,-5.0683,-5.0683,-5.0683,-5.0683,-5.0683,-5.0683,-5.0683,-5.0683,-5.0683,-5.0683,-5.0683,-5.0683,-5.0683,-5.076,-5.0914,-5.126,-5.1885,-5.2731,-5.3741,-5.4376,-5.5184,-5.5588,-5.5684,-5.5684,-5.5684,-5.5684,-5.5684,-5.5684,-5.5684,-5.5684,-5.5695,-5.5716,-5.5778,-5.5873,-5.5994,-5.6129,-5.6222,-5.6316,-5.6472,-5.6604,-5.6604,-5.6701,-5.7619,-5.8419,-5.8851,-5.9417,-6.0256,-6.0939,-6.1464,-6.1466,-6.1213,-6.0856,-5.5511,-5.5164,-5.4357,-5.3376,-5.2308,-5.1183,-5.0683,-5.0683,-5.0683,-5.0683,-5.0683,-5.0683,-5.0683,-5.0683,-5.0683,-5.0683,-5.0683,-5.0683,-5.0683,-5.0683,-5.0683,-5.0683,-5.0683,-5.0683,-5.0683,-5.0683,-5.0683,-5.0683,-5.0683,-5.0683,-5.0683,-5.0683,-5.0683,-5.0683,-5.0683,-5.0683,-5.0683,-5.0683,-5.0683,-5.0683,-5.0683,-5.0683,-5.0683,-5.0683,-5.0683,-5.0683,-5.0683,-5.0683,-5.0683,-5.0683,-5.0683,-5.0683,-5.0683,-5.0683,-5.0683,-5.0683,-5.0683,-5.0683,-5.0683,-5.0683,-5.0683,-5.0683,-5.0683,-5.0683,-5.0683,-5.0683,-5.0683,-5.0683,-5.0683,-5.0683,-5.0683,-5.0683,-5.0683,-5.0683,-5.0683,-5.0683,-5.0818,-5.101,-5.151,-5.2154,-5.3164,-5.4184,-5.4703,-5.5184,-5.5472,-5.5684,-5.5684,-5.5684,-5.5684,-5.5684,-5.5684,-5.5684,-5.5684,-5.5684,-5.5705,-5.5818,-5.593,-5.6063,-5.6189,-5.6318,-5.6416,-5.65,-5.6604,-5.6604,-5.6623,-5.717,-5.7814,-5.8538,-5.9358,-6.0315,-6.1015,-6.1601,-6.1369,-6.0881,-6.0271,-5.5684,-5.5588,-5.4838,-5.3664,-5.2231,-5.1395,-5.0923,-5.0712,-5.0683,-5.0683,-5.0683,-5.0683,-5.0683,-5.0683,-5.0683,-5.0683,-5.0683,-5.0683,-5.0683,-5.0683,-5.0683,-5.0683,-5.0683,-5.0683,-5.0683,-5.0683,-5.0683,-5.0683,-5.0683,-5.0683,-5.0683,-5.0683,-5.0683,-5.0683,-5.0683,-5.0683,-5.0683,-5.0683,-5.0683,-5.0683,-5.0683,-5.0683,-5.0683,-5.0683,-5.0683,-5.0683,-5.0683,-5.0683,-5.0683,-5.0683,-5.0683,-5.0683,-5.0683,-5.0683,-5.0683,-5.0683,-5.0683,-5.0683,-5.0683,-5.0683,-5.0683,-5.0683,-5.0683,-5.0683,-5.0683,-5.0683,-5.0683,-5.0683,-5.0683,-5.0683,-5.0683,-5.0683,-5.0683,-5.0683,-5.0683,-5.0721,-5.0971,-5.1202,-5.1818,-5.2442,-5.351,-5.453,-5.5011,-5.5415,-5.5511,-5.5684,-5.5684,-5.5684,-5.5684,-5.5684,-5.5684,-5.5684,-5.5684,-5.5684,-5.5695,-5.5872,-5.602,-5.6104,-5.6246,-5.6425,-5.6528,-5.6602,-5.6604,-5.6604,-5.6643,-5.6701,-5.7289,-5.8148,-5.928,-6.0429,-6.0878,-6.1154,-6.092,-6.0354,-5.9553,-5.5684,-5.5607,-5.4857,-5.401,-5.3106,-5.225,-5.1452,-5.0856,-5.0731,-5.0683,-5.0683,-5.0683,-5.0683,-5.0683,-5.0683,-5.0683,-5.0683,-5.0683,-5.0683,-5.0683,-5.0683,-5.0683,-5.0683,-5.0683,-5.0683,-5.0683,-5.0683,-5.0683,-5.0683,-5.0683,-5.0683,-5.0683,-5.0683,-5.0683,-5.0683,-5.0683,-5.0683,-5.0683,-5.0702,-5.0798,-5.0712,-5.076,-5.0875,-5.0683,-5.0683,-5.0683,-5.0683,-5.0683,-5.0683,-5.0683,-5.0683,-5.0683,-5.0683,-5.0683,-5.0683,-5.0683,-5.0683,-5.0683,-5.0683,-5.0683,-5.0683,-5.0683,-5.0683,-5.0683,-5.0683,-5.0683,-5.0683,-5.0683,-5.0683,-5.0683,-5.0683,-5.0683,-5.0683,-5.0721,-5.0741,-5.0971,-5.1241,-5.201,-5.2722,-5.3222,-5.3953,-5.478,-5.528,-5.5665,-5.5645,-5.5684,-5.5684,-5.5684,-5.5684,-5.5684,-5.5684,-5.5684,-5.5695,-5.5728,-5.5779,-5.5959,-5.6117,-5.6183,-5.6305,-5.6488,-5.6577,-5.6602,-5.6604,-5.6604,-5.6643,-5.6682,-5.7192,-5.7816,-5.8851,-5.9766,-6.0139,-6.0334,-6.0159,-5.9768,-5.8968,-5.5684,-5.5665,-5.5395,-5.4818,-5.3991,-5.3126,-5.2279,-5.1491,-5.0971,-5.0683,-5.0683,-5.0683,-5.0683,-5.0683,-5.0683,-5.0683,-5.0683,-5.0683,-5.0683,-5.0683,-5.0683,-5.0683,-5.0683,-5.0683,-5.0683,-5.0683,-5.0683,-5.0683,-5.0683,-5.0683,-5.0683,-5.0683,-5.0798,-5.0683,-5.0683,-5.0683,-5.0683,-5.0818,-5.1106,-5.1298,-5.0885,-5.1183,-5.1279,-5.0837,-5.0818,-5.0818,-5.0779,-5.0798,-5.0779,-5.0702,-5.0683,-5.0683,-5.0683,-5.0683,-5.0683,-5.0683,-5.0683,-5.0683,-5.0683,-5.0683,-5.0683,-5.0683,-5.0683,-5.0683,-5.0683,-5.0683,-5.0683,-5.0683,-5.0683,-5.0683,-5.0683,-5.0683,-5.0721,-5.0856,-5.101,-5.1433,-5.1923,-5.3087,-5.3972,-5.4241,-5.4799,-5.5126,-5.5568,-5.5684,-5.5684,-5.5684,-5.5684,-5.5684,-5.5684,-5.5684,-5.5684,-5.5684,-5.5705,-5.5749,-5.5844,-5.6035,-5.6152,-5.6237,-5.6363,-5.6548,-5.6604,-5.6604,-5.6604,-5.6604,-5.6623,-5.6682,-5.7033,-5.7482,-5.8204,-5.8909,-5.9161,-5.9436,-5.9417,-5.8987,-5.8285,-5.5684,-5.5684,-5.5684,-5.5395,-5.4818,-5.401,-5.301,-5.1904,-5.1068,-5.0683,-5.0683,-5.0683,-5.0683,-5.0683,-5.0683,-5.0683,-5.0683,-5.0683,-5.0683,-5.0683,-5.0683,-5.0683,-5.0683,-5.0683,-5.0683,-5.0683,-5.0683,-5.0683,-5.0683,-5.0683,-5.0875,-5.1106,-5.1125,-5.1452,-5.1452,-5.1471,-5.1375,-5.1683,-5.2164,-5.2183,-5.1952,-5.201,-5.2106,-5.1798,-5.1625,-5.151,-5.1241,-5.1087,-5.0991,-5.0856,-5.0721,-5.0712,-5.0712,-5.0702,-5.0683,-5.0683,-5.0683,-5.0683,-5.0683,-5.0683,-5.0683,-5.0683,-5.0683,-5.0683,-5.0683,-5.0683,-5.0683,-5.0683,-5.0683,-5.0683,-5.0683,-5.0683,-5.0837,-5.0991,-5.1452,-5.1865,-5.2635,-5.378,-5.4414,-5.4761,-5.5145,-5.5491,-5.5684,-5.5684,-5.5684,-5.5684,-5.5684,-5.5684,-5.5684,-5.5684,-5.5695,-5.5695,-5.5738,-5.5808,-5.5921,-5.6071,-5.6206,-5.6299,-5.6439,-5.6602,-5.6604,-5.6604,-5.6604,-5.6604,-5.6623,-5.6643,-5.6699,-5.7109,-5.7597,-5.7851,-5.7948,-5.8243,-5.8556,-5.8168,-5.7562,-5.5684,-5.5684,-5.5684,-5.5684,-5.553,-5.4741,-5.351,-5.1981,-5.1144,-5.0779,-5.077,-5.077,-5.0683,-5.0683,-5.0683,-5.0683,-5.0683,-5.0683,-5.0683,-5.0683,-5.0683,-5.0683,-5.0683,-5.0683,-5.0683,-5.0683,-5.0683,-5.0683,-5.0702,-5.0933,-5.1298,-5.1692,-5.1865,-5.2337,-5.2587,-5.2606,-5.2472,-5.2722,-5.3029,-5.2991,-5.2818,-5.3068,-5.301,-5.2818,-5.2722,-5.2452,-5.2164,-5.1933,-5.1587,-5.126,-5.0885,-5.0808,-5.077,-5.0731,-5.0712,-5.0683,-5.0683,-5.0683,-5.0683,-5.0683,-5.0683,-5.0683,-5.0683,-5.0683,-5.0683,-5.0683,-5.0683,-5.0683,-5.0683,-5.0683,-5.0683,-5.0856,-5.101,-5.1414,-5.1895,-5.2491,-5.3222,-5.3953,-5.4491,-5.4914,-5.5357,-5.5626,-5.5684,-5.5684,-5.5684,-5.5684,-5.5684,-5.5684,-5.5684,-5.5684,-5.5695,-5.5716,-5.5769,-5.588,-5.6005,-5.6135,-5.6281,-5.6383,-5.6472,-5.6604,-5.6604,-5.6604,-5.6604,-5.6604,-5.6604,-5.6621,-5.6636,-5.6616,-5.6694,-5.6892,-5.7182,-5.7343,-5.7736,-5.7404,-5.6918,-5.5684,-5.5684,-5.5684,-5.5684,-5.5568,-5.4838,-5.4164,-5.3606,-5.226,-5.1548,-5.1529,-5.0943,-5.0741,-5.0683,-5.0683,-5.0683,-5.0683,-5.0683,-5.0683,-5.0683,-5.0683,-5.0683,-5.0683,-5.0683,-5.0683,-5.0683,-5.0683,-5.0741,-5.0904,-5.1164,-5.1587,-5.1885,-5.2577,-5.3299,-5.3741,-5.3876,-5.3606,-5.353,-5.3895,-5.378,-5.3703,-5.3876,-5.3741,-5.3568,-5.3453,-5.3164,-5.2933,-5.2837,-5.2587,-5.2452,-5.1818,-5.1568,-5.1548,-5.1048,-5.0683,-5.0683,-5.0683,-5.0683,-5.0683,-5.0683,-5.0721,-5.0741,-5.0731,-5.0683,-5.0683,-5.0683,-5.0683,-5.0683,-5.0683,-5.0683,-5.0683,-5.0798,-5.1241,-5.1856,-5.2395,-5.3106,-5.3837,-5.4568,-5.5049,-5.5203,-5.5626,-5.5645,-5.5684,-5.5684,-5.5684,-5.5684,-5.5684,-5.5684,-5.5684,-5.5684,-5.5695,-5.5716,-5.5836,-5.5946,-5.605,-5.6206,-5.6359,-5.6497,-5.6575,-5.6604,-5.6604,-5.6604,-5.6604,-5.6604,-5.6602,-5.6558,-5.6511,-5.6511,-5.6531,-5.6511,-5.6726,-5.6792,-5.6797,-5.6682,-5.6604,-5.5684,-5.5684,-5.5684,-5.5684,-5.5607,-5.5184,-5.4972,-5.4645,-5.3145,-5.225,-5.1846,-5.1395,-5.0991,-5.0702,-5.0683,-5.0683,-5.0683,-5.0683,-5.0683,-5.0683,-5.0683,-5.0683,-5.0683,-5.0683,-5.0683,-5.0683,-5.076,-5.0894,-5.1241,-5.1991,-5.25,-5.3068,-5.3549,-5.4164,-5.4703,-5.4876,-5.4703,-5.4587,-5.4587,-5.4549,-5.4568,-5.4645,-5.4472,-5.426,-5.4126,-5.3991,-5.3722,-5.3722,-5.3587,-5.3183,-5.2365,-5.1923,-5.175,-5.1164,-5.0702,-5.0683,-5.0683,-5.0933,-5.1106,-5.0837,-5.0933,-5.0971,-5.0885,-5.0712,-5.0683,-5.0683,-5.0683,-5.0683,-5.0683,-5.0683,-5.0683,-5.0798,-5.1548,-5.2299,-5.2991,-5.3703,-5.4491,-5.5299,-5.5549,-5.5626,-5.5684,-5.5684,-5.5684,-5.5684,-5.5684,-5.5684,-5.5684,-5.5684,-5.5684,-5.5684,-5.5684,-5.5695,-5.5863,-5.6027,-5.6128,-5.6261,-5.6429,-5.655,-5.6577,-5.6604,-5.6604,-5.6565,-5.6528,-5.6545,-5.658,-5.6494,-5.6366,-5.6458,-5.6497,-5.65,-5.6503,-5.6611,-5.6697,-5.6662,-5.6604,-5.5684,-5.5684,-5.5684,-5.5684,-5.5684,-5.5645,-5.5645,-5.553,-5.4087,-5.2953,-5.2308,-5.2058,-5.1606,-5.1087,-5.0971,-5.0818,-5.0741,-5.0683,-5.0683,-5.0683,-5.0683,-5.0683,-5.0683,-5.0683,-5.0683,-5.0683,-5.0779,-5.1029,-5.1933,-5.276,-5.3645,-5.4472,-5.4568,-5.4914,-5.5376,-5.5491,-5.5357,-5.5318,-5.5357,-5.5376,-5.5472,-5.5607,-5.5684,-5.5588,-5.5453,-5.5299,-5.478,-5.4453,-5.4222,-5.3433,-5.2769,-5.2356,-5.1702,-5.1356,-5.0991,-5.0818,-5.0875,-5.1241,-5.1548,-5.1452,-5.1471,-5.1452,-5.1241,-5.0914,-5.0798,-5.0702,-5.0683,-5.0683,-5.0683,-5.0933,-5.101,-5.1221,-5.1798,-5.2741,-5.3606,-5.4318,-5.5088,-5.5588,-5.5626,-5.5684,-5.5684,-5.5684,-5.5684,-5.5684,-5.5684,-5.5684,-5.5684,-5.5684,-5.5684,-5.5684,-5.5695,-5.5716,-5.5896,-5.6057,-5.616,-5.63,-5.6514,-5.6604,-5.6604,-5.6604,-5.6604,-5.6528,-5.6411,-5.6114,-5.5799,-5.6155,-5.6199,-5.6312,-5.6423,-5.6485,-5.6514,-5.6528,-5.6577,-5.6602,-5.6604,-5.5684,-5.5684,-5.5684,-5.5684,-5.5684,-5.5684,-5.5684,-5.5684,-5.5318,-5.4587,-5.3857,-5.3164,-5.2365,-5.1596,-5.151,-5.126,-5.077,-5.0683,-5.0683,-5.0683,-5.0683,-5.0683,-5.0683,-5.0683,-5.0721,-5.0683,-5.0818,-5.1414,-5.2299,-5.3395,-5.428,-5.4568,-5.4934,-5.5491,-5.5665,-5.5684,-5.5684,-5.5684,-5.5684,-5.5684,-5.5684,-5.5684,-5.5684,-5.5684,-5.5626,-5.5626,-5.5318,-5.5318,-5.528,-5.4972,-5.4299,-5.3299,-5.2,-5.1712,-5.1298,-5.0933,-5.1318,-5.1683,-5.2077,-5.226,-5.2337,-5.201,-5.1722,-5.126,-5.0952,-5.0779,-5.0702,-5.0721,-5.0837,-5.1144,-5.1433,-5.1702,-5.2164,-5.3203,-5.4126,-5.4876,-5.5588,-5.5665,-5.5684,-5.5684,-5.5684,-5.5684,-5.5684,-5.5684,-5.5684,-5.5684,-5.5684,-5.5684,-5.5684,-5.5695,-5.5707,-5.5759,-5.5943,-5.6091,-5.6189,-5.6333,-5.6545,-5.6604,-5.6604,-5.6604,-5.6565,-5.6216,-5.5825,-5.5196,-5.4899,-5.5352,-5.5841,-5.6218,-5.6312,-5.6432,-5.6501,-5.652,-5.6553,-5.658,-5.6602,-5.5684,-5.5684,-5.5684,-5.5684,-5.5684,-5.5684,-5.5684,-5.5684,-5.5684,-5.5453,-5.4953,-5.4126,-5.3096,-5.2096,-5.1904,-5.151,-5.0866,-5.0712,-5.0683,-5.0683,-5.0683,-5.0683,-5.0683,-5.0702,-5.1048,-5.1144,-5.2125,-5.2856,-5.3126,-5.4164,-5.5068,-5.5049,-5.553,-5.5684,-5.5684,-5.5684,-5.5684,-5.5684,-5.5684,-5.5684,-5.5684,-5.5684,-5.5684,-5.5684,-5.5684,-5.5684,-5.5684,-5.5684,-5.5684,-5.5472,-5.4818,-5.3876,-5.2741,-5.2096,-5.1933,-5.1837,-5.201,-5.2231,-5.2788,-5.3106,-5.3241,-5.2933,-5.2549,-5.2222,-5.2164,-5.1991,-5.1337,-5.1318,-5.1337,-5.1596,-5.1865,-5.2115,-5.2953,-5.3933,-5.4337,-5.4838,-5.5376,-5.5684,-5.5684,-5.5684,-5.5684,-5.5684,-5.5684,-5.5684,-5.5684,-5.5684,-5.5684,-5.5684,-5.5684,-5.5677,-5.5708,-5.5702,-5.5816,-5.6076,-5.6237,-5.6395,-5.6575,-5.6604,-5.6565,-5.6255,-5.6001,-5.563,-5.5181,-5.4476,-5.4274,-5.4786,-5.5259,-5.5707,-5.6203,-5.6402,-5.6455,-5.6491,-5.6523,-5.6555,-5.6582,-5.5684,-5.5684,-5.5684,-5.5684,-5.5684,-5.5684,-5.5684,-5.5684,-5.5684,-5.5684,-5.5549,-5.4934,-5.3664,-5.2702,-5.2049,-5.1491,-5.1048,-5.0808,-5.0731,-5.0683,-5.0683,-5.0683,-5.0683,-5.0721,-5.1144,-5.2125,-5.328,-5.3837,-5.4222,-5.5088,-5.5549,-5.5665,-5.5684,-5.5684,-5.5684,-5.5684,-5.5684,-5.5684,-5.5684,-5.5684,-5.5684,-5.5684,-5.5684,-5.5684,-5.5684,-5.5684,-5.5684,-5.5684,-5.5684,-5.5511,-5.5107,-5.4337,-5.3606,-5.2914,-5.2769,-5.276,-5.2722,-5.3241,-5.3857,-5.3953,-5.4087,-5.403,-5.3626,-5.3376,-5.328,-5.2837,-5.2183,-5.2029,-5.2058,-5.2231,-5.25,-5.2885,-5.378,-5.4453,-5.4703,-5.4876,-5.5318,-5.5684,-5.5684,-5.5684,-5.5684,-5.5684,-5.5684,-5.5684,-5.5684,-5.5684,-5.5684,-5.5684,-5.5686,-5.5651,-5.5633,-5.5534,-5.5523,-5.5802,-5.6193,-5.6127,-5.6196,-5.645,-5.6333,-5.5864,-5.5357,-5.4713,-5.4147,-5.3676,-5.3667,-5.4084,-5.4655,-5.5181,-5.5681,-5.6317,-5.6452,-5.6488,-5.6517,-5.655,-5.6584,-5.5684,-5.5684,-5.5684,-5.5684,-5.5684,-5.5684,-5.5684,-5.5684,-5.5684,-5.5684,-5.5645,-5.5549,-5.4857,-5.3953,-5.3222,-5.2452,-5.1491,-5.1029,-5.0731,-5.0683,-5.0683,-5.0683,-5.0818,-5.1048,-5.1298,-5.2414,-5.3741,-5.4376,-5.478,-5.5357,-5.5684,-5.5684,-5.5684,-5.5684,-5.5684,-5.5684,-5.5684,-5.5684,-5.5684,-5.5684,-5.5684,-5.5684,-5.5684,-5.5684,-5.5684,-5.5684,-5.5684,-5.5684,-5.5684,-5.5626,-5.5511,-5.4934,-5.4395,-5.3895,-5.3722,-5.3606,-5.3568,-5.3972,-5.4434,-5.4761,-5.4953,-5.4587,-5.4203,-5.3991,-5.3799,-5.3472,-5.3087,-5.3068,-5.3164,-5.3395,-5.3664,-5.3933,-5.4607,-5.5049,-5.5395,-5.5395,-5.5607,-5.5684,-5.5684,-5.5684,-5.5684,-5.5684,-5.5684,-5.5684,-5.5684,-5.5684,-5.5684,-5.5684,-5.5684,-5.5642,-5.5509,-5.5349,-5.5177,-5.5672,-5.61,-5.5552,-5.5532,-5.5903,-5.5923,-5.5201,-5.44,-5.3561,-5.3014,-5.27,-5.285,-5.3245,-5.3855,-5.4713,-5.5537,-5.6157,-5.6393,-5.6485,-5.6514,-5.6531,-5.6565]},{"header":{"parameterUnit":"m.s-1","parameterCategory":1,"la1":31.0,"la2":29.5877,"lo1":-88.7671,"lo2":-86.6584,"dx":0.0162,"dy":0.0185,"nx":115,"ny":88,"refTime":"2022-12-04T06:00:00:Z","depth":0,"parameterNumber":3,"parameterNumberName":"V-component_of_WINDS"},"data":[0.0,0.0,0.0,0.0,0.0,0.0,0.0,0.0,0.0,0.0,0.0,0.0,0.0,0.0,0.0,0.0,0.0,0.0,0.0,0.0,0.0,0.0,0.0,0.0,0.0,0.0,0.0,0.0,0.0,0.0,0.0,0.0,0.0,0.0,0.0,0.0,0.0,0.0,0.0,0.0,0.0,0.0,0.0,0.0,0.0,0.0,0.0,0.0,0.0,0.0,0.0,0.0,0.0,0.0,0.0,0.0,0.0,0.0,0.0,0.0,0.0,0.0,0.0,0.0,0.0,0.0,0.0,0.0,0.0,0.0,0.0,0.0,0.0,0.0,0.0,0.0,0.0,0.0,0.0,0.0,0.0,0.0,0.0,0.0,0.0,0.0,0.0,0.0,0.0,0.0,0.0,0.0,0.0,0.0,0.0,0.0,0.0,0.0,0.0,0.0,0.0,0.0,0.0,0.0,0.0,0.0,0.0,0.0,0.0,0.0,0.0,0.0,0.0,0.0,0.0,0.0,0.0,0.0,0.0,0.0,0.0,0.0,0.0,0.0,0.0,0.0,0.0,0.0,0.0,0.0,0.0,0.0,0.0,0.0,0.0,0.0,0.0,0.0,0.0,0.0,0.0,0.0,0.0,0.0,0.0,0.0,0.0,0.0,0.0,0.0,0.0,0.0,0.0,0.0,0.0,0.0,0.0,0.0,0.0,0.0,0.0,0.0,0.0,0.0,0.0,0.0,0.0,0.0,0.0,0.0,0.0,0.0,0.0,0.0,0.0,0.0,0.0,0.0,0.0,0.0,0.0,0.0,0.0,0.0,0.0,0.0,0.0,0.0,0.0,0.0,0.0,0.0,0.0,0.0,0.0,0.0,0.0,0.0,0.0,0.0,0.0,0.0,0.0,0.0,0.0,0.0,0.0,0.0,0.0,0.0,0.0,0.0,0.0,0.0,0.0,0.0,0.0,0.0,0.0,0.0,0.0,0.0,0.0,0.0,0.0,0.0,0.0,0.0,0.0,0.0,0.0,0.0,0.0,0.0,0.0,0.0,0.0,0.0,0.0,0.0,0.0,0.0,0.0,0.0,0.0,0.0,0.0,0.0,0.0,0.0,0.0,0.0,0.0,0.0,0.0,0.0,0.0,0.0,0.0,0.0,0.0,0.0,0.0,0.0,0.0,0.0,0.0,0.0,0.0,0.0,0.0,0.0,0.0,0.0,0.0,0.0,0.0,0.0,0.0,0.0,0.0,0.0,0.0,0.0,0.0,0.0,0.0,0.0,0.0,0.0,0.0,0.0,0.0,0.0,0.0,0.0,0.0,0.0,0.0,0.0,0.0,0.0,0.0,0.0,0.0,0.0,0.0,0.0,0.0,0.0,0.0,0.0,0.0,0.0,0.0,0.0,0.0,0.0,0.0,0.0,0.0,0.0,0.0,0.0,0.0,0.0,0.0,0.0,0.0,0.0,0.0,0.0,0.0,0.0,0.0,0.0,0.0,0.0,0.0,0.0,0.0,0.0,0.0,0.0,0.0,0.0,0.0,0.0,0.0,0.0,0.0,0.0,0.0,0.0,0.0,0.0,0.0,0.0,0.0,0.0,0.0,0.0,0.0,0.0,0.0,0.0,0.0,0.0,0.0,0.0,0.0,0.0,0.0,0.0,0.0,0.0,0.0,0.0,0.0,0.0,0.0,0.0,0.0,0.0,0.0,0.0,0.0,0.0,0.0,0.0,0.0,0.0,0.0,0.0,0.0,0.0,0.0,0.0,0.0,0.0,0.0,0.0,0.0,0.0,0.0,0.0,0.0,0.0,0.0,0.0,0.0,0.0,0.0,0.0,0.0,0.0,0.0,0.0,0.0,0.0,0.0,0.0,0.0,0.0,0.0,0.0,0.0,0.0,0.0,0.0,0.0,0.0,0.0,0.0,0.0,0.0,0.0,0.0,0.0,0.0,0.0,0.0,0.0,0.0,0.0,0.0,0.0,0.0,0.0,0.0,0.0,0.0,0.0,0.0,0.0,0.0,0.0,0.0,0.0,0.0,0.0,0.0,0.0,0.0,0.0,0.0,0.0,0.0,0.0,0.0,0.0,0.0,0.0,0.0,0.0,0.0,0.0,0.0,0.0,0.0,0.0,0.0,0.0,0.0,0.0,0.0,0.0,0.0,0.0,0.0,0.0,0.0,0.0,0.0,0.0,0.0,0.0,0.0,0.0,0.0,0.0,0.0,0.0,0.0,0.0,0.0,0.0,0.0,0.0,0.0,0.0,0.0,0.0,0.0,0.0,0.0,0.0,0.0,0.0,0.0,0.0,0.0,0.0,0.0,0.0,0.0,0.0,0.0,0.0,0.0,0.0,0.0,0.0,0.0,0.0,0.0,0.0,0.0,0.0,0.0,0.0,0.0,0.0,0.0,0.0,0.0,0.0,0.0,0.0,0.0,0.0,0.0,0.0,0.0,0.0,0.0,0.0,0.0,0.0,0.0,0.0,0.0,0.0,0.0,0.0,0.0,0.0,0.0,0.0,0.0,0.0,0.0,0.0,0.0,0.0,0.0,0.0,0.0,0.0,0.0,0.0,0.0,0.0,0.0,0.0,0.0,0.0,0.0,0.0,0.0,0.0,0.0,0.0,0.0,0.0,0.0,0.0,0.0,0.0,0.0,0.0,0.0,0.0,0.0,0.0,0.0,0.0,0.0,0.0,0.0,0.0,0.0,0.0,0.0,0.0,0.0,0.0,0.0,0.0,0.0,0.0,0.0,0.0,0.0,0.0,0.0,0.0,0.0,0.0,0.0,0.0,0.0,0.0,0.0,0.0,0.0,0.0,0.0,0.0,0.0,0.0,0.0,0.0,0.0,0.0,0.0,0.0,0.0,0.0,0.0,0.0,0.0,0.0,0.0,0.0,0.0,0.0,0.0,0.0,0.0,0.0,0.0,0.0,0.0,0.0,0.0,0.0,0.0,0.0,0.0,0.0,0.0,0.0,0.0,0.0,0.0,0.0,0.0,0.0,0.0,0.0,0.0,0.0,0.0,0.0,0.0,0.0,0.0,0.0,0.0,0.0,0.0,0.0,0.0,0.0,0.0,0.0,0.0,0.0,0.0,0.0,0.0,0.0,0.0,0.0,0.0,0.0,0.0,0.0,0.0,0.0,0.0,0.0,0.0,0.0,0.0,0.0,0.0,0.0,0.0,0.0,0.0,0.0,0.0,0.0,0.0,0.0,0.0,0.0,0.0,0.0,0.0,0.0,0.0,0.0,0.0,0.0,0.0,0.0,0.0,0.0,0.0,0.0,0.0,0.0,0.0,0.0,0.0,0.0,0.0,0.0,0.0,0.0,0.0,0.0,0.0,0.0,0.0,0.0,0.0,0.0,0.0,0.0,0.0,0.0,0.0,0.0,0.0,0.0,0.0,0.0,0.0,0.0,0.0,0.0,0.0,0.0,0.0,0.0,0.0,0.0,0.0,0.0,0.0,0.0,0.0,0.0,0.0,0.0,0.0,0.0,0.0,0.0,0.0,0.0,0.0,0.0,0.0,0.0,0.0,0.0,0.0,0.0,0.0,0.0,0.0,0.0,0.0,0.0,0.0,0.0,0.0,0.0,0.0,0.0,0.0,0.0,0.0,0.0,0.0,0.0,0.0,0.0,0.0,0.0,0.0,0.0,0.0,0.0,0.0,0.0,0.0,0.0,0.0,0.0,0.0,0.0,0.0,0.0,0.0,0.0,0.0,0.0,0.0,0.0,0.0,0.0,0.0,0.0,0.0,0.0,0.0,0.0,0.0,0.0,0.0,0.0,0.0,0.0,0.0,0.0,0.0,0.0,0.0,0.0,0.0,0.0,0.0,0.0,0.0,0.0,0.0,0.0,0.0,0.0,0.0,0.0,0.0,0.0,0.0,0.0,0.0,0.0,0.0,0.0,0.0,0.0,0.0,0.0,0.0,0.0,0.0,0.0,0.0,0.0,0.0,0.0,0.0,0.0,0.0,0.0,0.0,0.0,0.0,0.0,0.0,0.0,0.0,0.0,0.0,0.0,0.0,0.0,0.0,0.0,0.0,0.0,0.0,0.0,0.0,0.0,0.0,0.0,0.0,0.0,0.0,0.0,0.0,0.0,0.0,0.0,0.0,0.0,0.0,0.0,0.0,0.0,0.0,0.0,0.0,0.0,0.0,0.0,0.0,0.0,0.0,0.0,0.0,0.0,0.0,0.0,0.0,0.0,0.0,0.0,0.0,0.0,0.0,0.0,0.0,0.0,0.0,-0.2628,0.0,0.0,0.0,-0.1925,0.0,0.0,0.0,0.0,0.0,0.0,0.0,0.0,0.0,0.0,0.0,0.0,0.0,0.0,0.0,0.0,0.0,0.0,0.0,0.0,0.0,0.0,0.0,0.0,0.0,0.0,0.0,0.0,0.0,0.0,0.0,0.0,0.0,0.0,0.0,0.0,0.0,0.0,0.0,0.0,0.0,0.0,0.0,0.0,0.0,0.0,0.0,0.0,0.0,0.0,0.0,0.0,0.0,0.0,0.0,0.0,0.0,0.0,0.0,0.0,0.0,0.0,0.0,0.0,0.0,0.0,0.0,0.0,0.0,0.0,0.0,0.0,0.0,0.0,0.0,0.0,0.0,0.0,0.0,0.0,0.0,0.0,0.0,0.0,0.0,0.0,0.0,0.0,0.0,0.0,0.0,0.0,0.0,0.0,0.0,0.0,0.0,0.0,0.0,0.0,0.0,0.0,0.0,0.0,0.0,0.0,0.0,0.0,0.0,0.0,-0.2467,-0.2026,-0.2585,-0.2564,-0.1839,0.0,0.0,0.0,0.0,0.0,0.0,0.0,0.0,0.0,0.0,0.0,0.0,0.0,0.0,0.0,0.0,0.0,0.0,0.0,0.0,0.0,0.0,0.0,0.0,0.0,0.0,0.0,0.0,0.0,0.0,0.0,0.0,0.0,0.0,0.0,0.0,0.0,0.0,0.0,0.0,0.0,0.0,0.0,0.0,0.0,0.0,0.0,0.0,0.0,0.0,0.0,0.0,0.0,0.0,0.0,0.0,0.0,0.0,0.0,0.0,0.0,0.0,0.0,0.0,0.0,0.0,0.0,0.0,0.0,0.0,0.0,0.0,0.0,0.0,0.0,0.0,0.0,0.0,0.0,0.0,0.0,0.0,0.0,0.0,0.0,0.0,0.0,0.0,0.0,0.0,0.0,0.0,0.0,0.0,0.0,0.0,0.0,0.0,0.0,0.0,0.0,0.0,0.0,0.0,0.0,0.0,0.0,0.0,0.0,0.0,0.0,0.0,-0.2703,-0.27,-0.2044,0.0,0.0,0.0,0.0,0.0,0.0,0.0,0.0,0.0,0.0,0.0,0.0,0.0,0.0,0.0,0.0,0.0,0.0,0.0,0.0,0.0,0.0,0.0,0.0,0.0,0.0,0.0,0.0,0.0,0.0,0.0,0.0,0.0,0.0,0.0,0.0,0.0,0.0,0.0,0.0,0.0,0.0,0.0,0.0,0.0,0.0,0.0,0.0,0.0,0.0,0.0,0.0,0.0,0.0,0.0,0.0,0.0,0.0,0.0,0.0,0.0,0.0,0.0,0.0,0.0,0.0,0.0,0.0,0.0,0.0,0.0,0.0,0.0,0.0,0.0,0.0,0.0,0.0,0.0,0.0,0.0,0.0,0.0,0.0,0.0,0.0,0.0,0.0,0.0,0.0,0.0,0.0,0.0,0.0,0.0,0.0,0.0,0.0,0.0,0.0,0.0,0.0,0.0,0.0,0.0,0.0,0.0,0.0,0.0,0.0,-0.2177,-0.2434,-0.2628,0.0,-0.2624,0.0,0.0,0.0,0.0,0.0,0.0,0.0,0.0,0.0,0.0,0.0,0.0,0.0,0.0,0.0,0.0,0.0,0.0,0.0,0.0,0.0,0.0,0.0,0.0,0.0,0.0,0.0,0.0,0.0,0.0,0.0,0.0,0.0,0.0,0.0,0.0,0.0,0.0,0.0,0.0,0.0,0.0,0.0,0.0,0.0,0.0,0.0,0.0,0.0,0.0,0.0,0.0,0.0,0.0,0.0,0.0,0.0,0.0,0.0,0.0,0.0,0.0,0.0,0.0,0.0,0.0,0.0,0.0,0.0,0.0,0.0,0.0,0.0,0.0,0.0,0.0,0.0,0.0,0.0,0.0,0.0,0.0,0.0,0.0,0.0,0.0,0.0,0.0,0.0,0.0,0.0,0.0,0.0,0.0,0.0,0.0,0.0,0.0,0.0,0.0,0.0,0.0,0.0,0.0,0.0,0.0,0.0,0.0,0.0,0.0,-0.2359,-0.2494,-0.2544,-0.2623,0.0,0.0,0.0,0.0,0.0,0.0,0.0,0.0,0.0,0.0,0.0,0.0,0.0,0.0,0.0,0.0,0.0,0.0,0.0,0.0,0.0,0.0,0.0,0.0,0.0,0.0,0.0,0.0,0.0,0.0,0.0,0.0,0.0,0.0,0.0,0.0,0.0,0.0,0.0,0.0,0.0,0.0,0.0,0.0,0.0,0.0,0.0,0.0,0.0,0.0,0.0,0.0,0.0,0.0,0.0,0.0,0.0,0.0,0.0,0.0,0.0,0.0,0.0,0.0,0.0,0.0,0.0,0.0,0.0,0.0,0.0,0.0,0.0,0.0,0.0,0.0,0.0,0.0,0.0,0.0,0.0,0.0,0.0,0.0,0.0,0.0,0.0,0.0,0.0,0.0,0.0,0.0,0.0,0.0,0.0,0.0,0.0,0.0,0.0,0.0,0.0,0.0,0.0,0.0,0.0,0.0,0.0,0.0,0.0,0.0,-0.2379,-0.2556,-0.2658,-0.2668,-0.2648,-0.2654,0.0,0.0,0.0,0.0,0.0,0.0,0.0,0.0,0.0,0.0,0.0,0.0,0.0,0.0,0.0,0.0,0.0,0.0,0.0,0.0,0.0,0.0,0.0,0.0,0.0,0.0,0.0,0.0,0.0,0.0,0.0,0.0,0.0,0.0,0.0,0.0,0.0,0.0,0.0,0.0,0.0,0.0,0.0,0.0,0.0,0.0,0.0,0.0,0.0,0.0,0.0,0.0,0.0,0.0,0.0,0.0,0.0,0.0,0.0,0.0,0.0,0.0,0.0,0.0,0.0,0.0,0.0,0.0,0.0,0.0,0.0,0.0,0.0,0.0,0.0,0.0,0.0,0.0,0.0,0.0,0.0,0.0,0.0,0.0,0.0,0.0,0.0,0.0,0.0,0.0,0.0,0.0,0.0,0.0,0.0,0.0,0.0,0.0,0.0,0.0,0.0,0.0,0.0,0.0,0.0,0.0,0.0,0.0,-0.2966,-0.2685,-0.2692,-0.3054,-0.309,-0.2893,0.0,0.0,0.0,0.0,0.0,0.0,0.0,0.0,0.0,0.0,0.0,0.0,0.0,0.0,0.0,0.0,0.0,0.0,0.0,0.0,0.0,0.0,0.0,0.0,0.0,0.0,0.0,0.0,0.0,0.0,0.0,0.0,0.0,0.0,0.0,0.0,0.0,0.0,0.0,0.0,0.0,0.0,0.0,0.0,0.0,0.0,0.0,0.0,0.0,0.0,0.0,0.0,0.0,0.0,0.0,0.0,0.0,0.0,0.0,0.0,0.0,0.0,0.0,0.0,0.0,0.0,0.0,0.0,0.0,0.0,0.0,0.0,0.0,0.0,0.0,0.0,0.0,0.0,0.0,0.0,0.0,0.0,0.0,0.0,0.0,0.0,0.0,0.0,0.0,0.0,0.0,0.0,0.0,0.0,0.0,0.0,0.0,0.0,0.0,0.0,0.0,0.0,0.0,0.0,0.0,0.0,0.0,0.0,0.0,-0.2249,-0.2429,-0.284,-0.3518,-0.3017,-0.2768,0.0,0.0,0.0,0.0,0.0,0.0,0.0,0.0,0.0,0.0,0.0,0.0,0.0,0.0,0.0,0.0,0.0,0.0,0.0,0.0,0.0,0.0,0.0,0.0,0.0,0.0,0.0,0.0,0.0,0.0,0.0,0.0,0.0,0.0,0.0,0.0,0.0,0.0,0.0,0.0,0.0,0.0,0.0,0.0,0.0,0.0,0.0,0.0,0.0,0.0,0.0,0.0,0.0,0.0,0.0,0.0,0.0,0.0,0.0,0.0,0.0,0.0,0.0,0.0,0.0,0.0,0.0,0.0,0.0,0.0,0.0,0.0,0.0,0.0,0.0,0.0,0.0,0.0,0.0,0.0,0.0,0.0,0.0,0.0,0.0,0.0,0.0,0.0,0.0,0.0,0.0,0.0,0.0,0.0,0.0,0.0,0.0,0.0,0.0,0.0,0.0,0.0,0.0,0.0,0.0,0.0,0.0,0.0,0.0,-0.2228,-0.2688,-0.3149,-0.3524,-0.3006,-0.2692,0.0,0.0,0.0,0.0,0.0,0.0,0.0,0.0,0.0,0.0,0.0,0.0,0.0,0.0,0.0,0.0,0.0,0.0,0.0,0.0,0.0,0.0,0.0,0.0,0.0,0.0,0.0,0.0,0.0,0.0,0.0,0.0,0.0,0.0,0.0,0.0,0.0,0.0,0.0,0.0,0.0,0.0,0.0,0.0,0.0,0.0,0.0,0.0,0.0,0.0,0.0,0.0,0.0,0.0,0.0,0.0,0.0,0.0,0.0,0.0,0.0,0.0,0.0,0.0,0.0,0.0,0.0,0.0,0.0,0.0,0.0,0.0,0.0,0.0,0.0,0.0,0.0,0.0,0.0,0.0,0.0,0.0,0.0,0.0,0.0,0.0,0.0,0.0,0.0,0.0,0.0,0.0,0.0,0.0,0.0,0.0,0.0,0.0,0.0,0.0,0.0,0.0,0.0,0.0,0.0,0.0,0.0,0.0,-0.2218,-0.304,-0.351,-0.3534,-0.3131,-0.3081,-0.2693,0.0,0.0,0.0,0.0,0.0,0.0,0.0,0.0,0.0,0.0,0.0,0.0,0.0,0.0,0.0,0.0,0.0,0.0,0.0,0.0,0.0,0.0,0.0,0.0,0.0,0.0,0.0,0.0,0.0,0.0,0.0,0.0,0.0,0.0,0.0,0.0,0.0,0.0,0.0,0.0,0.0,0.0,0.0,0.0,0.0,0.0,0.0,0.0,0.0,0.0,0.0,0.0,0.0,0.0,0.0,0.0,0.0,0.0,0.0,0.0,0.0,0.0,0.0,0.0,0.0,0.0,0.0,0.0,0.0,0.0,0.0,0.0,0.0,0.0,0.0,0.0,0.0,0.0,0.0,0.0,0.0,0.0,0.0,0.0,0.0,0.0,0.0,0.0,0.0,0.0,0.0,0.0,0.0,0.0,0.0,0.0,0.0,0.0,0.0,0.0,0.0,0.0,0.0,0.0,0.0,0.0,0.0,0.0,0.0,-0.2495,-0.303,-0.3364,-0.3436,-0.2948,-0.2689,0.0,0.0,0.0,0.0,0.0,0.0,0.0,0.0,0.0,0.0,0.0,0.0,0.0,0.0,0.0,0.0,0.0,0.0,0.0,0.0,0.0,0.0,0.0,0.0,0.0,0.0,0.0,0.0,0.0,0.0,0.0,0.0,0.0,0.0,0.0,0.0,0.0,0.0,0.0,0.0,0.0,0.0,0.0,0.0,0.0,0.0,0.0,0.0,0.0,0.0,0.0,0.0,0.0,0.0,0.0,0.0,0.0,0.0,0.0,0.0,0.0,0.0,0.0,0.0,0.0,0.0,0.0,0.0,0.0,0.0,0.0,0.0,0.0,0.0,0.0,0.0,0.0,0.0,0.0,0.0,0.0,0.0,0.0,0.0,0.0,0.0,0.0,0.0,0.0,0.0,0.0,0.0,0.0,0.0,0.0,0.0,0.0,0.0,0.0,0.0,0.0,0.0,0.0,0.0,0.0,0.0,0.0,0.0,0.0,-0.2966,-0.3492,-0.3778,-0.3805,-0.3279,-0.2969,-0.2922,0.0,0.0,0.0,0.0,0.0,0.0,0.0,0.0,0.0,0.0,0.0,0.0,0.0,0.0,0.0,0.0,0.0,0.0,0.0,0.0,0.0,0.0,0.0,0.0,0.0,0.0,0.0,0.0,0.0,0.0,0.0,0.0,0.0,0.0,0.0,0.0,0.0,0.0,0.0,0.0,0.0,0.0,0.0,0.0,0.0,0.0,0.0,0.0,0.0,0.0,0.0,0.0,0.0,0.0,0.0,0.0,0.0,0.0,0.0,0.0,0.0,0.0,0.0,0.0,0.0,0.0,0.0,0.0,0.0,0.0,0.0,0.0,0.0,0.0,0.0,0.0,0.0,0.0,0.0,0.0,0.0,0.0,0.0,0.0,0.0,0.0,0.0,0.0,0.0,0.0,0.0,0.0,0.0,0.0,0.0,0.0,0.0,0.0,0.0,0.0,0.0,0.0,0.0,0.0,0.0,0.0,0.0,0.0,-0.4241,-0.4709,-0.4719,-0.4254,-0.3947,-0.3491,0.0,0.0,0.0,0.0,0.0,0.0,0.0,0.0,0.0,0.0,0.0,0.0,0.0,0.0,0.0,0.0,0.0,0.0,0.0,0.0,0.0,0.0,0.0,0.0,0.0,0.0,0.0,0.0,0.0,0.0,0.0,0.0,0.0,0.0,0.0,0.0,0.0,0.0,0.0,0.0,0.0,0.0,0.0,0.0,0.0,0.0,0.0,0.0,0.0,0.0,0.0,0.0,0.0,0.0,0.0,0.0,0.0,0.0,0.0,0.0,0.0,0.0,0.0,0.0,0.0,0.0,0.0,0.0,0.0,0.0,0.0,0.0,0.0,0.0,0.0,0.0,0.0,0.0,0.0,0.0,0.0,0.0,0.0,0.0,0.0,0.0,0.0,0.0,0.0,0.0,0.0,0.0,0.0,0.0,0.0,0.0,0.0,0.0,0.0,0.0,0.0,0.0,0.0,0.0,0.0,0.0,0.0,0.0,0.0,-0.4844,-0.5338,-0.5355,-0.4874,-0.426,-0.3819,0.0,0.0,0.0,0.0,0.0,0.0,0.0,0.0,0.0,0.0,0.0,0.0,0.0,0.0,0.0,0.0,0.0,0.0,0.0,0.0,0.0,0.0,0.0,0.0,0.0,0.0,0.0,0.0,0.0,0.0,0.0,0.0,0.0,0.0,0.0,0.0,0.0,0.0,0.0,0.0,0.0,0.0,0.0,0.0,0.0,0.0,0.0,0.0,0.0,0.0,0.0,0.0,0.0,0.0,0.0,0.0,0.0,0.0,0.0,0.0,0.0,0.0,0.0,0.0,0.0,0.0,0.0,0.0,0.0,0.0,0.0,0.0,0.0,0.0,0.0,0.0,0.0,0.0,0.0,0.0,0.0,0.0,0.0,0.0,0.0,0.0,0.0,0.0,0.0,0.0,0.0,0.0,0.0,0.0,0.0,0.0,0.0,0.0,0.0,0.0,0.0,0.0,0.0,0.0,0.0,0.0,0.0,0.0,-0.449,-0.5393,-0.5793,-0.5867,-0.561,-0.488,-0.4271,0.0,0.0,0.0,0.0,0.0,0.0,0.0,0.0,0.0,0.0,0.0,0.0,0.0,0.0,0.0,0.0,0.0,0.0,0.0,0.0,0.0,0.0,0.0,0.0,0.0,0.0,0.0,0.0,0.0,0.0,0.0,0.0,0.0,0.0,0.0,0.0,0.0,0.0,0.0,0.0,0.0,0.0,0.0,0.0,0.0,0.0,0.0,0.0,0.0,0.0,0.0,0.0,0.0,0.0,0.0,0.0,0.0,0.0,0.0,0.0,0.0,0.0,0.0,0.0,0.0,0.0,0.0,0.0,0.0,0.0,0.0,0.0,0.0,0.0,0.0,0.0,0.0,0.0,0.0,0.0,0.0,0.0,0.0,0.0,0.0,0.0,0.0,0.0,0.0,0.0,0.0,0.0,0.0,0.0,0.0,0.0,0.0,0.0,0.0,0.0,0.0,0.0,0.0,0.0,0.0,0.0,0.0,0.0,-0.5074,-0.5806,-0.6149,-0.6296,-0.6276,-0.5542,-0.479,0.0,0.0,0.0,0.0,0.0,0.0,0.0,0.0,0.0,0.0,0.0,0.0,0.0,0.0,0.0,0.0,0.0,0.0,0.0,0.0,0.0,0.0,0.0,0.0,0.0,0.0,0.0,0.0,0.0,0.0,0.0,0.0,0.0,0.0,0.0,0.0,0.0,0.0,0.0,0.0,0.0,0.0,0.0,0.0,0.0,0.0,0.0,0.0,0.0,0.0,0.0,0.0,0.0,0.0,0.0,0.0,0.0,0.0,0.0,0.0,0.0,0.0,0.0,0.0,0.0,0.0,0.0,0.0,0.0,0.0,0.0,0.0,0.0,0.0,0.0,0.0,0.0,0.0,0.0,0.0,0.0,0.0,0.0,0.0,0.0,0.0,0.0,0.0,0.0,0.0,0.0,0.0,0.0,0.0,0.0,0.0,0.0,0.0,0.0,0.0,0.0,0.0,0.0,0.0,0.0,0.0,0.0,0.0,-0.5197,-0.5959,-0.6166,-0.63,-0.6293,-0.5678,-0.507,0.0,0.0,0.0,0.0,0.0,0.0,0.0,0.0,0.0,0.0,0.0,0.0,0.0,0.0,0.0,0.0,0.0,0.0,0.0,0.0,0.0,0.0,0.0,0.0,0.0,0.0,0.0,0.0,0.0,0.0,0.0,0.0,0.0,0.0,0.0,0.0,0.0,0.0,0.0,0.0,0.0,0.0,0.0,0.0,0.0,0.0,0.0,0.0,-0.1045,0.0,0.0,0.0,0.0,0.0,0.0,0.0,0.0,0.0,0.0,0.0,0.0,0.0,0.0,0.0,0.0,0.0,0.0,0.0,0.0,0.0,0.0,0.0,0.0,0.0,0.0,0.0,0.0,0.0,0.0,0.0,0.0,0.0,0.0,0.0,0.0,0.0,0.0,0.0,0.0,0.0,0.0,0.0,0.0,0.0,0.0,0.0,0.0,0.0,0.0,0.0,0.0,0.0,0.0,0.0,0.0,0.0,0.0,0.0,-0.5312,-0.5969,-0.6183,-0.63,-0.6286,-0.5881,-0.5365,0.0,0.0,0.0,0.0,0.0,0.0,0.0,0.0,0.0,0.0,0.0,0.0,0.0,0.0,0.0,0.0,0.0,0.0,0.0,0.0,0.0,0.0,0.0,0.0,0.0,0.0,0.0,0.0,0.0,0.0,0.0,0.0,0.0,0.0,0.0,0.0,0.0,0.0,0.0,0.0,0.0,0.0,0.0,0.0,0.0,0.0,0.0,0.0,0.0,0.0,0.0,0.0,0.0,0.0,0.0,0.0,0.0,0.0,0.0,0.0,0.0,0.0,0.0,0.0,0.0,0.0,0.0,0.0,0.0,0.0,0.0,0.0,0.0,0.0,0.0,0.0,0.0,0.0,0.0,0.0,0.0,0.0,0.0,0.0,0.0,0.0,0.0,0.0,0.0,0.0,0.0,0.0,0.0,0.0,0.0,0.0,0.0,0.0,0.0,0.0,0.0,0.0,0.0,0.0,0.0,0.0,0.0,-0.4782,-0.5447,-0.6067,-0.6261,-0.6364,-0.6364,-0.6159,-0.5644,-0.4758,0.0,0.0,0.0,0.0,0.0,0.0,0.0,0.0,0.0,0.0,0.0,0.0,0.0,0.0,0.0,0.0,0.0,0.0,0.0,0.0,0.0,0.0,0.0,0.0,0.0,0.0,0.0,0.0,0.0,0.0,0.0,0.0,0.0,0.0,0.0,0.0,0.0,0.0,-0.1861,-0.2388,0.0,0.0,0.0,0.0,0.0,0.0,0.0,0.0,-0.0753,0.0,0.0,0.0,0.0,0.0,0.0,0.0,0.0,0.0,0.0,0.0,0.0,0.0,0.0,0.0,0.0,0.0,0.0,0.0,0.0,0.0,0.0,0.0,0.0,0.0,0.0,0.0,0.0,0.0,0.0,0.0,0.0,0.0,0.0,0.0,0.0,0.0,0.0,0.0,0.0,0.0,0.0,0.0,0.0,0.0,0.0,0.0,0.0,0.0,0.0,0.0,0.0,0.0,0.0,0.0,0.0,-0.5112,-0.5283,-0.5735,-0.6563,-0.6614,-0.6627,-0.662,-0.6405,-0.5839,-0.4891,0.0,0.0,0.0,0.0,0.0,0.0,0.0,0.0,0.0,0.0,0.0,0.0,0.0,0.0,0.0,0.0,0.0,0.0,0.0,0.0,0.0,0.0,0.0,0.0,0.0,0.0,0.0,0.0,0.0,0.0,0.0,0.0,0.0,0.0,0.0,0.0,0.0,0.0,0.0,-0.3125,-0.3327,0.0,0.0,0.0,0.0,0.0,0.0,0.0,0.0,-0.0746,0.0,0.0,0.0,0.0,0.0,0.0,0.0,0.0,0.0,0.0,0.0,0.0,0.0,0.0,0.0,0.0,0.0,0.0,0.0,0.0,0.0,0.0,0.0,0.0,0.0,0.0,0.0,0.0,0.0,0.0,0.0,0.0,0.0,0.0,0.0,0.0,0.0,0.0,0.0,0.0,0.0,0.0,0.0,0.0,0.0,0.0,0.0,0.0,0.0,0.0,0.0,0.0,0.0,0.0,0.0,-0.4934,-0.5614,-0.6224,-0.6681,-0.6702,-0.6702,-0.6695,-0.6453,-0.5876,0.0,0.0,0.0,0.0,0.0,0.0,0.0,0.0,0.0,0.0,0.0,0.0,0.0,0.0,0.0,0.0,0.0,0.0,0.0,0.0,0.0,0.0,0.0,0.0,0.0,0.0,0.0,0.0,0.0,0.0,0.0,0.0,0.0,0.0,0.0,0.0,0.0,0.0,0.0,0.0,-0.348,-0.3721,-0.4192,0.0,0.0,0.0,0.0,0.0,0.0,-0.185,-0.1639,0.0,0.0,0.0,0.0,0.0,0.0,0.0,0.0,0.0,0.0,0.0,0.0,0.0,0.0,0.0,0.0,0.0,0.0,0.0,0.0,0.0,0.0,0.0,0.0,0.0,0.0,0.0,0.0,0.0,0.0,0.0,0.0,0.0,0.0,0.0,0.0,0.0,0.0,0.0,0.0,0.0,0.0,0.0,0.0,0.0,0.0,0.0,0.0,0.0,0.0,0.0,0.0,0.0,0.0,0.0,-0.4604,-0.5794,-0.6515,-0.6773,-0.679,-0.679,-0.678,-0.6487,-0.5876,0.0,0.0,0.0,0.0,0.0,0.0,0.0,0.0,0.0,0.0,0.0,0.0,0.0,0.0,0.0,0.0,0.0,0.0,0.0,0.0,0.0,0.0,0.0,0.0,0.0,0.0,0.0,0.0,0.0,0.0,0.0,0.0,0.0,0.0,0.0,0.0,0.0,0.0,0.0,0.0,0.0,-0.41,-0.4572,-0.4208,0.0,0.0,0.0,0.0,-0.2848,-0.286,0.0,0.0,0.0,0.0,0.0,0.0,0.0,0.0,0.0,0.0,0.0,0.0,0.0,0.0,0.0,0.0,0.0,0.0,0.0,0.0,0.0,0.0,0.0,0.0,0.0,0.0,0.0,0.0,0.0,0.0,0.0,0.0,0.0,0.0,0.0,0.0,0.0,0.0,0.0,0.0,0.0,0.0,0.0,0.0,0.0,0.0,0.0,0.0,0.0,0.0,0.0,0.0,0.0,0.0,0.0,0.0,-0.4853,-0.5629,-0.637,-0.7004,-0.7045,-0.7045,-0.7038,-0.6552,-0.5837,0.0,0.0,0.0,0.0,0.0,0.0,0.0,0.0,0.0,0.0,0.0,0.0,0.0,0.0,0.0,0.0,0.0,0.0,0.0,0.0,0.0,0.0,0.0,0.0,0.0,0.0,0.0,0.0,0.0,0.0,0.0,0.0,0.0,0.0,0.0,0.0,0.0,0.0,0.0,0.0,0.0,-0.4436,-0.4508,-0.4206,-0.408,0.0,0.0,-0.3337,-0.3674,-0.376,0.0,0.0,0.0,0.0,0.0,0.0,0.0,0.0,0.0,0.0,0.0,0.0,0.0,0.0,0.0,0.0,0.0,0.0,0.0,0.0,0.0,0.0,0.0,0.0,0.0,0.0,0.0,0.0,0.0,0.0,0.0,0.0,0.0,0.0,0.0,0.0,0.0,0.0,0.0,0.0,0.0,0.0,0.0,0.0,0.0,0.0,0.0,0.0,0.0,0.0,0.0,0.0,0.0,0.0,0.0,-0.4317,-0.4901,-0.6027,-0.6771,-0.7082,-0.7095,-0.7095,-0.7095,-0.6647,-0.5917,0.0,0.0,0.0,0.0,0.0,0.0,0.0,0.0,0.0,0.0,0.0,0.0,0.0,0.0,0.0,0.0,0.0,0.0,0.0,0.0,0.0,0.0,0.0,0.0,0.0,0.0,0.0,0.0,0.0,0.0,0.0,0.0,0.0,0.0,0.0,0.0,0.0,0.0,0.0,0.0,0.0,0.0,-0.4969,-0.4721,0.0,0.0,0.0,-0.4198,-0.4351,0.0,0.0,0.0,0.0,0.0,0.0,0.0,0.0,0.0,0.0,0.0,0.0,0.0,0.0,0.0,0.0,0.0,0.0,0.0,0.0,0.0,0.0,0.0,0.0,0.0,0.0,0.0,0.0,0.0,0.0,0.0,0.0,0.0,0.0,0.0,0.0,0.0,0.0,0.0,0.0,0.0,0.0,0.0,0.0,0.0,0.0,0.0,0.0,0.0,0.0,0.0,0.0,0.0,0.0,0.0,0.0,0.0,-0.4908,-0.6343,-0.7095,-0.7095,-0.7095,-0.7095,-0.7088,-0.6742,0.0,0.0,0.0,0.0,0.0,0.0,0.0,0.0,0.0,0.0,0.0,0.0,0.0,0.0,0.0,0.0,0.0,0.0,0.0,0.0,0.0,0.0,0.0,0.0,0.0,0.0,0.0,-0.1525,0.0,0.0,0.0,0.0,0.0,0.0,0.0,0.0,0.0,0.0,0.0,0.0,0.0,0.0,-0.4796,-0.5272,-0.5148,-0.5148,0.0,0.0,-0.5087,-0.5084,-0.5332,-0.5201,0.0,0.0,0.0,0.0,0.0,0.0,0.0,0.0,0.0,0.0,0.0,0.0,0.0,0.0,0.0,0.0,0.0,0.0,0.0,0.0,0.0,0.0,0.0,0.0,0.0,0.0,0.0,0.0,0.0,0.0,0.0,0.0,0.0,0.0,0.0,0.0,0.0,0.0,0.0,0.0,0.0,0.0,0.0,0.0,0.0,0.0,0.0,0.0,0.0,0.0,0.0,0.0,0.0,0.0,-0.4641,-0.4924,-0.6343,-0.7098,-0.7095,-0.7095,-0.7095,-0.7088,-0.6844,-0.6061,0.0,0.0,0.0,0.0,0.0,0.0,0.0,0.0,0.0,0.0,0.0,0.0,0.0,0.0,0.0,0.0,0.0,0.0,0.0,0.0,0.0,0.0,0.0,0.0,0.0,0.0,0.0,0.0,0.0,0.0,0.0,0.0,0.0,0.0,0.0,0.0,0.0,0.0,0.0,0.0,0.0,-0.4643,-0.5052,-0.5254,-0.5521,0.0,0.0,-0.5719,-0.6129,-0.6429,-0.6061,-0.4473,0.0,0.0,0.0,0.0,0.0,0.0,0.0,0.0,0.0,0.0,0.0,0.0,0.0,0.0,0.0,0.0,0.0,0.0,0.0,0.0,0.0,0.0,0.0,0.0,0.0,0.0,0.0,0.0,0.0,0.0,0.0,0.0,0.0,0.0,0.0,0.0,0.0,0.0,0.0,0.0,0.0,0.0,0.0,0.0,0.0,0.0,0.0,0.0,0.0,0.0,0.0,0.0,0.0,-0.4641,-0.4901,-0.6343,-0.7139,-0.7278,-0.7282,-0.7282,-0.7282,-0.7078,-0.643,0.0,0.0,0.0,0.0,0.0,0.0,0.0,0.0,0.0,0.0,0.0,0.0,0.0,0.0,0.0,0.0,0.0,0.0,0.0,0.0,0.0,0.0,0.0,0.0,0.0,0.0,0.0,0.0,-0.3103,-0.3204,-0.2751,0.0,0.0,0.0,0.0,0.0,0.0,0.0,0.0,0.0,0.0,-0.5321,-0.5762,-0.5914,0.0,0.0,-0.6132,-0.6102,-0.6272,-0.6122,-0.5735,-0.4891,-0.4432,0.0,0.0,0.0,0.0,0.0,0.0,0.0,0.0,0.0,0.0,0.0,0.0,0.0,0.0,0.0,0.0,0.0,0.0,0.0,0.0,0.0,0.0,0.0,0.0,0.0,0.0,0.0,0.0,0.0,0.0,0.0,0.0,0.0,0.0,0.0,0.0,0.0,0.0,0.0,0.0,0.0,0.0,0.0,0.0,0.0,0.0,0.0,0.0,0.0,0.0,0.0,0.0,-0.4704,-0.5053,-0.6522,-0.7329,-0.7438,-0.7441,-0.7438,-0.7484,-0.7336,-0.681,0.0,0.0,0.0,0.0,0.0,0.0,0.0,0.0,0.0,0.0,0.0,0.0,0.0,0.0,0.0,0.0,0.0,0.0,0.0,0.0,0.0,0.0,0.0,0.0,0.0,0.0,0.0,0.0,-0.3644,-0.3467,-0.2778,0.0,0.0,0.0,0.0,0.0,0.0,0.0,0.0,0.0,0.0,-0.58,-0.6242,-0.6221,-0.6197,-0.6257,-0.6149,-0.603,-0.6027,-0.5914,-0.5627,-0.5113,0.0,0.0,0.0,0.0,0.0,0.0,0.0,0.0,0.0,0.0,0.0,0.0,0.0,0.0,0.0,0.0,0.0,0.0,0.0,0.0,0.0,0.0,0.0,0.0,0.0,0.0,0.0,-0.2195,0.0,0.0,-0.2648,0.0,0.0,0.0,0.0,0.0,0.0,0.0,0.0,0.0,0.0,0.0,0.0,0.0,0.0,0.0,0.0,0.0,0.0,0.0,0.0,0.0,0.0,-0.4931,-0.5395,-0.6817,-0.7587,-0.7594,-0.7597,-0.7594,-0.7597,-0.759,-0.7166,-0.63,0.0,0.0,0.0,0.0,0.0,0.0,0.0,0.0,0.0,0.0,0.0,0.0,0.0,0.0,0.0,0.0,0.0,0.0,0.0,0.0,0.0,0.0,0.0,0.0,0.0,0.0,-0.3108,-0.3407,-0.3353,0.0,0.0,0.0,0.0,0.0,0.0,0.0,0.0,0.0,0.0,-0.547,-0.5911,-0.6259,-0.6013,-0.5861,-0.5854,-0.5638,-0.5443,-0.5474,-0.5907,-0.5986,0.0,0.0,0.0,0.0,0.0,0.0,0.0,0.0,0.0,0.0,0.0,0.0,0.0,0.0,0.0,0.0,0.0,0.0,0.0,0.0,0.0,0.0,0.0,0.0,0.0,0.0,0.0,-0.2933,-0.2808,0.0,0.0,0.0,0.0,0.0,0.0,0.0,0.0,0.0,0.0,0.0,-0.4558,-0.5074,0.0,0.0,0.0,0.0,0.0,0.0,0.0,0.0,0.0,0.0,0.0,0.0,-0.5093,-0.544,-0.6841,-0.7645,-0.7736,-0.7743,-0.774,-0.774,-0.774,-0.7275,-0.633,0.0,0.0,0.0,0.0,0.0,0.0,0.0,0.0,0.0,0.0,0.0,0.0,0.0,0.0,0.0,0.0,0.0,0.0,0.0,0.0,0.0,0.0,0.0,0.0,0.0,-0.2922,0.0,0.0,0.0,0.0,0.0,0.0,0.0,0.0,0.0,0.0,0.0,-0.482,-0.5491,-0.5881,-0.6252,-0.6512,-0.6464,-0.6468,0.0,0.0,0.0,0.0,0.0,0.0,0.0,0.0,0.0,0.0,0.0,0.0,0.0,0.0,-0.5949,-0.4762,-0.446,-0.4423,-0.4521,0.0,0.0,0.0,0.0,0.0,0.0,0.0,0.0,0.0,0.0,0.0,0.0,0.0,0.0,-0.3918,0.0,-0.3815,0.0,0.0,0.0,0.0,0.0,0.0,0.0,0.0,-0.5206,-0.5645,-0.5637,-0.6023,-0.6003,0.0,-0.5464,-0.5113,0.0,0.0,0.0,0.0,0.0,0.0,0.0,0.0,-0.5276,-0.5808,-0.7071,-0.7801,-0.7882,-0.7889,-0.7892,-0.7892,-0.7889,-0.7546,-0.6863,-0.6359,-0.5844,0.0,0.0,0.0,0.0,0.0,0.0,0.0,0.0,0.0,0.0,0.0,0.0,0.0,0.0,0.0,0.0,0.0,0.0,0.0,0.0,0.0,0.0,0.0,-0.3457,0.0,0.0,0.0,0.0,0.0,0.0,0.0,0.0,0.0,-0.4173,-0.4831,-0.5552,-0.6047,-0.6376,-0.66,-0.6688,0.0,0.0,0.0,0.0,0.0,0.0,0.0,-0.5698,-0.5989,-0.561,-0.5355,-0.5592,-0.6254,-0.6558,-0.6064,0.0,0.0,-0.5818,-0.5532,-0.5494,-0.5561,-0.4949,-0.4404,-0.4522,-0.4143,-0.3778,0.0,0.0,0.0,0.0,0.0,0.0,0.0,0.0,-0.4955,-0.4958,0.0,-0.5206,0.0,0.0,0.0,0.0,0.0,-0.4987,0.0,0.0,-0.7191,-0.7677,-0.7402,-0.7395,-0.7409,-0.7395,-0.6951,-0.6485,-0.603,-0.5126,0.0,0.0,0.0,0.0,0.0,0.0,-0.546,-0.6508,-0.7456,-0.7985,-0.7985,-0.7985,-0.7988,-0.7985,-0.7985,-0.7911,-0.7794,-0.7119,-0.6597,-0.6303,-0.4781,0.0,0.0,0.0,0.0,0.0,0.0,0.0,0.0,0.0,0.0,0.0,0.0,0.0,0.0,0.0,0.0,0.0,0.0,0.0,0.0,-0.4077,0.0,0.0,0.0,0.0,0.0,0.0,0.0,0.0,0.0,0.0,-0.5935,-0.587,-0.6112,-0.6678,0.0,0.0,0.0,0.0,-0.6614,-0.6402,-0.6091,-0.5833,-0.5722,-0.617,-0.6515,-0.6549,0.0,0.0,-0.6848,-0.7231,-0.7165,-0.5693,-0.615,-0.6783,-0.725,-0.6764,-0.646,-0.6714,-0.5892,-0.5408,-0.5537,-0.5134,-0.4944,-0.572,0.0,0.0,0.0,0.0,-0.5138,-0.5603,-0.6306,-0.6237,-0.6061,-0.5891,-0.5978,0.0,0.0,0.0,0.0,0.0,0.0,-0.5728,-0.6248,-0.6805,-0.7252,-0.7529,-0.7536,-0.7533,-0.7529,-0.7583,-0.7601,-0.7569,-0.7483,-0.6021,-0.3353,0.0,0.0,0.0,0.0,-0.6296,-0.68,-0.7574,-0.7988,-0.7988,-0.7988,-0.7988,-0.7988,-0.7988,-0.7968,-0.7974,-0.7722,-0.7319,-0.6603,-0.6057,0.0,0.0,0.0,0.0,0.0,0.0,0.0,0.0,0.0,0.0,0.0,0.0,0.0,0.0,0.0,0.0,0.0,0.0,0.0,-0.2956,-0.388,-0.4492,0.0,0.0,0.0,0.0,0.0,0.0,0.0,0.0,0.0,-0.7769,-0.8299,-0.8413,0.0,0.0,-0.7612,-0.6546,-0.6658,-0.6909,-0.7078,-0.702,0.0,-0.7149,-0.6868,-0.6783,-0.7204,-0.7631,-0.7889,-0.7831,-0.8048,-0.811,-0.7632,-0.7258,-0.7081,-0.7152,-0.6491,-0.5947,-0.5922,-0.5326,-0.4795,-0.486,-0.4396,-0.393,-0.7193,-0.6407,-0.5823,-0.582,-0.62,-0.6203,-0.6647,-0.7366,-0.7268,-0.7065,-0.6846,-0.6915,-0.6369,-0.5315,-0.5176,0.0,0.0,0.0,-0.6339,-0.6973,-0.7149,-0.747,-0.7904,-0.7914,-0.7914,-0.7911,-0.7982,-0.8036,-0.8101,-0.8044,-0.684,-0.4663,0.0,0.0,-0.4832,-0.5937,-0.6734,-0.7183,-0.7705,-0.7988,-0.7988,-0.7988,-0.7988,-0.7988,-0.7988,-0.7988,-0.7988,-0.7988,-0.7742,-0.7255,-0.6803,-0.6207,0.0,0.0,0.0,0.0,0.0,0.0,0.0,0.0,0.0,0.0,0.0,-0.2601,-0.1819,0.0,0.0,0.0,-0.426,-0.4565,-0.4604,-0.5483,0.0,0.0,0.0,0.0,0.0,0.0,0.0,-0.8724,-0.8877,-0.9004,-0.9498,-0.9904,-0.9531,-0.7867,-0.7912,-0.7729,-0.6857,0.0,-0.7322,-0.7444,-0.7508,-0.7522,-0.7692,-0.74,-0.7309,-0.7784,-0.8055,-0.8235,-0.8336,-0.8428,-0.8374,-0.8062,-0.7586,-0.7006,-0.6318,-0.5945,-0.5774,-0.5737,-0.5074,-0.457,-0.4618,-0.394,-0.3418,-0.8535,-0.8419,-0.705,-0.6746,-0.7176,-0.7173,-0.7479,-0.7982,-0.7985,-0.784,-0.7662,-0.7874,-0.7304,-0.6134,-0.5794,0.0,-0.6814,-0.6953,-0.7331,-0.7985,-0.7988,-0.8137,-0.8382,-0.8379,-0.8382,-0.8372,-0.8144,-0.8058,-0.8001,-0.7528,-0.704,-0.6671,-0.6871,-0.6762,-0.6359,-0.6484,-0.6895,-0.7607,-0.7882,-0.7978,-0.7988,-0.7988,-0.7988,-0.7988,-0.7988,-0.7988,-0.7988,-0.7988,-0.7988,-0.7961,-0.7251,-0.6732,-0.6576,0.0,0.0,0.0,0.0,0.0,0.0,0.0,0.0,0.0,0.0,0.0,0.0,0.0,0.0,-0.5031,-0.6689,0.0,-0.7392,-0.7897,0.0,0.0,0.0,-0.6875,-0.7081,-0.7826,-0.8665,-0.9648,0.0,0.0,-1.0888,-1.0721,-0.9791,-0.7784,-0.7619,-0.7629,-0.7422,-0.7587,-0.7763,-0.7634,-0.7628,-0.7638,-0.7678,-0.7726,-0.7885,-0.8201,-0.8449,-0.8476,-0.852,-0.853,-0.821,-0.7693,-0.7414,-0.6884,-0.5231,-0.5711,-0.6028,-0.5769,-0.512,-0.4585,-0.4441,-0.3915,-0.3451,-0.8535,-0.8452,-0.8099,-0.7974,-0.7991,-0.7826,-0.7857,-0.7985,-0.7988,-0.7951,-0.7891,-0.7958,-0.7813,-0.751,-0.7405,-0.7519,-0.7723,-0.7709,-0.7823,-0.7985,-0.7988,-0.8038,-0.8088,-0.8084,-0.8088,-0.8134,-0.821,-0.8308,-0.8326,-0.8376,-0.8189,-0.7791,-0.7873,-0.7351,-0.6358,-0.69,-0.7356,-0.7753,-0.7831,-0.7874,-0.7985,-0.7988,-0.7988,-0.7988,-0.7988,-0.7988,-0.7988,-0.7988,-0.7988,-0.7985,-0.7789,-0.7557,-0.7326,-0.5732,0.0,0.0,0.0,0.0,0.0,0.0,0.0,0.0,0.0,-0.367,-0.2408,0.0,-0.4234,0.0,-0.6638,-0.7222,-0.6562,-0.6809,0.0,0.0,-0.7352,-0.7546,-1.0246,-0.9282,-0.9123,-1.1059,-1.0948,-1.0682,-1.0496,-1.044,-0.9923,-0.8672,-0.8697,-0.8502,-0.7382,-0.755,-0.7801,-0.7777,-0.7855,-0.7887,-0.7877,-0.7907,-0.8089,-0.8381,-0.8462,-0.8557,-0.8791,-0.8828,-0.8722,-0.8504,-0.7947,-0.7396,-0.6947,-0.6626,-0.5964,-0.5306,-0.493,-0.4523,-0.3974,-0.3653,-0.3548,-0.8686,-0.8679,-0.8611,-0.8537,-0.8455,-0.8299,-0.8235,-0.8238,-0.8235,-0.8235,-0.8238,-0.8235,-0.8235,-0.8231,-0.817,-0.8143,-0.814,-0.8143,-0.8143,-0.8147,-0.8208,-0.8289,-0.8394,-0.8394,-0.8398,-0.8394,-0.8547,-0.8544,-0.8489,-0.8588,-0.8549,-0.837,-0.8317,-0.7938,-0.7235,-0.7366,-0.7489,-0.7516,-0.7777,-0.8018,-0.8228,-0.8238,-0.8079,-0.776,-0.7887,-0.7833,-0.7513,-0.7688,-0.7719,-0.7458,-0.7441,-0.737,-0.719,-0.6132,-0.5566,0.0,0.0,0.0,0.0,0.0,0.0,0.0,0.0,0.0,0.0,0.0,-0.5082,-0.5569,-0.7457,-0.8313,-0.7445,-0.805,-0.8801,-0.9374,-0.8846,-0.9079,-1.0731,-0.9829,-0.9678,-1.1005,-1.0463,-0.9988,-0.9988,-0.9786,-0.9445,-0.8859,-0.8952,-0.8716,-0.7922,-0.7904,-0.8007,-0.7916,-0.7934,-0.7988,-0.7988,-0.8153,-0.8292,-0.8452,-0.8598,-0.8747,-0.8854,-0.8937,-0.8937,-0.8881,-0.8491,-0.8039,-0.7703,-0.7598,-0.7043,-0.5922,-0.5501,-0.4991,-0.3858,-0.3587,-0.3587,-0.8937,-0.8868,-0.8798,-0.874,-0.873,-0.8598,-0.852,-0.8535,-0.8535,-0.8535,-0.8535,-0.8535,-0.8535,-0.8476,-0.8353,-0.8296,-0.8296,-0.8347,-0.8299,-0.8354,-0.8425,-0.8643,-0.886,-0.886,-0.886,-0.886,-0.886,-0.8752,-0.8535,-0.8535,-0.8472,-0.8455,-0.8504,-0.8364,-0.8177,-0.7831,-0.7516,-0.7193,-0.7678,-0.8109,-0.8357,-0.833,-0.8001,-0.7443,-0.7756,-0.7631,-0.7018,-0.739,-0.736,-0.6854,-0.6817,-0.6824,-0.6831,-0.6515,-0.6187,0.0,-0.5556,0.0,0.0,0.0,0.0,0.0,0.0,0.0,0.0,-0.6321,-0.6388,-0.6058,-0.8526,-0.9782,-0.8954,-1.0057,-1.0657,-1.0163,-1.063,-1.0712,-1.0031,-0.9983,-1.0167,-1.0364,-0.9567,-0.9126,-0.9612,-0.924,-0.9004,-0.8969,-0.9038,-0.8919,-0.8503,-0.8379,-0.8269,-0.8038,-0.8005,-0.8039,-0.8106,-0.8303,-0.8476,-0.853,-0.8706,-0.8858,-0.8933,-0.8937,-0.8937,-0.8937,-0.8881,-0.8602,-0.7873,-0.8377,-0.8269,-0.6763,-0.6478,-0.5866,-0.4311,-0.3699,-0.3587,-0.8937,-0.8937,-0.8854,-0.8841,-0.8838,-0.8811,-0.871,-0.8535,-0.8535,-0.8535,-0.8535,-0.8535,-0.8535,-0.8479,-0.8455,-0.8442,-0.8494,-0.8494,-0.8442,-0.8442,-0.8469,-0.8535,-0.8587,-0.8587,-0.8587,-0.8587,-0.8587,-0.8535,-0.8535,-0.8535,-0.8421,-0.8364,-0.8361,-0.8113,-0.7756,0.0,0.0,0.0,-0.7682,-0.7712,-0.7753,-0.7522,-0.7329,-0.7152,-0.7509,0.0,-0.7485,-0.7556,-0.7546,-0.7438,-0.7431,0.0,0.0,0.0,0.0,0.0,0.0,0.0,0.0,0.0,0.0,0.0,-0.6349,-0.6355,-0.6222,-0.7181,-0.7644,-0.7243,-0.8404,-0.9213,-0.934,-0.9751,-1.0121,-1.0454,-1.046,-1.0462,-1.0493,-1.0393,-1.0364,-1.0364,-1.0019,-0.9826,-0.9892,-0.9942,-0.9831,-0.9388,-0.9705,-0.9583,-0.8744,-0.8521,-0.829,-0.8048,-0.8147,-0.8225,-0.8228,-0.8377,-0.8537,-0.8638,-0.8699,-0.875,-0.891,-0.8937,-0.8937,-0.8937,-0.8937,-0.8881,-0.8657,-0.8826,-0.8602,-0.7537,-0.7371,-0.6816,-0.5039,-0.4091,-0.3587,-0.8937,0.0,-0.8937,-0.8937,0.0,-0.8937,-0.8797,-0.871,-0.8706,-0.8706,-0.8706,-0.871,-0.8706,-0.8703,-0.8628,-0.8594,-0.8598,-0.8594,-0.8594,-0.8598,-0.8672,-0.871,-0.871,-0.871,-0.871,-0.871,-0.8706,-0.8706,-0.8706,-0.871,-0.8669,-0.8601,-0.8601,-0.8486,-0.8272,-0.8356,-0.837,-0.8147,-0.8072,-0.8109,-0.8194,-0.8059,-0.78,-0.7452,-0.7838,0.0,0.0,0.0,0.0,0.0,0.0,0.0,0.0,0.0,0.0,-0.721,-0.6711,-0.6455,-0.6566,-0.6573,-0.6869,-0.764,-0.8064,-0.8155,-0.7654,-0.8466,-0.8887,-0.8648,-0.9186,-0.9619,-0.9808,-0.9952,-1.0112,-1.0364,-1.0441,-1.0489,-1.0634,-1.0709,-1.0698,-1.0648,-1.0344,-1.0091,-1.0095,-0.9906,-0.9709,-0.9459,-0.958,-0.9563,-0.895,-0.8653,-0.8452,-0.8207,-0.8279,-0.8426,-0.8439,-0.8499,-0.8615,-0.8699,-0.8774,-0.8849,-0.8923,-0.8937,-0.8937,-0.8937,-0.8937,-0.8937,-0.8937,-0.8937,-0.8774,-0.8322,-0.7873,-0.7371,-0.6316,-0.5204,-0.4258,-0.8937,-0.8937,-0.8937,-0.8937,-0.8937,-0.8937,-0.8937,-0.8937,0.0,0.0,0.0,-0.8937,-0.8937,-0.8871,-0.8753,-0.875,-0.875,-0.875,-0.875,-0.8757,-0.8824,-0.8937,-0.8937,-0.8937,-0.8937,-0.8937,-0.8937,-0.8937,-0.8937,-0.8937,-0.8937,-0.8937,-0.8937,-0.8937,-0.8937,-0.8937,-0.8815,-0.857,-0.8459,-0.8523,-0.8713,-0.8672,-0.8352,-0.7787,-0.8184,-0.8116,-0.7522,-0.7796,-0.7762,-0.7287,-0.7257,-0.7264,-0.7339,-0.7294,-0.7526,-0.8015,-0.8069,-0.8177,-0.8296,-0.8309,-0.8526,-0.8927,-0.9448,-0.9593,-0.924,-0.9613,-0.9847,-0.9851,-1.0088,-1.0209,-1.0265,-1.0241,-1.0306,-1.031,-1.0439,-1.0575,-1.0676,-1.0798,-1.0919,-1.0936,-1.0608,-1.0369,-1.0356,-1.008,-0.9684,-0.9639,-0.9678,-0.9346,-0.8941,-0.8713,-0.8559,-0.8368,-0.8428,-0.8523,-0.8543,-0.8648,-0.8743,-0.8764,-0.8804,-0.8878,-0.8937,-0.8937,-0.8937,-0.8937,-0.8937,-0.8937,-0.8937,-0.8937,-0.8937,-0.8881,-0.8322,-0.7814,-0.7706,-0.6374,-0.5152,-0.8937,-0.8937,-0.8937,-0.8937,-0.8937,-0.8937,-0.8937,-0.8937,-0.8937,-0.8937,-0.8937,-0.8937,-0.8937,-0.8881,-0.8861,-0.8851,-0.8851,-0.8851,-0.8851,0.0,-0.8871,-0.8937,-0.8937,-0.8937,-0.8937,-0.8937,-0.8937,-0.8937,-0.8937,-0.8937,-0.8937,-0.8937,-0.8937,-0.8937,-0.8937,-0.8937,-0.8861,-0.8862,-0.8312,-0.8073,-0.811,-0.7919,-0.7743,-0.7655,-0.7897,-0.8012,-0.7957,-0.7961,-0.7951,-0.787,-0.7864,-0.797,-0.8102,-0.8106,-0.8204,-0.8401,-0.8418,-0.8431,-0.8452,-0.8452,-0.8674,-0.9094,-0.9341,-0.9514,-0.9694,-0.9988,-1.0164,-1.0168,-1.0306,-1.04,-1.0404,-1.0521,-1.0595,-1.0595,-1.0531,-1.056,-1.0822,-1.0796,-1.0806,-1.1019,-1.0936,-1.0897,-1.088,-1.1098,-1.0977,-1.0724,-1.0427,-1.0062,-0.9062,-0.86,-0.8514,-0.8521,-0.8581,-0.8665,-0.8693,-0.8804,-0.8882,-0.8851,-0.8916,-0.8937,-0.8937,-0.8937,-0.8937,-0.8937,-0.8937,-0.8937,-0.8937,-0.8937,-0.8937,-0.8881,-0.8712,-0.8657,-0.8611,-0.7226,-0.583,-0.8937,-0.8937,-0.8937,-0.8937,-0.8937,-0.8937,-0.8937,-0.8937,-0.8937,-0.8937,-0.8937,-0.8937,-0.8937,-0.8937,-0.8937,-0.8937,-0.8937,-0.8937,-0.8937,-0.8937,-0.8937,-0.8937,-0.8937,-0.8937,-0.8937,-0.8937,-0.8937,-0.8937,-0.8937,-0.8937,-0.8937,-0.8937,-0.8937,-0.8937,-0.8937,-0.8937,-0.8937,-0.8878,-0.8615,-0.8477,-0.847,-0.8394,-0.8326,-0.8326,-0.841,-0.8477,-0.8477,-0.8477,-0.8474,-0.8474,-0.8477,-0.8507,-0.8628,-0.8635,-0.8662,-0.8726,-0.873,-0.873,-0.873,-0.8888,-0.9085,-0.9265,-0.9662,-0.9921,-1.0038,-1.0184,-1.0287,-1.0452,-1.053,-1.0574,-1.0574,-1.0647,-1.0692,-1.0692,-1.0619,-1.0737,-1.1162,-1.1209,-1.1305,-1.1625,-1.1518,-1.1358,-1.1358,-1.1222,-1.1112,-1.0791,-1.0761,-1.0327,-0.9439,-0.9258,-0.9069,-0.8745,-0.8733,-0.8821,-0.878,-0.8831,-0.8878,-0.8937,-0.8937,-0.8937,-0.8937,-0.8937,-0.8937,-0.8937,-0.8937,-0.8937,-0.8937,-0.8937,-0.8937,-0.8937,-0.8937,-0.8957,-0.8802,-0.7692,-0.6066,-0.8937,-0.8937,-0.8937,-0.8937,-0.8937,-0.8937,-0.8937,-0.8937,-0.8937,-0.8937,-0.8937,-0.8937,-0.8937,-0.8937,-0.8937,-0.8937,-0.8937,-0.8937,-0.8937,-0.8937,-0.8937,-0.8937,-0.8937,-0.8937,-0.8937,-0.8937,-0.8937,-0.8937,-0.8937,-0.8937,-0.8937,-0.8937,-0.8937,-0.8937,-0.8937,-0.8937,-0.8937,-0.8937,-0.8937,-0.8937,-0.8937,-0.8937,-0.8937,-0.8937,-0.8933,-0.8937,-0.8937,-0.8937,-0.8937,-0.8937,-0.8937,-0.8937,-0.8937,-0.8937,-0.8937,-0.8937,-0.8937,-0.8937,-0.8937,-0.9106,-0.9327,-0.9434,-0.9816,-1.0147,-1.0312,-1.0308,-1.0417,-1.0637,-1.068,-1.0684,-1.0684,-1.0688,-1.0692,-1.0692,-1.0692,-1.0958,-1.1459,-1.1568,-1.1787,-1.2223,-1.2055,-1.1773,-1.1732,-1.1404,-1.1122,-1.1008,-1.0911,-1.0637,-1.0143,-0.9978,-0.9698,-0.9207,-0.8917,-0.8923,-0.8937,-0.8937,-0.8937,-0.8937,-0.8937,-0.8937,-0.8937,-0.8937,-0.8937,-0.8937,-0.8937,-0.8937,-0.8885,-0.8919,-0.8991,-0.9001,-0.9039,-0.8977,-0.8786,-0.7599,-0.6078,-0.8937,-0.8937,-0.8937,-0.8937,-0.8937,-0.8937,-0.8937,-0.8937,-0.8937,-0.8937,-0.8937,-0.8937,-0.8937,-0.8937,-0.8937,-0.8937,-0.8937,-0.8937,-0.8937,-0.8937,-0.8937,-0.8937,-0.8937,-0.8937,-0.8937,-0.8937,-0.8937,-0.8937,-0.8937,-0.8937,-0.8937,-0.8937,-0.8937,-0.8937,-0.8937,-0.8937,-0.8937,-0.8937,-0.8937,-0.8937,-0.8937,-0.8937,-0.8937,-0.8937,-0.8937,-0.8937,-0.8937,-0.8937,-0.8937,-0.8937,-0.8937,-0.8937,-0.8937,-0.8937,-0.8937,-0.8937,-0.8937,-0.8937,-0.8937,-0.8937,-0.9103,-0.9379,-0.9489,-0.9765,-1.0257,-1.0308,-1.0417,-1.0637,-1.0692,-1.0692,-1.0692,-1.0692,-1.0692,-1.0692,-1.0692,-1.0966,-1.1459,-1.1568,-1.1787,-1.2327,-1.2332,-1.2332,-1.2219,-1.2164,-1.2005,-1.1564,-1.1514,-1.1236,-1.0637,-1.0527,-1.0253,-0.968,-0.9265,-0.8933,-0.8937,-0.8937,-0.8937,-0.8937,-0.8937,-0.8937,-0.8937,-0.8937,-0.8937,-0.8937,-0.8957,-0.896,-0.8984,-0.9035,-0.9187,-0.9154,-0.9168,-0.9109,-0.8256,-0.7168,-0.6001,-0.8937,-0.8937,-0.8937,-0.8937,-0.8937,-0.8937,-0.8937,-0.8937,-0.8937,-0.8937,-0.8937,-0.8937,-0.8937,-0.8937,-0.8937,-0.8937,-0.8937,-0.8937,-0.8937,-0.8937,-0.8937,-0.8937,-0.8937,-0.8937,-0.8937,-0.8937,-0.8937,-0.8937,-0.8937,-0.8937,-0.8937,-0.8937,-0.8937,-0.8937,-0.8937,-0.8937,-0.8937,-0.8937,-0.8937,-0.8937,-0.8937,-0.8937,-0.8937,-0.8937,-0.8937,-0.8937,-0.8937,-0.8937,-0.8937,-0.8937,-0.8937,-0.8937,-0.8937,-0.8937,-0.8937,-0.8937,-0.8937,-0.8937,-0.8937,-0.9047,-0.9268,-0.9379,-0.9761,-1.0036,-1.0257,-1.0417,-1.0582,-1.0692,-1.0692,-1.0692,-1.0692,-1.0692,-1.0692,-1.0692,-1.0692,-1.0966,-1.1514,-1.1568,-1.1787,-1.2273,-1.2382,-1.2382,-1.2382,-1.2382,-1.2332,-1.2114,-1.2055,-1.1678,-1.0911,-1.0692,-1.0308,-0.9485,-0.9047,-0.8937,-0.8937,-0.8937,-0.8937,-0.8937,-0.8937,-0.8937,-0.8937,-0.8937,-0.8937,-0.8937,-0.9005,-0.9052,-0.9076,-0.9184,-0.9347,-0.932,-0.9405,-0.9399,-0.9045,-0.7674,-0.663,-0.8937,-0.8937,-0.8937,-0.8937,-0.8937,-0.8937,-0.8937,-0.8937,-0.8937,-0.8937,-0.8937,-0.8937,-0.8937,-0.8937,-0.8937,-0.8937,-0.8937,-0.8937,-0.8937,-0.8937,-0.8937,-0.8937,-0.8937,-0.8937,-0.8937,-0.8937,-0.8937,-0.8937,-0.8937,-0.8937,-0.8937,-0.8937,-0.8937,-0.8937,-0.8937,-0.8937,-0.8937,-0.8937,-0.8937,-0.8937,-0.8937,-0.8937,-0.8937,-0.8937,-0.8937,-0.8937,-0.8937,-0.8937,-0.8937,-0.8937,-0.8937,-0.8937,-0.8937,-0.8937,-0.8937,-0.8937,-0.8937,-0.894,-0.9051,-0.9268,-0.9489,-0.9655,-1.0095,-1.0308,-1.0421,-1.0582,-1.0692,-1.0692,-1.0692,-1.0692,-1.0692,-1.0692,-1.0692,-1.0692,-1.0692,-1.0911,-1.14,-1.1514,-1.1787,-1.2219,-1.2278,-1.2273,-1.2332,-1.2332,-1.2332,-1.2169,-1.211,-1.1837,-1.0962,-1.0692,-1.0308,-0.9323,-0.9158,-0.9103,-0.8937,-0.8937,-0.8937,-0.8937,-0.8937,-0.8937,-0.8937,-0.8937,-0.8937,-0.895,-0.9072,-0.9207,-0.921,-0.9323,-0.929,-0.9216,-0.9285,-0.9237,-0.8585,-0.7572,-0.6933,-0.8937,-0.8937,-0.8937,-0.8937,-0.8937,-0.8937,-0.8937,-0.8937,-0.8937,-0.8937,-0.8937,-0.8937,-0.8937,-0.8937,-0.8937,-0.8937,-0.8937,-0.8937,-0.8937,-0.8937,-0.8937,-0.8937,-0.8937,-0.8937,-0.8937,-0.8937,-0.8937,-0.8937,-0.8937,-0.8937,-0.8937,-0.8937,-0.8937,-0.8937,-0.8937,-0.8937,-0.8937,-0.8937,-0.8937,-0.8937,-0.8937,-0.8937,-0.8937,-0.8937,-0.8937,-0.8937,-0.8937,-0.8937,-0.8937,-0.8937,-0.8937,-0.8937,-0.8937,-0.8937,-0.8937,-0.8937,-0.8937,-0.9047,-0.9268,-0.9379,-0.9655,-1.0091,-1.0257,-1.0421,-1.0637,-1.0692,-1.0692,-1.0692,-1.0692,-1.0692,-1.0692,-1.0692,-1.0692,-1.0692,-1.0692,-1.0857,-1.1131,-1.1404,-1.1673,-1.1951,-1.2005,-1.2001,-1.2005,-1.2278,-1.206,-1.1787,-1.1623,-1.1345,-1.0802,-1.0637,-1.0308,-0.9871,-0.9596,-0.9541,-0.9047,-0.8937,-0.8937,-0.8937,-0.8937,-0.8937,-0.8937,-0.8937,-0.8937,-0.8974,-0.9103,-0.9241,-0.9272,-0.9187,-0.9057,-0.8973,-0.9068,-0.8869,-0.7878,-0.7235,-0.6582,-0.8937,-0.8937,-0.8937,-0.8937,-0.8937,-0.8937,-0.8937,-0.8937,-0.8937,-0.8937,-0.8937,-0.8937,-0.8937,-0.8937,-0.8937,-0.8937,-0.8937,-0.8937,-0.8937,-0.8937,-0.8937,-0.8937,-0.8937,-0.8937,-0.8937,-0.8937,-0.8937,-0.8937,-0.8937,-0.8937,-0.8937,-0.8937,-0.8937,-0.8937,-0.8937,-0.8937,-0.8937,-0.8937,-0.8937,-0.8937,-0.8937,-0.8937,-0.8937,-0.8937,-0.8937,-0.8937,-0.8937,-0.8937,-0.8937,-0.8937,-0.8937,-0.8937,-0.8937,-0.8937,-0.8937,-0.8937,-0.8937,-0.8937,-0.9103,-0.943,-0.9706,-0.9981,-1.0363,-1.0586,-1.0688,-1.0692,-1.0692,-1.0692,-1.0692,-1.0692,-1.0692,-1.0692,-1.0692,-1.0692,-1.0692,-1.0802,-1.1021,-1.124,-1.14,-1.1673,-1.1732,-1.1678,-1.1509,-1.1509,-1.14,-1.1076,-1.1021,-1.0747,-1.0308,-1.0091,-0.9926,-0.9434,-0.9213,-0.9154,-0.8992,-0.8937,-0.8937,-0.8937,-0.8937,-0.8937,-0.8937,-0.895,-0.8957,-0.9008,-0.9127,-0.93,-0.9367,-0.9104,-0.8893,-0.8502,-0.8599,-0.8233,-0.7072,-0.646,-0.5972,-0.8937,-0.8937,-0.8937,-0.8937,-0.8937,-0.8937,-0.8937,-0.8937,-0.8937,-0.8937,-0.8937,-0.8937,-0.8937,-0.8937,-0.8937,-0.8937,-0.8937,-0.8937,-0.8937,-0.8937,-0.8937,-0.8937,-0.8937,-0.8937,-0.8937,-0.8937,-0.8937,-0.8937,-0.8937,-0.8937,-0.8937,-0.8937,-0.8937,-0.8937,-0.8937,-0.8937,-0.8937,-0.8937,-0.8937,-0.8937,-0.8937,-0.8937,-0.8937,-0.8937,-0.8937,-0.8937,-0.8937,-0.8937,-0.8937,-0.8937,-0.8937,-0.8937,-0.8937,-0.8937,-0.8937,-0.8937,-0.8992,-0.9106,-0.9213,-0.9651,-0.9981,-1.0088,-1.0476,-1.0692,-1.0692,-1.0692,-1.0692,-1.0692,-1.0692,-1.0692,-1.0692,-1.0692,-1.0692,-1.0692,-1.0692,-1.0743,-1.0962,-1.0962,-1.1021,-1.1131,-1.124,-1.1131,-1.0907,-1.0962,-1.0802,-1.0472,-1.0421,-1.0147,-0.9651,-0.9489,-0.9459,-0.9109,-0.9074,-0.9077,-0.9028,-0.9039,-0.8981,-0.8971,-0.8957,-0.895,-0.8971,-0.8981,-0.9018,-0.9066,-0.9198,-0.9395,-0.9324,-0.9042,-0.8618,-0.8102,-0.7989,-0.7805,-0.6705,-0.5728,-0.5237,-0.8944,-0.8895,-0.8937,-0.8937,-0.8937,-0.8937,-0.8937,-0.8937,-0.8937,-0.8937,-0.8937,-0.8937,-0.8937,-0.8937,-0.8937,-0.8937,-0.8937,-0.8937,-0.8937,-0.8937,-0.8937,-0.8937,-0.8937,-0.8937,-0.8937,-0.8937,-0.8937,-0.8937,-0.8937,-0.8937,-0.8937,-0.8937,-0.8937,-0.8937,-0.8937,-0.8937,-0.8937,-0.8937,-0.8937,-0.8937,-0.8937,-0.8937,-0.8937,-0.8937,-0.8937,-0.8937,-0.8937,-0.8937,-0.8937,-0.8937,-0.8937,-0.8937,-0.8937,-0.8937,-0.8937,-0.894,-0.9158,-0.9489,-0.9765,-1.0036,-1.0308,-1.0527,-1.0692,-1.0692,-1.0692,-1.0692,-1.0692,-1.0692,-1.0692,-1.0692,-1.0692,-1.0692,-1.0692,-1.0692,-1.0692,-1.0747,-1.0747,-1.0692,-1.0637,-1.0476,-1.0582,-1.0582,-1.0417,-1.0417,-1.0363,-0.9926,-0.9761,-0.9651,-0.9165,-0.9068,-0.9067,-0.9159,-0.9204,-0.9157,-0.9214,-0.9207,-0.9069,-0.9008,-0.8991,-0.8984,-0.9032,-0.9059,-0.914,-0.9201,-0.9351,-0.954,-0.9546,-0.9179,-0.8268,-0.7803,-0.7681,-0.7011,-0.5665,-0.4624,-0.4626,-0.9142,-0.9072,-0.8922,-0.8937,-0.8937,-0.8937,-0.8937,-0.8937,-0.8937,-0.8937,-0.8937,-0.8937,-0.8937,-0.8937,-0.8937,-0.8937,-0.8937,-0.8937,-0.8937,-0.8937,-0.8937,-0.8937,-0.8937,-0.8937,-0.8937,-0.8937,-0.8937,-0.8937,-0.8937,-0.8937,-0.8937,-0.8937,-0.8937,-0.8937,-0.8937,-0.8937,-0.8937,-0.8937,-0.8937,-0.8937,-0.8937,-0.8937,-0.8937,-0.8937,-0.8937,-0.8937,-0.8937,-0.8937,-0.8937,-0.8937,-0.8937,-0.8937,-0.8937,-0.8937,-0.8937,-0.8937,-0.8992,-0.9213,-0.9489,-0.9816,-1.0147,-1.0366,-1.0582,-1.0692,-1.0692,-1.0692,-1.0692,-1.0692,-1.0692,-1.0692,-1.0692,-1.0692,-1.0692,-1.0692,-1.0692,-1.0692,-1.0692,-1.0527,-1.0421,-1.0312,-1.0147,-0.9981,-0.9765,-0.9816,-0.9706,-0.9323,-0.922,-0.9113,-0.9009,-0.9035,-0.9089,-0.9207,-0.9275,-0.9367,-0.9367,-0.9364,-0.9256,-0.9171,-0.912,-0.9089,-0.9123,-0.9198,-0.9276,-0.9378,-0.9527,-0.9642,-0.9647,-0.9086,-0.8169,-0.7138,-0.6594,-0.5488,-0.4133,-0.3707,-0.384,-0.9262,-0.92,-0.9055,-0.8929,-0.894,-0.8937,-0.8937,-0.8937,-0.8937,-0.8937,-0.8937,-0.8937,-0.8937,-0.8937,-0.8937,-0.8937,-0.8937,-0.8937,-0.8937,-0.8937,-0.8937,-0.8937,-0.8937,-0.8937,-0.8937,-0.8937,-0.8937,-0.8937,-0.8937,-0.8937,-0.8937,-0.8937,-0.8937,-0.8937,-0.8937,-0.8937,-0.8937,-0.8937,-0.8937,-0.8937,-0.8937,-0.8937,-0.8937,-0.8937,-0.8937,-0.8937,-0.8937,-0.8937,-0.8937,-0.8937,-0.8937,-0.8937,-0.8937,-0.8937,-0.8937,-0.9047,-0.9103,-0.9268,-0.9651,-0.9926,-1.0147,-1.0421,-1.0582,-1.0692,-1.0692,-1.0692,-1.0692,-1.0582,-1.0582,-1.0527,-1.0582,-1.0527,-1.0582,-1.0692,-1.0692,-1.0637,-1.0582,-1.0417,-1.0257,-1.0091,-0.9871,-0.9599,-0.9434,-0.9268,-0.9158,-0.894,-0.8984,-0.9018,-0.9049,-0.915,-0.9222,-0.9303,-0.9405,-0.9459,-0.9466,-0.9456,-0.9435,-0.9357,-0.9276,-0.9252,-0.9252,-0.9374,-0.9469,-0.9561,-0.969,-0.9713,-0.9697,-0.8839,-0.7861,-0.6775,-0.5577,-0.4603,-0.3682,-0.3368,-0.3368,-0.9364,-0.9228,-0.921,-0.9062,-0.8944,-0.8937,-0.8937,-0.8937,-0.8937,-0.8937,-0.8937,-0.8937,-0.8937,-0.8937,-0.8937,-0.8937,-0.8937,-0.8937,-0.8937,-0.8937,-0.8937,-0.8937,-0.8937,-0.8937,-0.8937,-0.8937,-0.8937,-0.8937,-0.8937,-0.8937,-0.8937,-0.8937,-0.8937,-0.8937,-0.8937,-0.8937,-0.8937,-0.8937,-0.8937,-0.8937,-0.8937,-0.8937,-0.8937,-0.8937,-0.8937,-0.8937,-0.8937,-0.8937,-0.8937,-0.8937,-0.8937,-0.8937,-0.8937,-0.8937,-0.9047,-0.9268,-0.9379,-0.9596,-1.0036,-1.0147,-1.0312,-1.0527,-1.0637,-1.0692,-1.0692,-1.0692,-1.0582,-1.0363,-1.0363,-1.0312,-1.0308,-1.0312,-1.0421,-1.0637,-1.0692,-1.0582,-1.0363,-1.0363,-1.0202,-0.9926,-0.9599,-0.9379,-0.9379,-0.9158,-0.8999,-0.8988,-0.9069,-0.9113,-0.9195,-0.9296,-0.9442,-0.952,-0.9568,-0.9608,-0.9618,-0.9615,-0.9598,-0.9561,-0.9479,-0.9442,-0.9418,-0.9527,-0.9622,-0.972,-0.9469,-0.9616,-0.9204,-0.8224,-0.7165,-0.598,-0.4949,-0.4093,-0.3532,-0.3153,-0.2949,-0.9459,-0.9371,-0.9258,-0.9069,-0.8892,-0.8937,-0.8937,-0.8937,-0.8937,-0.8937,-0.8937,-0.8937,-0.8937,-0.8937,-0.8937,-0.8937,-0.8937,-0.8937,-0.8937,-0.8937,-0.8937,-0.8937,-0.8937,-0.8937,-0.8937,-0.8937,-0.8937,-0.8937,-0.8937,-0.8937,-0.8937,-0.8937,-0.8937,-0.8937,-0.8937,-0.8937,-0.8937,-0.8937,-0.8937,-0.8937,-0.8937,-0.8937,-0.8937,-0.8937,-0.8937,-0.8937,-0.8937,-0.8937,-0.8937,-0.8937,-0.8937,-0.8937,-0.8937,-0.8937,-0.8992,-0.9047,-0.9051,-0.9213,-0.9596,-0.9816,-1.0088,-1.0363,-1.0527,-1.0692,-1.0692,-1.0692,-1.0582,-1.0363,-1.0312,-1.0202,-1.0033,-1.0147,-1.0421,-1.0637,-1.0637,-1.0637,-1.0582,-1.0417,-1.0253,-1.0147,-0.9706,-0.9489,-0.9338,-0.9175,-0.8988,-0.9076,-0.915,-0.9272,-0.9378,-0.9445,-0.9591,-0.9622,-0.9666,-0.973,-0.9764,-0.9764,-0.9758,-0.9747,-0.9696,-0.9652,-0.9632,-0.9663,-0.9734,-0.9805,-0.8939,-0.8772,-0.8099,-0.7245,-0.6147,-0.5034,-0.449,-0.3746,-0.3121,-0.2676,-0.2657,-0.9615,-0.9466,-0.931,-0.9164,-0.9028,-0.8964,-0.8937,-0.8937,-0.8937,-0.8937,-0.8937,-0.8937,-0.8937,-0.8937,-0.8937,-0.8937,-0.8937,-0.8937,-0.8937,-0.8937,-0.8937,-0.8937,-0.8937,-0.8937,-0.8937,-0.8937,-0.8937,-0.8937,-0.8937,-0.8937,-0.8937,-0.8937,-0.8937,-0.8937,-0.8937,-0.8937,-0.8937,-0.8937,-0.8937,-0.8937,-0.8937,-0.8937,-0.8937,-0.8937,-0.8937,-0.8937,-0.8937,-0.8937,-0.8937,-0.8937,-0.8937,-0.8937,-0.8937,-0.8937,-0.8937,-0.9051,-0.8992,-0.9103,-0.9489,-0.9651,-0.9761,-1.0036,-1.0253,-1.0308,-1.0308,-1.0308,-1.0202,-0.9923,-0.9926,-0.9816,-0.9761,-0.9926,-1.0198,-1.0472,-1.0417,-1.0363,-1.0527,-1.0366,-1.0257,-1.0036,-0.982,-0.9518,-0.9457,-0.9189,-0.9159,-0.9218,-0.9327,-0.9395,-0.9476,-0.9605,-0.9696,-0.9717,-0.9734,-0.9778,-0.9798,-0.9798,-0.9798,-0.9798,-0.9795,-0.9768,-0.9519,-0.9576,-0.9664,-0.9447,-0.8532,-0.7675,-0.7123,-0.6357,-0.5202,-0.4308,-0.3886,-0.334,-0.2712,-0.2443,-0.2361,-0.9737,-0.9598,-0.9442,-0.9293,-0.9137,-0.9001,-0.8937,-0.8937,-0.8937,-0.8937,-0.8937,-0.8937,-0.8937,-0.8937,-0.8937,-0.8937,-0.8937,-0.8937,-0.8937,-0.8937,-0.8937,-0.8937,-0.8937,-0.8937,-0.8937,-0.8937,-0.8937,-0.8937,-0.8937,-0.8937,-0.8937,-0.8937,-0.8937,-0.8937,-0.8937,-0.8937,-0.8937,-0.8937,-0.8937,-0.8937,-0.8937,-0.8937,-0.8937,-0.8937,-0.8937,-0.8937,-0.8937,-0.8937,-0.8937,-0.8937,-0.8937,-0.8937,-0.8937,-0.8937,-0.8992,-0.9158,-0.9047,-0.9103,-0.9541,-0.9489,-0.9489,-0.9706,-0.9816,-0.9816,-0.9871,-0.9871,-0.9816,-0.9541,-0.9434,-0.9489,-0.9434,-0.9596,-0.9816,-1.0091,-0.9926,-0.9871,-1.0091,-1.0202,-1.0147,-0.9812,-0.9761,-0.9728,-0.9584,-0.9377,-0.9258,-0.93,-0.9425,-0.953,-0.9605,-0.9703,-0.9764,-0.9788,-0.9802,-0.9812,-0.9819,-0.9819,-0.9815,-0.9815,-0.9812,-0.968,-0.9188,-0.9188,-0.938,-0.8961,-0.7429,-0.6754,-0.6573,-0.5588,-0.4229,-0.3519,-0.3095,-0.2611,-0.2109,-0.2213,-0.2192,-0.9737,-0.9595,-0.9449,-0.935,-0.92,-0.9001,-0.8937,-0.8937,-0.8937,-0.8937,-0.8937,-0.8937,-0.8937,-0.8937,-0.8937,-0.8937,-0.8937,-0.8937,-0.8937,-0.8937,-0.8937,-0.8937,-0.8937,-0.8937,-0.8937,-0.8937,-0.8937,-0.8937,-0.8937,-0.8937,-0.8937,-0.8937,-0.8937,-0.8937,-0.8937,-0.8937,-0.8937,-0.8937,-0.8937,-0.8937,-0.8937,-0.8937,-0.8937,-0.8937,-0.8937,-0.8937,-0.8937,-0.8937,-0.8937,-0.8937,-0.8937,-0.8937,-0.8937,-0.8937,-0.8937,-0.8992,-0.8992,-0.8992,-0.9103,-0.9268,-0.9434,-0.9485,-0.9599,-0.9816,-0.9816,-0.9761,-0.9651,-0.9434,-0.9379,-0.9379,-0.9379,-0.9213,-0.9434,-0.9651,-0.9489,-0.9268,-0.9541,-0.9761,-0.9816,-0.9761,-0.9603,-0.9507,-0.9443,-0.9366,-0.9296,-0.9429,-0.951,-0.9646,-0.9724,-0.9734,-0.9808,-0.9819,-0.9819,-0.9819,-0.9819,-0.9819,-0.9819,-0.9819,-0.9819,-0.9697,-0.9268,-0.8285,-0.8285,-0.7426,-0.6082,-0.5657,-0.5609,-0.4245,-0.273,-0.2511,-0.235,-0.2245,-0.2123,-0.2101,-0.2084,-0.9774,-0.9686,-0.9473,-0.9334,-0.9232,-0.9032,-0.8937,-0.8937,-0.8937,-0.8937,-0.8937,-0.8937,-0.8937,-0.8937,-0.8937,-0.8937,-0.8937,-0.8937,-0.8937,-0.8937,-0.8937,-0.8937,-0.8937,-0.8937,-0.8937,-0.8937,-0.8937,-0.8937,-0.8937,-0.8937,-0.8937,-0.8937,-0.8937,-0.8937,-0.8937,-0.8937,-0.8937,-0.8937,-0.8937,-0.8937,-0.8937,-0.8937,-0.8937,-0.8937,-0.8937,-0.8937,-0.8937,-0.8937,-0.8937,-0.8937,-0.8937,-0.8937,-0.8937,-0.8937,-0.8937,-0.8937,-0.8937,-0.8937,-0.8992,-0.9051,-0.9161,-0.9158,-0.9323,-0.932,-0.9375,-0.9375,-0.9323,-0.9213,-0.9158,-0.9213,-0.9323,-0.9103,-0.9213,-0.9375,-0.9213,-0.8995,-0.9158,-0.9434,-0.9544,-0.9448,-0.9443,-0.9472,-0.9437,-0.9343,-0.9456,-0.9585,-0.9629,-0.9751,-0.9754,-0.9812,-0.9815,-0.9819,-0.9819,-0.9819,-0.9819,-0.9819,-0.9819,-0.9819,-0.9819,-0.9697,-0.9451,-0.8224,-0.6935,-0.608,-0.5349,-0.4645,-0.4294,-0.2775,-0.2047,-0.2146,-0.2242,-0.2199,-0.2136,-0.2113,-0.21,-0.9819,-0.9795,-0.9503,-0.9381,-0.9334,-0.9069,-0.8937,-0.8937,-0.8937,-0.8937,-0.8937,-0.8937,-0.8937,-0.8937,-0.8937,-0.8937,-0.8937,-0.8937,-0.8937,-0.8937,-0.8937,-0.8937,-0.8937,-0.8937,-0.8937,-0.8937,-0.8937,-0.8937,-0.8937,-0.8937,-0.8937,-0.8937,-0.8937,-0.8937,-0.8937,-0.8937,-0.8937,-0.8937,-0.8937,-0.8937,-0.8937,-0.8937,-0.8937,-0.8937,-0.8937,-0.8937,-0.8937,-0.8937,-0.8937,-0.8937,-0.8937,-0.8937,-0.8937,-0.8937,-0.8937,-0.8937,-0.8937,-0.8937,-0.8937,-0.8937,-0.8937,-0.8937,-0.8937,-0.8937,-0.8937,-0.8992,-0.8992,-0.8937,-0.8992,-0.9051,-0.9268,-0.9103,-0.9051,-0.9213,-0.9047,-0.8937,-0.8937,-0.9158,-0.9158,-0.9064,-0.9259,-0.9363,-0.9455,-0.9456,-0.9602,-0.9761,-0.9795,-0.9819,-0.9819,-0.9819,-0.9819,-0.9819,-0.9819,-0.9819,-0.9819,-0.9819,-0.9819,-0.9636,-0.9697,-0.9143,-0.89,-0.7121,-0.5712,-0.559,-0.4989,-0.4095,-0.3386,-0.2605,-0.2194,-0.2103,-0.2127,-0.2145,-0.2139,-0.2123,-0.211,-0.9819,-0.9795,-0.9503,-0.9381,-0.9337,-0.9062,-0.8937,-0.8937,-0.8937,-0.8937,-0.8937,-0.8937,-0.8937,-0.8937,-0.8937,-0.8937,-0.8937,-0.8937,-0.8937,-0.8937,-0.8937,-0.8937,-0.8937,-0.8937,-0.8937,-0.8937,-0.8937,-0.8937,-0.8937,-0.8937,-0.8937,-0.8937,-0.8937,-0.8937,-0.8937,-0.8937,-0.8937,-0.8937,-0.8937,-0.8937,-0.8937,-0.8937,-0.8937,-0.8937,-0.8937,-0.8937,-0.8937,-0.8937,-0.8937,-0.8937,-0.8937,-0.8937,-0.8937,-0.8937,-0.8937,-0.8937,-0.8937,-0.8937,-0.8937,-0.8937,-0.8937,-0.8937,-0.8937,-0.8937,-0.8937,-0.8937,-0.8937,-0.8937,-0.8937,-0.8937,-0.8995,-0.8937,-0.8937,-0.8995,-0.894,-0.8937,-0.8937,-0.8937,-0.9061,-0.8977,-0.9132,-0.9301,-0.9388,-0.9479,-0.9646,-0.9754,-0.9788,-0.9812,-0.9819,-0.9819,-0.9819,-0.9819,-0.9819,-0.9819,-0.9819,-0.9819,-0.9758,-0.9451,-0.9143,-0.7978,-0.7182,-0.5406,-0.4427,-0.4734,-0.4073,-0.2922,-0.2392,-0.2237,-0.2207,-0.2112,-0.2133,-0.2222,-0.2142,-0.2126,-0.2099,-0.9819,-0.9788,-0.9507,-0.9381,-0.9327,-0.9062,-0.8937,-0.8937,-0.8937,-0.8937,-0.8937,-0.8937,-0.8937,-0.8937,-0.8937,-0.8937,-0.8937,-0.8937,-0.8937,-0.8937,-0.8937,-0.8937,-0.8937,-0.8937,-0.8937,-0.8937,-0.8937,-0.8937,-0.8937,-0.8937,-0.8937,-0.8937,-0.8937,-0.8937,-0.8937,-0.8937,-0.8937,-0.8937,-0.8937,-0.8937,-0.8937,-0.8937,-0.8937,-0.8937,-0.8937,-0.8937,-0.8937,-0.8937,-0.8937,-0.8937,-0.8937,-0.8937,-0.8937,-0.8937,-0.8937,-0.8937,-0.8937,-0.8937,-0.8937,-0.8937,-0.8937,-0.8937,-0.8937,-0.8937,-0.8937,-0.8937,-0.8937,-0.8937,-0.8937,-0.8937,-0.8937,-0.8937,-0.8937,-0.8937,-0.8937,-0.8937,-0.8937,-0.8937,-0.8967,-0.9025,-0.9238,-0.9344,-0.9395,-0.9496,-0.9666,-0.9747,-0.9781,-0.9802,-0.9819,-0.9819,-0.9819,-0.9819,-0.9819,-0.9819,-0.9819,-0.9819,-0.9819,-0.9515,-0.8593,-0.7426,-0.6388,-0.4979,-0.4367,-0.4366,-0.3339,-0.2114,-0.209,-0.2189,-0.2156,-0.2119,-0.2206,-0.222,-0.221,-0.2127,-0.2101,-0.9819,-0.9798,-0.9503,-0.9381,-0.9334,-0.9066,-0.8937,-0.8937,-0.8937,-0.8937,-0.8937,-0.8937,-0.8937,-0.8937,-0.8937,-0.8937,-0.8937,-0.8937,-0.8937,-0.8937,-0.8937,-0.8937,-0.8937,-0.8937,-0.8937,-0.8937,-0.8937,-0.8937,-0.8937,-0.8937,-0.8937,-0.8937,-0.8937,-0.8937,-0.8937,-0.8937,-0.8937,-0.8937,-0.8937,-0.8937,-0.8937,-0.8937,-0.8937,-0.8937,-0.8937,-0.8937,-0.8937,-0.8937,-0.8937,-0.8937,-0.8937,-0.8937,-0.8937,-0.8937,-0.8937,-0.8937,-0.8937,-0.8937,-0.8937,-0.8937,-0.8937,-0.8937,-0.8937,-0.8937,-0.8937,-0.8937,-0.8937,-0.8937,-0.8937,-0.8937,-0.8937,-0.8937,-0.8937,-0.8937,-0.8937,-0.8937,-0.8937,-0.8947,-0.8977,-0.9089,-0.9276,-0.9384,-0.9439,-0.9568,-0.9747,-0.9771,-0.9805,-0.9805,-0.9819,-0.9819,-0.9819,-0.9819,-0.9819,-0.9819,-0.9819,-0.9819,-0.9819,-0.9697,-0.8346,-0.6938,-0.602,-0.4981,-0.4429,-0.3571,-0.3022,-0.2052,-0.2095,-0.2135,-0.2095,-0.2119,-0.221,-0.222,-0.2214,-0.213,-0.2105,-0.9819,-0.9795,-0.9507,-0.9381,-0.933,-0.9062,-0.8937,-0.8937,-0.8937,-0.8937,-0.8937,-0.8937,-0.8937,-0.8937,-0.8937,-0.8937,-0.8937,-0.8937,-0.8937,-0.8937,-0.8937,-0.8937,-0.8937,-0.8937,-0.8937,-0.8937,-0.8937,-0.8937,-0.8937,-0.8937,-0.8937,-0.8937,-0.8937,-0.8937,-0.8937,-0.8937,-0.8937,-0.8937,-0.8937,-0.8937,-0.8937,-0.8937,-0.8937,-0.8937,-0.8937,-0.8937,-0.8937,-0.8937,-0.8937,-0.8937,-0.8937,-0.8937,-0.8937,-0.8937,-0.8937,-0.8937,-0.8937,-0.8937,-0.8937,-0.8937,-0.8937,-0.8937,-0.8937,-0.8937,-0.8937,-0.8937,-0.8937,-0.8937,-0.8937,-0.8937,-0.8937,-0.8937,-0.8937,-0.8937,-0.8937,-0.8937,-0.8937,-0.8888,-0.8922,-0.9089,-0.9256,-0.9429,-0.9544,-0.9686,-0.9819,-0.9819,-0.9819,-0.9819,-0.9819,-0.9819,-0.9819,-0.9819,-0.9819,-0.9819,-0.9819,-0.9819,-0.9515,-0.9576,-0.8039,-0.6385,-0.5347,-0.4369,-0.3144,-0.2407,-0.2038,-0.1992,-0.2032,-0.2067,-0.2095,-0.2188,-0.2216,-0.2222,-0.2221,-0.2133,-0.2112,-0.9774,-0.968,-0.9473,-0.933,-0.9286,-0.9025,-0.8937,-0.8937,-0.8937,-0.8937,-0.8937,-0.8937,-0.8937,-0.8937,-0.8937,-0.8937,-0.8937,-0.8937,-0.8937,-0.8937,-0.8937,-0.8937,-0.8937,-0.8937,-0.8937,-0.8937,-0.8937,-0.8937,-0.8937,-0.8937,-0.8937,-0.8937,-0.8937,-0.8937,-0.8937,-0.8937,-0.8937,-0.8937,-0.8937,-0.8937,-0.8937,-0.8937,-0.8937,-0.8937,-0.8937,-0.8937,-0.8937,-0.8937,-0.8937,-0.8937,-0.8937,-0.8937,-0.8937,-0.8937,-0.8937,-0.8937,-0.8937,-0.8937,-0.8937,-0.8937,-0.8937,-0.8937,-0.8937,-0.8937,-0.8937,-0.8937,-0.8937,-0.8937,-0.8937,-0.8937,-0.8937,-0.8937,-0.8937,-0.8937,-0.8937,-0.8937,-0.894,-0.8888,-0.8925,-0.9106,-0.9239,-0.9418,-0.9591,-0.9724,-0.9812,-0.9819,-0.9819,-0.9819,-0.9819,-0.9819,-0.9819,-0.9819,-0.9819,-0.9819,-0.9819,-0.9758,-0.9086,-0.8717,-0.7365,-0.5835,-0.4613,-0.3511,-0.2469,-0.2038,-0.2038,-0.2,-0.2035,-0.2061,-0.2086,-0.2186,-0.2222,-0.2222,-0.2222,-0.2218,-0.2192,-0.9741,-0.9598,-0.9445,-0.9371,-0.9248,-0.9018,-0.8937,-0.8937,-0.8937,-0.8937,-0.8937,-0.8937,-0.8937,-0.8937,-0.8937,-0.8937,-0.8937,-0.8937,-0.8937,-0.8937,-0.8937,-0.8937,-0.8937,-0.8937,-0.8937,-0.8937,-0.8937,-0.8937,-0.8937,-0.8937,-0.8937,-0.8937,-0.8937,-0.8937,-0.8937,-0.8937,-0.8937,-0.8937,-0.8937,-0.8937,-0.8937,-0.8937,-0.8937,-0.8937,-0.8937,-0.8937,-0.8937,-0.8937,-0.8937,-0.8937,-0.8937,-0.8937,-0.8937,-0.8937,-0.8937,-0.8937,-0.8937,-0.8937,-0.8937,-0.8937,-0.8937,-0.8937,-0.8937,-0.8937,-0.8937,-0.8937,-0.8937,-0.8937,-0.8937,-0.8937,-0.8937,-0.8937,-0.8937,-0.8937,-0.8937,-0.8937,-0.894,-0.8898,-0.9005,-0.9127,-0.9266,-0.9425,-0.9588,-0.973,-0.9802,-0.9815,-0.9819,-0.9819,-0.9819,-0.9819,-0.9819,-0.9819,-0.9819,-0.9758,-0.9758,-0.9515,-0.8839,-0.7858,-0.651,-0.5345,-0.4183,-0.3204,-0.2223,-0.2038,-0.2038,-0.2069,-0.204,-0.2059,-0.2078,-0.2112,-0.214,-0.2219,-0.2221,-0.2218,-0.227,-0.9737,-0.9598,-0.9445,-0.9371,-0.9327,-0.9059,-0.8937,-0.8937,-0.8937,-0.8937,-0.8937,-0.8937,-0.8937,-0.8937,-0.8937,-0.8937,-0.8937,-0.8937,-0.8937,-0.8937,-0.8937,-0.8937,-0.8937,-0.8937,-0.8937,-0.8937,-0.8937,-0.8937,-0.8937,-0.8937,-0.8937,-0.8937,-0.8937,-0.8937,-0.8937,-0.8937,-0.8937,-0.8937,-0.8937,-0.8937,-0.8937,-0.8937,-0.8937,-0.8937,-0.8937,-0.8937,-0.8937,-0.8937,-0.8937,-0.8937,-0.8937,-0.8937,-0.8937,-0.8937,-0.8937,-0.8937,-0.8937,-0.8937,-0.8937,-0.8937,-0.8937,-0.8937,-0.8937,-0.8937,-0.8937,-0.8937,-0.8937,-0.8937,-0.8937,-0.8937,-0.8937,-0.8937,-0.8937,-0.8937,-0.8937,-0.8937,-0.895,-0.8977,-0.9039,-0.9207,-0.9357,-0.9476,-0.9588,-0.973,-0.9802,-0.9819,-0.9819,-0.9819,-0.9819,-0.9819,-0.9819,-0.9819,-0.9819,-0.9758,-0.9636,-0.9147,-0.8288,-0.7123,-0.5776,-0.4795,-0.3815,-0.2836,-0.2038,-0.2038,-0.2042,-0.2075,-0.2104,-0.2055,-0.2075,-0.2104,-0.2128,-0.2213,-0.2146,-0.2138,-0.2258,-0.9788,-0.9727,-0.9585,-0.9412,-0.9282,-0.9025,-0.8937,-0.8937,-0.8937,-0.8937,-0.8937,-0.8937,-0.8937,-0.8937,-0.8937,-0.8937,-0.8937,-0.8937,-0.8937,-0.8937,-0.8937,-0.8937,-0.8937,-0.8937,-0.8937,-0.8937,-0.8937,-0.8937,-0.8937,-0.8937,-0.8937,-0.8937,-0.8937,-0.8937,-0.8937,-0.8937,-0.8937,-0.8937,-0.8937,-0.8937,-0.8937,-0.8937,-0.8937,-0.8937,-0.8937,-0.8937,-0.8937,-0.8937,-0.8937,-0.8937,-0.8937,-0.8937,-0.8937,-0.8937,-0.8937,-0.8937,-0.8937,-0.8937,-0.8937,-0.8937,-0.8937,-0.8937,-0.8937,-0.8937,-0.8937,-0.8937,-0.8937,-0.8937,-0.8937,-0.8937,-0.8937,-0.8937,-0.8937,-0.8937,-0.8937,-0.8937,-0.896,-0.8994,-0.9083,-0.9255,-0.9374,-0.9554,-0.9646,-0.973,-0.9781,-0.9819,-0.9819,-0.9819,-0.9819,-0.9819,-0.9819,-0.9819,-0.9819,-0.9819,-0.9697,-0.8778,-0.7612,-0.6388,-0.5163,-0.4062,-0.3142,-0.2652,-0.2038,-0.2038,-0.2039,-0.2059,-0.2082,-0.2044,-0.2073,-0.2106,-0.2197,-0.2218,-0.2143,-0.2126,-0.2236,-0.9819,-0.9802,-0.9669,-0.9462,-0.9268,-0.9062,-0.8922,-0.8885,-0.8937,-0.8937,-0.8937,-0.8937,-0.8937,-0.8937,-0.8937,-0.8937,-0.8937,-0.8937,-0.8937,-0.8937,-0.8937,-0.8937,-0.8937,-0.8937,-0.8937,-0.8937,-0.8937,-0.8937,-0.8937,-0.8937,-0.8937,-0.8937,-0.8937,-0.8937,-0.8937,-0.8937,-0.8937,-0.8937,-0.8937,-0.8937,-0.8937,-0.8937,-0.8937,-0.8937,-0.8937,-0.8937,-0.8937,-0.8937,-0.8937,-0.8937,-0.8937,-0.8937,-0.8937,-0.8937,-0.8937,-0.8937,-0.8937,-0.8937,-0.8937,-0.8937,-0.8937,-0.8937,-0.8937,-0.8937,-0.8937,-0.8937,-0.8937,-0.8937,-0.8937,-0.8937,-0.8937,-0.8937,-0.8937,-0.8937,-0.8937,-0.8944,-0.8988,-0.9028,-0.9137,-0.9306,-0.9435,-0.9615,-0.97,-0.9771,-0.9788,-0.9819,-0.9819,-0.9819,-0.9819,-0.9819,-0.9819,-0.9819,-0.9819,-0.9819,-0.9758,-0.8163,-0.6754,-0.602,-0.4735,-0.3328,-0.2468,-0.21,-0.2038,-0.2038,-0.204,-0.2042,-0.2001,-0.2031,-0.207,-0.2176,-0.2192,-0.2136,-0.2127,-0.2108,-0.208,-0.9819,-0.9805,-0.9673,-0.9523,-0.9364,-0.9272,-0.9072,-0.8967,-0.8888,-0.8937,-0.8937,-0.8937,-0.8937,-0.8937,-0.8937,-0.8937,-0.8937,-0.8937,-0.8937,-0.8937,-0.8937,-0.8937,-0.8937,-0.8937,-0.8937,-0.8937,-0.8937,-0.8937,-0.8937,-0.8937,-0.8937,-0.8937,-0.8937,-0.8937,-0.8937,-0.8937,-0.8937,-0.8937,-0.894,-0.8957,-0.8885,-0.895,-0.8971,-0.8937,-0.8937,-0.8937,-0.8937,-0.8937,-0.8937,-0.8937,-0.8937,-0.8937,-0.8937,-0.8937,-0.8937,-0.8937,-0.8937,-0.8937,-0.8937,-0.8937,-0.8937,-0.8937,-0.8937,-0.8937,-0.8937,-0.8937,-0.8937,-0.8937,-0.8937,-0.8937,-0.8937,-0.8937,-0.8937,-0.8944,-0.8947,-0.8988,-0.9035,-0.9171,-0.9296,-0.9384,-0.9513,-0.9659,-0.9747,-0.9815,-0.9812,-0.9819,-0.9819,-0.9819,-0.9819,-0.9819,-0.9819,-0.9819,-0.9758,-0.9451,-0.9022,-0.7243,-0.5898,-0.5224,-0.4246,-0.2899,-0.2223,-0.21,-0.2038,-0.2038,-0.204,-0.2041,-0.1997,-0.2019,-0.2055,-0.2152,-0.21,-0.2107,-0.2101,-0.2087,-0.2059,-0.9819,-0.9815,-0.9768,-0.9666,-0.952,-0.9367,-0.9218,-0.9079,-0.8988,-0.8937,-0.8937,-0.8937,-0.8937,-0.8937,-0.8937,-0.8937,-0.8937,-0.8937,-0.8937,-0.8937,-0.8937,-0.8937,-0.8937,-0.8937,-0.8937,-0.8937,-0.8937,-0.8937,-0.8937,-0.8937,-0.8937,-0.8937,-0.8957,-0.8937,-0.8937,-0.8937,-0.8937,-0.896,-0.9011,-0.9045,-0.8915,-0.9025,-0.9042,-0.8964,-0.896,-0.896,-0.8954,-0.8957,-0.8954,-0.894,-0.8937,-0.8937,-0.8937,-0.8937,-0.8937,-0.8937,-0.8937,-0.8937,-0.8937,-0.8937,-0.8937,-0.8937,-0.8937,-0.8937,-0.8937,-0.8937,-0.8937,-0.8937,-0.8937,-0.8937,-0.8937,-0.8937,-0.8944,-0.8967,-0.8994,-0.9069,-0.9214,-0.9361,-0.9517,-0.9564,-0.9663,-0.972,-0.9798,-0.9819,-0.9819,-0.9819,-0.9819,-0.9819,-0.9819,-0.9819,-0.9819,-0.9819,-0.9697,-0.9204,-0.8346,-0.6632,-0.5345,-0.4611,-0.3694,-0.2469,-0.2038,-0.2038,-0.2038,-0.2038,-0.2039,-0.2041,-0.2054,-0.207,-0.2096,-0.2057,-0.2131,-0.2076,-0.2075,-0.206,-0.2035,-0.9819,-0.9819,-0.9819,-0.9768,-0.9666,-0.9523,-0.9347,-0.921,-0.9005,-0.8937,-0.8937,-0.8937,-0.8937,-0.8937,-0.8937,-0.8937,-0.8937,-0.8937,-0.8937,-0.8937,-0.8937,-0.8937,-0.8937,-0.8937,-0.8937,-0.8937,-0.8937,-0.8937,-0.8937,-0.8937,-0.8971,-0.9011,-0.9015,-0.9072,-0.9072,-0.9076,-0.9059,-0.9113,-0.9198,-0.9201,-0.9161,-0.9171,-0.9188,-0.9133,-0.9103,-0.9083,-0.9035,-0.9008,-0.8991,-0.8967,-0.8944,-0.8885,-0.8885,-0.894,-0.8937,-0.8937,-0.8937,-0.8937,-0.8937,-0.8937,-0.8937,-0.8937,-0.8937,-0.8937,-0.8937,-0.8937,-0.8937,-0.8937,-0.8937,-0.8937,-0.8937,-0.8937,-0.8964,-0.8991,-0.9072,-0.9204,-0.934,-0.9483,-0.9595,-0.9656,-0.9724,-0.9785,-0.9819,-0.9819,-0.9819,-0.9819,-0.9819,-0.9819,-0.9819,-0.9819,-0.9758,-0.9758,-0.939,-0.8714,-0.7673,-0.6141,-0.4979,-0.406,-0.3081,-0.21,-0.2038,-0.2038,-0.2038,-0.2038,-0.2039,-0.204,-0.2104,-0.2119,-0.2137,-0.2147,-0.215,-0.2098,-0.2109,-0.2031,-0.201,-0.9819,-0.9819,-0.9819,-0.9819,-0.9791,-0.9652,-0.9435,-0.9224,-0.9018,-0.8954,-0.8895,-0.8895,-0.8937,-0.8937,-0.8937,-0.8937,-0.8937,-0.8937,-0.8937,-0.8937,-0.8937,-0.8937,-0.8937,-0.8937,-0.8937,-0.8937,-0.8937,-0.8937,-0.894,-0.8981,-0.9045,-0.9173,-0.9204,-0.9228,-0.9273,-0.9276,-0.9252,-0.9296,-0.9351,-0.9344,-0.9313,-0.9357,-0.9347,-0.9313,-0.9296,-0.9249,-0.9198,-0.9157,-0.9096,-0.9039,-0.8915,-0.8902,-0.8895,-0.8888,-0.8885,-0.8937,-0.8937,-0.8937,-0.8937,-0.8937,-0.8937,-0.8937,-0.8937,-0.8937,-0.8937,-0.8937,-0.8937,-0.8937,-0.8937,-0.8937,-0.8937,-0.8967,-0.8994,-0.9066,-0.915,-0.9256,-0.9384,-0.9513,-0.9608,-0.9683,-0.9761,-0.9808,-0.9819,-0.9819,-0.9819,-0.9819,-0.9819,-0.9819,-0.9819,-0.9819,-0.9758,-0.9636,-0.9083,-0.8102,-0.6877,-0.5529,-0.4306,-0.3387,-0.2836,-0.2038,-0.2038,-0.2038,-0.2038,-0.2038,-0.2038,-0.2101,-0.2225,-0.2224,-0.2228,-0.2173,-0.2247,-0.2128,-0.2079,-0.2067,-0.1988,-0.9819,-0.9819,-0.9819,-0.9819,-0.9798,-0.9669,-0.9551,-0.9452,-0.9215,-0.9089,-0.9086,-0.8925,-0.8947,-0.8937,-0.8937,-0.8937,-0.8937,-0.8937,-0.8937,-0.8937,-0.8937,-0.8937,-0.8937,-0.8937,-0.8937,-0.8937,-0.8937,-0.8947,-0.8919,-0.9022,-0.9096,-0.9207,-0.933,-0.9398,-0.9476,-0.95,-0.9452,-0.9439,-0.9503,-0.9483,-0.9469,-0.95,-0.9476,-0.9445,-0.9425,-0.9374,-0.9334,-0.9317,-0.9273,-0.9249,-0.9137,-0.9093,-0.9089,-0.9001,-0.8937,-0.8937,-0.8937,-0.8937,-0.8937,-0.8937,-0.8944,-0.8947,-0.8888,-0.8937,-0.8937,-0.8937,-0.8937,-0.8937,-0.8937,-0.8937,-0.8937,-0.8957,-0.9035,-0.9144,-0.9239,-0.9364,-0.9493,-0.9622,-0.9707,-0.9734,-0.9808,-0.9812,-0.9819,-0.9819,-0.9819,-0.9819,-0.9819,-0.9819,-0.9819,-0.9819,-0.9758,-0.9636,-0.8532,-0.749,-0.6324,-0.4979,-0.3756,-0.2714,-0.2285,-0.2038,-0.2038,-0.2038,-0.2038,-0.2038,-0.21,-0.2222,-0.2406,-0.2406,-0.2406,-0.2406,-0.2415,-0.2231,-0.2107,-0.2041,-0.2038,-0.9819,-0.9819,-0.9819,-0.9819,-0.9805,-0.973,-0.9693,-0.9635,-0.9371,-0.9272,-0.92,-0.9062,-0.8991,-0.894,-0.8937,-0.8937,-0.8937,-0.8937,-0.8937,-0.8937,-0.8937,-0.8937,-0.8937,-0.8937,-0.8937,-0.8937,-0.895,-0.8974,-0.9035,-0.9167,-0.9316,-0.9357,-0.9442,-0.9551,-0.9646,-0.9676,-0.9646,-0.9625,-0.9625,-0.9618,-0.9622,-0.9635,-0.9605,-0.9568,-0.9544,-0.952,-0.9473,-0.9473,-0.9449,-0.9378,-0.9292,-0.9214,-0.9183,-0.9022,-0.894,-0.8937,-0.8937,-0.8981,-0.9011,-0.8964,-0.8981,-0.8988,-0.8915,-0.8885,-0.8937,-0.8937,-0.8937,-0.8937,-0.8937,-0.8937,-0.8937,-0.8957,-0.9089,-0.9222,-0.9344,-0.9469,-0.9608,-0.9751,-0.9795,-0.9808,-0.9819,-0.9819,-0.9819,-0.9819,-0.9819,-0.9819,-0.9819,-0.9819,-0.9819,-0.9819,-0.9819,-0.9758,-0.8224,-0.6693,-0.559,-0.4551,-0.3266,-0.2407,-0.2223,-0.2038,-0.2038,-0.2037,-0.1974,-0.2036,-0.2161,-0.2343,-0.2584,-0.2712,-0.2714,-0.2652,-0.259,-0.2348,-0.2166,-0.2041,-0.2038,-0.9819,-0.9819,-0.9819,-0.9819,-0.9819,-0.9812,-0.9812,-0.9791,-0.9537,-0.9337,-0.9282,-0.9238,-0.91,-0.9008,-0.8988,-0.896,-0.8947,-0.8937,-0.8937,-0.8937,-0.8937,-0.8937,-0.8937,-0.8937,-0.8937,-0.8937,-0.8954,-0.8998,-0.9157,-0.9303,-0.9459,-0.9605,-0.9622,-0.9683,-0.9764,-0.9785,-0.9761,-0.9754,-0.9761,-0.9764,-0.9781,-0.9805,-0.9819,-0.9802,-0.9778,-0.9751,-0.9659,-0.9602,-0.9561,-0.9422,-0.9364,-0.9232,-0.9117,-0.9055,-0.8991,-0.896,-0.8971,-0.9035,-0.9089,-0.9072,-0.9076,-0.9072,-0.9035,-0.8977,-0.8957,-0.894,-0.8937,-0.8937,-0.8937,-0.8981,-0.8994,-0.9032,-0.9133,-0.93,-0.9452,-0.9578,-0.9713,-0.9802,-0.9808,-0.9819,-0.9819,-0.9819,-0.9819,-0.9819,-0.9819,-0.9819,-0.9819,-0.9819,-0.9819,-0.9819,-0.9758,-0.9636,-0.7856,-0.6263,-0.5469,-0.4307,-0.2776,-0.2038,-0.2038,-0.2038,-0.2038,-0.1974,-0.197,-0.2082,-0.2131,-0.2513,-0.2822,-0.289,-0.3019,-0.296,-0.2776,-0.2468,-0.2223,-0.21,-0.2038,-0.9819,-0.9819,-0.9819,-0.9819,-0.9819,-0.9819,-0.9819,-0.9819,-0.9754,-0.9625,-0.9496,-0.9374,-0.9292,-0.9156,-0.9083,-0.9039,-0.8895,-0.8937,-0.8937,-0.8937,-0.8937,-0.8937,-0.8937,-0.8937,-0.8944,-0.8937,-0.896,-0.9066,-0.9222,-0.9415,-0.9571,-0.9622,-0.9686,-0.9785,-0.9815,-0.9819,-0.9819,-0.9819,-0.9819,-0.9819,-0.9819,-0.9819,-0.9819,-0.9819,-0.9808,-0.9808,-0.9754,-0.9754,-0.9747,-0.9693,-0.9574,-0.9398,-0.9228,-0.9176,-0.9045,-0.8981,-0.9049,-0.9113,-0.9241,-0.9215,-0.9228,-0.9171,-0.912,-0.9039,-0.8984,-0.8954,-0.894,-0.8944,-0.8964,-0.9018,-0.9069,-0.9117,-0.9198,-0.9381,-0.9544,-0.9676,-0.9802,-0.9815,-0.9819,-0.9819,-0.9819,-0.9819,-0.9819,-0.9819,-0.9819,-0.9819,-0.9819,-0.9819,-0.9819,-0.9758,-0.9572,-0.9143,-0.7365,-0.5957,-0.5163,-0.4125,-0.2531,-0.2038,-0.2038,-0.2038,-0.2037,-0.1963,-0.1949,-0.2048,-0.2157,-0.2538,-0.2927,-0.3192,-0.3259,-0.3204,-0.3023,-0.2653,-0.2346,-0.2161,-0.21,-0.9819,-0.9819,-0.9819,-0.9819,-0.9819,-0.9819,-0.9819,-0.9819,-0.9819,-0.9778,-0.969,-0.9544,-0.9422,-0.9245,-0.921,-0.9083,-0.8912,-0.8885,-0.8937,-0.8937,-0.8937,-0.8937,-0.8937,-0.894,-0.9001,-0.9018,-0.9191,-0.932,-0.9367,-0.9551,-0.971,-0.9707,-0.9791,-0.9819,-0.9819,-0.9819,-0.9819,-0.9819,-0.9819,-0.9819,-0.9819,-0.9819,-0.9819,-0.9819,-0.9819,-0.9819,-0.9819,-0.9819,-0.9819,-0.9781,-0.9666,-0.95,-0.93,-0.9245,-0.9157,-0.914,-0.9171,-0.9268,-0.9367,-0.9364,-0.9388,-0.9334,-0.9266,-0.9208,-0.9198,-0.9167,-0.9052,-0.9049,-0.9052,-0.9156,-0.9204,-0.9248,-0.9337,-0.951,-0.9581,-0.9669,-0.9764,-0.9819,-0.9819,-0.9819,-0.9819,-0.9819,-0.9819,-0.9819,-0.9819,-0.9819,-0.9819,-0.9819,-0.9819,-0.963,-0.9447,-0.876,-0.6977,-0.5523,-0.4611,-0.3511,-0.2285,-0.2038,-0.2037,-0.1964,-0.1956,-0.1943,-0.1927,-0.1962,-0.2132,-0.2512,-0.2836,-0.3224,-0.3438,-0.3388,-0.3144,-0.2837,-0.2591,-0.2284,-0.2099,-0.9819,-0.9819,-0.9819,-0.9819,-0.9819,-0.9819,-0.9819,-0.9819,-0.9819,-0.9819,-0.9795,-0.9686,-0.9462,-0.9293,-0.9178,-0.9079,-0.9001,-0.8902,-0.8888,-0.8937,-0.8937,-0.8937,-0.8937,-0.8944,-0.9018,-0.9191,-0.9395,-0.9493,-0.9561,-0.9713,-0.9795,-0.9815,-0.9819,-0.9819,-0.9819,-0.9819,-0.9819,-0.9819,-0.9819,-0.9819,-0.9819,-0.9819,-0.9819,-0.9819,-0.9819,-0.9819,-0.9819,-0.9819,-0.9819,-0.9788,-0.9717,-0.9581,-0.9452,-0.933,-0.9364,-0.9303,-0.9296,-0.9388,-0.9496,-0.9513,-0.9537,-0.9527,-0.9456,-0.9412,-0.9395,-0.9317,-0.9201,-0.9174,-0.9238,-0.9268,-0.9316,-0.9384,-0.9483,-0.9602,-0.9646,-0.9676,-0.9754,-0.9819,-0.9819,-0.9819,-0.9819,-0.9819,-0.9819,-0.9819,-0.9819,-0.9819,-0.9819,-0.9819,-0.9694,-0.9438,-0.9185,-0.8176,-0.6633,-0.5312,-0.4176,-0.3064,-0.1962,-0.1971,-0.1967,-0.1951,-0.1933,-0.1911,-0.1891,-0.1933,-0.2167,-0.248,-0.2805,-0.3194,-0.3345,-0.3506,-0.3206,-0.2899,-0.2715,-0.2407,-0.2038,-0.9819,-0.9819,-0.9819,-0.9819,-0.9819,-0.9819,-0.9819,-0.9819,-0.9819,-0.9819,-0.9812,-0.9795,-0.9673,-0.9513,-0.9384,-0.9249,-0.9079,-0.8998,-0.8888,-0.8937,-0.8937,-0.8937,-0.896,-0.9001,-0.9045,-0.9242,-0.9476,-0.9588,-0.9659,-0.9761,-0.9819,-0.9819,-0.9819,-0.9819,-0.9819,-0.9819,-0.9819,-0.9819,-0.9819,-0.9819,-0.9819,-0.9819,-0.9819,-0.9819,-0.9819,-0.9819,-0.9819,-0.9819,-0.9819,-0.9808,-0.9788,-0.9686,-0.9591,-0.9503,-0.9473,-0.9452,-0.9445,-0.9517,-0.9598,-0.9656,-0.969,-0.9625,-0.9557,-0.952,-0.9486,-0.9429,-0.9361,-0.9357,-0.9374,-0.9415,-0.9462,-0.951,-0.9629,-0.9707,-0.9768,-0.9768,-0.9805,-0.9819,-0.9819,-0.9819,-0.9819,-0.9819,-0.9819,-0.9819,-0.9819,-0.9819,-0.9819,-0.9819,-0.9819,-0.9374,-0.8978,-0.7533,-0.6226,-0.5238,-0.4107,-0.2851,-0.1939,-0.1952,-0.1953,-0.1928,-0.19,-0.187,-0.1851,-0.1898,-0.2076,-0.2441,-0.2764,-0.3167,-0.3458,-0.3558,-0.3202,-0.296,-0.2776,-0.2406,-0.2037]}]]